<?xml version="1.0" encoding="UTF-8" standalone="no" ?><gpx xmlns="http://www.topografix.com/GPX/1/1" xmlns:gpxx="http://www.garmin.com/xmlschemas/GpxExtensions/v3" xmlns:wptx1="http://www.garmin.com/xmlschemas/WaypointExtension/v1" xmlns:gpxtpx="http://www.garmin.com/xmlschemas/TrackPointExtension/v1" creator="GuideVTT.com" version="1.1" xmlns:xsi="http://www.w3.org/2001/XMLSchema-instance" xsi:schemaLocation="http://www.topografix.com/GPX/1/1 http://www.topografix.com/GPX/1/1/gpx.xsd http://www.garmin.com/xmlschemas/GpxExtensions/v3 http://www8.garmin.com/xmlschemas/GpxExtensionsv3.xsd http://www.garmin.com/xmlschemas/WaypointExtension/v1 http://www8.garmin.com/xmlschemas/WaypointExtensionv1.xsd http://www.garmin.com/xmlschemas/TrackPointExtension/v1 http://www.garmin.com/xmlschemas/TrackPointExtensionv1.xsd">
<metadata><link href="http://www.garmin.com"><text>Garmin International</text></link><time>2013-06-22T15:13:50Z</time></metadata>
<trk><name>00000_20110430.gpx</name><extensions><gpxx:TrackExtension><gpxx:DisplayColor>Cyan</gpxx:DisplayColor></gpxx:TrackExtension></extensions><trkseg>
<trkpt lat="42.290432" lon="3.280245"><ele>-50.5</ele><time>2011-04-30T09:21:52Z</time></trkpt>
<trkpt lat="42.290543" lon="3.280310"><ele>-50.5</ele><time>2011-04-30T09:21:56Z</time></trkpt>
<trkpt lat="42.290633" lon="3.280412"><ele>-50.5</ele><time>2011-04-30T09:22:01Z</time></trkpt>
<trkpt lat="42.290672" lon="3.280553"><ele>-50.5</ele><time>2011-04-30T09:22:06Z</time></trkpt>
<trkpt lat="42.290692" lon="3.280830"><ele>-50.5</ele><time>2011-04-30T09:22:11Z</time></trkpt>
<trkpt lat="42.290692" lon="3.281032"><ele>-50.5</ele><time>2011-04-30T09:22:16Z</time></trkpt>
<trkpt lat="42.290730" lon="3.281197"><ele>-50.5</ele><time>2011-04-30T09:22:21Z</time></trkpt>
<trkpt lat="42.290795" lon="3.281338"><ele>-50.5</ele><time>2011-04-30T09:22:26Z</time></trkpt>
<trkpt lat="42.290867" lon="3.281443"><ele>-50.5</ele><time>2011-04-30T09:22:31Z</time></trkpt>
<trkpt lat="42.291005" lon="3.281205"><ele>47.4</ele><time>2011-04-30T09:22:36Z</time></trkpt>
<trkpt lat="42.291095" lon="3.281288"><ele>47.5</ele><time>2011-04-30T09:22:41Z</time></trkpt>
<trkpt lat="42.291198" lon="3.281360"><ele>48.1</ele><time>2011-04-30T09:22:46Z</time></trkpt>
<trkpt lat="42.291305" lon="3.281410"><ele>47.6</ele><time>2011-04-30T09:22:51Z</time></trkpt>
<trkpt lat="42.291378" lon="3.281500"><ele>47</ele><time>2011-04-30T09:22:56Z</time></trkpt>
<trkpt lat="42.291438" lon="3.281607"><ele>47.1</ele><time>2011-04-30T09:23:01Z</time></trkpt>
<trkpt lat="42.291515" lon="3.281708"><ele>46.8</ele><time>2011-04-30T09:23:06Z</time></trkpt>
<trkpt lat="42.291595" lon="3.281840"><ele>46.6</ele><time>2011-04-30T09:23:11Z</time></trkpt>
<trkpt lat="42.291660" lon="3.282007"><ele>46.3</ele><time>2011-04-30T09:23:16Z</time></trkpt>
<trkpt lat="42.291683" lon="3.282227"><ele>45.3</ele><time>2011-04-30T09:23:21Z</time></trkpt>
<trkpt lat="42.291702" lon="3.282522"><ele>44.3</ele><time>2011-04-30T09:23:26Z</time></trkpt>
<trkpt lat="42.291718" lon="3.282837"><ele>43.1</ele><time>2011-04-30T09:23:31Z</time></trkpt>
<trkpt lat="42.291713" lon="3.283167"><ele>42.2</ele><time>2011-04-30T09:23:36Z</time></trkpt>
<trkpt lat="42.291778" lon="3.283467"><ele>42.1</ele><time>2011-04-30T09:23:40Z</time></trkpt>
<trkpt lat="42.291905" lon="3.283707"><ele>41.8</ele><time>2011-04-30T09:23:45Z</time></trkpt>
<trkpt lat="42.292057" lon="3.283875"><ele>41.8</ele><time>2011-04-30T09:23:50Z</time></trkpt>
<trkpt lat="42.292240" lon="3.284032"><ele>41.2</ele><time>2011-04-30T09:23:55Z</time></trkpt>
<trkpt lat="42.292468" lon="3.284185"><ele>38.2</ele><time>2011-04-30T09:24:00Z</time></trkpt>
<trkpt lat="42.292687" lon="3.284312"><ele>35.3</ele><time>2011-04-30T09:24:05Z</time></trkpt>
<trkpt lat="42.292817" lon="3.284542"><ele>34.1</ele><time>2011-04-30T09:24:10Z</time></trkpt>
<trkpt lat="42.293060" lon="3.284620"><ele>30.3</ele><time>2011-04-30T09:24:15Z</time></trkpt>
<trkpt lat="42.293317" lon="3.284797"><ele>26.1</ele><time>2011-04-30T09:24:20Z</time></trkpt>
<trkpt lat="42.293578" lon="3.285033"><ele>23.2</ele><time>2011-04-30T09:24:25Z</time></trkpt>
<trkpt lat="42.293820" lon="3.285235"><ele>21.5</ele><time>2011-04-30T09:24:30Z</time></trkpt>
<trkpt lat="42.294072" lon="3.285107"><ele>20</ele><time>2011-04-30T09:24:35Z</time></trkpt>
<trkpt lat="42.294303" lon="3.284863"><ele>19.1</ele><time>2011-04-30T09:24:40Z</time></trkpt>
<trkpt lat="42.294472" lon="3.284880"><ele>17.4</ele><time>2011-04-30T09:24:45Z</time></trkpt>
<trkpt lat="42.294312" lon="3.285253"><ele>15.3</ele><time>2011-04-30T09:24:50Z</time></trkpt>
<trkpt lat="42.294063" lon="3.285647"><ele>12.2</ele><time>2011-04-30T09:24:55Z</time></trkpt>
<trkpt lat="42.293865" lon="3.285943"><ele>8.2</ele><time>2011-04-30T09:25:00Z</time></trkpt>
<trkpt lat="42.293667" lon="3.285998"><ele>6.7</ele><time>2011-04-30T09:25:05Z</time></trkpt>
<trkpt lat="42.293563" lon="3.285988"><ele>6.6</ele><time>2011-04-30T09:25:10Z</time></trkpt>
<trkpt lat="42.293418" lon="3.286008"><ele>5.2</ele><time>2011-04-30T09:25:15Z</time></trkpt>
<trkpt lat="42.293252" lon="3.286098"><ele>3.8</ele><time>2011-04-30T09:25:20Z</time></trkpt>
<trkpt lat="42.293152" lon="3.286293"><ele>3.6</ele><time>2011-04-30T09:25:25Z</time></trkpt>
<trkpt lat="42.293083" lon="3.286390"><ele>3.7</ele><time>2011-04-30T09:25:30Z</time></trkpt>
<trkpt lat="42.293063" lon="3.286392"><ele>3.5</ele><time>2011-04-30T09:25:35Z</time></trkpt>
<trkpt lat="42.293063" lon="3.286387"><ele>3.4</ele><time>2011-04-30T09:25:40Z</time></trkpt>
<trkpt lat="42.293072" lon="3.286377"><ele>3.3</ele><time>2011-04-30T09:25:45Z</time></trkpt>
<trkpt lat="42.293072" lon="3.286378"><ele>3.4</ele><time>2011-04-30T09:25:50Z</time></trkpt>
<trkpt lat="42.293072" lon="3.286378"><ele>3.6</ele><time>2011-04-30T09:25:55Z</time></trkpt>
<trkpt lat="42.293072" lon="3.286382"><ele>3.7</ele><time>2011-04-30T09:26:00Z</time></trkpt>
<trkpt lat="42.293072" lon="3.286383"><ele>3.9</ele><time>2011-04-30T09:26:05Z</time></trkpt>
<trkpt lat="42.293075" lon="3.286383"><ele>3.8</ele><time>2011-04-30T09:26:10Z</time></trkpt>
<trkpt lat="42.293053" lon="3.286450"><ele>3.5</ele><time>2011-04-30T09:26:15Z</time></trkpt>
<trkpt lat="42.292942" lon="3.286565"><ele>3.1</ele><time>2011-04-30T09:26:20Z</time></trkpt>
<trkpt lat="42.292903" lon="3.286593"><ele>2.9</ele><time>2011-04-30T09:26:25Z</time></trkpt>
<trkpt lat="42.292897" lon="3.286598"><ele>3.2</ele><time>2011-04-30T09:26:30Z</time></trkpt>
<trkpt lat="42.292885" lon="3.286618"><ele>3.7</ele><time>2011-04-30T09:26:35Z</time></trkpt>
<trkpt lat="42.292885" lon="3.286617"><ele>3.2</ele><time>2011-04-30T09:26:40Z</time></trkpt>
<trkpt lat="42.292877" lon="3.286613"><ele>2.8</ele><time>2011-04-30T09:26:45Z</time></trkpt>
<trkpt lat="42.292888" lon="3.286613"><ele>2.9</ele><time>2011-04-30T09:26:50Z</time></trkpt>
<trkpt lat="42.292962" lon="3.286528"><ele>3.1</ele><time>2011-04-30T09:26:55Z</time></trkpt>
<trkpt lat="42.293072" lon="3.286408"><ele>3.3</ele><time>2011-04-30T09:27:00Z</time></trkpt>
<trkpt lat="42.293125" lon="3.286312"><ele>3.2</ele><time>2011-04-30T09:27:05Z</time></trkpt>
<trkpt lat="42.293137" lon="3.286280"><ele>3.1</ele><time>2011-04-30T09:27:10Z</time></trkpt>
<trkpt lat="42.293137" lon="3.286282"><ele>3.2</ele><time>2011-04-30T09:27:15Z</time></trkpt>
<trkpt lat="42.293133" lon="3.286283"><ele>3.1</ele><time>2011-04-30T09:27:20Z</time></trkpt>
<trkpt lat="42.293133" lon="3.286285"><ele>3</ele><time>2011-04-30T09:27:25Z</time></trkpt>
<trkpt lat="42.293133" lon="3.286285"><ele>2.9</ele><time>2011-04-30T09:27:30Z</time></trkpt>
<trkpt lat="42.293152" lon="3.286260"><ele>2.7</ele><time>2011-04-30T09:27:35Z</time></trkpt>
<trkpt lat="42.293217" lon="3.286145"><ele>2.6</ele><time>2011-04-30T09:27:40Z</time></trkpt>
<trkpt lat="42.293285" lon="3.286030"><ele>3.1</ele><time>2011-04-30T09:27:45Z</time></trkpt>
<trkpt lat="42.293412" lon="3.286020"><ele>5.3</ele><time>2011-04-30T09:27:50Z</time></trkpt>
<trkpt lat="42.293495" lon="3.286018"><ele>8.1</ele><time>2011-04-30T09:27:55Z</time></trkpt>
<trkpt lat="42.293575" lon="3.285982"><ele>10.1</ele><time>2011-04-30T09:28:00Z</time></trkpt>
<trkpt lat="42.293747" lon="3.286002"><ele>9.4</ele><time>2011-04-30T09:28:05Z</time></trkpt>
<trkpt lat="42.293873" lon="3.285897"><ele>10.4</ele><time>2011-04-30T09:28:10Z</time></trkpt>
<trkpt lat="42.293948" lon="3.285778"><ele>11.5</ele><time>2011-04-30T09:28:15Z</time></trkpt>
<trkpt lat="42.294018" lon="3.285678"><ele>11.3</ele><time>2011-04-30T09:28:20Z</time></trkpt>
<trkpt lat="42.294078" lon="3.285577"><ele>12.2</ele><time>2011-04-30T09:28:25Z</time></trkpt>
<trkpt lat="42.294143" lon="3.285468"><ele>12.9</ele><time>2011-04-30T09:28:30Z</time></trkpt>
<trkpt lat="42.294217" lon="3.285355"><ele>13</ele><time>2011-04-30T09:28:35Z</time></trkpt>
<trkpt lat="42.294288" lon="3.285235"><ele>13.2</ele><time>2011-04-30T09:28:40Z</time></trkpt>
<trkpt lat="42.294357" lon="3.285128"><ele>14.3</ele><time>2011-04-30T09:28:45Z</time></trkpt>
<trkpt lat="42.294422" lon="3.285012"><ele>15.1</ele><time>2011-04-30T09:28:50Z</time></trkpt>
<trkpt lat="42.294457" lon="3.284890"><ele>16.5</ele><time>2011-04-30T09:28:55Z</time></trkpt>
<trkpt lat="42.294433" lon="3.284795"><ele>17.7</ele><time>2011-04-30T09:29:00Z</time></trkpt>
<trkpt lat="42.294350" lon="3.284802"><ele>17.9</ele><time>2011-04-30T09:29:05Z</time></trkpt>
<trkpt lat="42.294255" lon="3.284878"><ele>18.1</ele><time>2011-04-30T09:29:10Z</time></trkpt>
<trkpt lat="42.294158" lon="3.284980"><ele>18.2</ele><time>2011-04-30T09:29:15Z</time></trkpt>
<trkpt lat="42.294057" lon="3.285092"><ele>18.5</ele><time>2011-04-30T09:29:20Z</time></trkpt>
<trkpt lat="42.293942" lon="3.285175"><ele>18.9</ele><time>2011-04-30T09:29:25Z</time></trkpt>
<trkpt lat="42.293805" lon="3.285232"><ele>19.2</ele><time>2011-04-30T09:29:30Z</time></trkpt>
<trkpt lat="42.293670" lon="3.285178"><ele>20.2</ele><time>2011-04-30T09:29:35Z</time></trkpt>
<trkpt lat="42.293583" lon="3.285067"><ele>20.8</ele><time>2011-04-30T09:29:40Z</time></trkpt>
<trkpt lat="42.293492" lon="3.284967"><ele>21.2</ele><time>2011-04-30T09:29:45Z</time></trkpt>
<trkpt lat="42.293388" lon="3.284878"><ele>22</ele><time>2011-04-30T09:29:50Z</time></trkpt>
<trkpt lat="42.293308" lon="3.284788"><ele>23</ele><time>2011-04-30T09:29:55Z</time></trkpt>
<trkpt lat="42.293217" lon="3.284712"><ele>24.4</ele><time>2011-04-30T09:30:00Z</time></trkpt>
<trkpt lat="42.293118" lon="3.284658"><ele>25.5</ele><time>2011-04-30T09:30:05Z</time></trkpt>
<trkpt lat="42.293018" lon="3.284633"><ele>26.8</ele><time>2011-04-30T09:30:10Z</time></trkpt>
<trkpt lat="42.292927" lon="3.284608"><ele>28</ele><time>2011-04-30T09:30:15Z</time></trkpt>
<trkpt lat="42.292832" lon="3.284580"><ele>29</ele><time>2011-04-30T09:30:20Z</time></trkpt>
<trkpt lat="42.292752" lon="3.284478"><ele>29.7</ele><time>2011-04-30T09:30:25Z</time></trkpt>
<trkpt lat="42.292693" lon="3.284348"><ele>30.4</ele><time>2011-04-30T09:30:30Z</time></trkpt>
<trkpt lat="42.292613" lon="3.284265"><ele>31.1</ele><time>2011-04-30T09:30:35Z</time></trkpt>
<trkpt lat="42.292515" lon="3.284220"><ele>32.2</ele><time>2011-04-30T09:30:40Z</time></trkpt>
<trkpt lat="42.292412" lon="3.284182"><ele>33.5</ele><time>2011-04-30T09:30:45Z</time></trkpt>
<trkpt lat="42.292323" lon="3.284128"><ele>35</ele><time>2011-04-30T09:30:50Z</time></trkpt>
<trkpt lat="42.292237" lon="3.284068"><ele>36.2</ele><time>2011-04-30T09:30:55Z</time></trkpt>
<trkpt lat="42.292157" lon="3.283990"><ele>37.3</ele><time>2011-04-30T09:31:00Z</time></trkpt>
<trkpt lat="42.292072" lon="3.283903"><ele>38.3</ele><time>2011-04-30T09:31:05Z</time></trkpt>
<trkpt lat="42.291985" lon="3.283795"><ele>38.7</ele><time>2011-04-30T09:31:10Z</time></trkpt>
<trkpt lat="42.291897" lon="3.283655"><ele>38.7</ele><time>2011-04-30T09:31:15Z</time></trkpt>
<trkpt lat="42.291813" lon="3.283507"><ele>38.8</ele><time>2011-04-30T09:31:20Z</time></trkpt>
<trkpt lat="42.291748" lon="3.283318"><ele>38.7</ele><time>2011-04-30T09:31:25Z</time></trkpt>
<trkpt lat="42.291642" lon="3.283185"><ele>38.7</ele><time>2011-04-30T09:31:30Z</time></trkpt>
<trkpt lat="42.291503" lon="3.283203"><ele>38.5</ele><time>2011-04-30T09:31:35Z</time></trkpt>
<trkpt lat="42.291390" lon="3.283210"><ele>38.1</ele><time>2011-04-30T09:31:40Z</time></trkpt>
<trkpt lat="42.291222" lon="3.283198"><ele>37.4</ele><time>2011-04-30T09:31:45Z</time></trkpt>
<trkpt lat="42.291065" lon="3.283160"><ele>37</ele><time>2011-04-30T09:31:50Z</time></trkpt>
<trkpt lat="42.290977" lon="3.283072"><ele>36</ele><time>2011-04-30T09:31:55Z</time></trkpt>
<trkpt lat="42.290837" lon="3.282935"><ele>35.7</ele><time>2011-04-30T09:32:00Z</time></trkpt>
<trkpt lat="42.290707" lon="3.282798"><ele>35.3</ele><time>2011-04-30T09:32:05Z</time></trkpt>
<trkpt lat="42.290600" lon="3.282610"><ele>33.5</ele><time>2011-04-30T09:32:10Z</time></trkpt>
<trkpt lat="42.290490" lon="3.282420"><ele>31</ele><time>2011-04-30T09:32:15Z</time></trkpt>
<trkpt lat="42.290355" lon="3.282288"><ele>28.1</ele><time>2011-04-30T09:32:20Z</time></trkpt>
<trkpt lat="42.290165" lon="3.282187"><ele>23.6</ele><time>2011-04-30T09:32:25Z</time></trkpt>
<trkpt lat="42.289845" lon="3.282113"><ele>19</ele><time>2011-04-30T09:32:30Z</time></trkpt>
<trkpt lat="42.289550" lon="3.281937"><ele>15.2</ele><time>2011-04-30T09:32:35Z</time></trkpt>
<trkpt lat="42.289310" lon="3.281672"><ele>15.4</ele><time>2011-04-30T09:32:40Z</time></trkpt>
<trkpt lat="42.289055" lon="3.281403"><ele>12.3</ele><time>2011-04-30T09:32:45Z</time></trkpt>
<trkpt lat="42.288845" lon="3.281110"><ele>7.9</ele><time>2011-04-30T09:32:50Z</time></trkpt>
<trkpt lat="42.288780" lon="3.280805"><ele>6.2</ele><time>2011-04-30T09:32:55Z</time></trkpt>
<trkpt lat="42.288738" lon="3.280458"><ele>4.8</ele><time>2011-04-30T09:33:00Z</time></trkpt>
<trkpt lat="42.288780" lon="3.280108"><ele>3.2</ele><time>2011-04-30T09:33:05Z</time></trkpt>
<trkpt lat="42.288895" lon="3.279845"><ele>2.5</ele><time>2011-04-30T09:33:10Z</time></trkpt>
<trkpt lat="42.288982" lon="3.279545"><ele>2.2</ele><time>2011-04-30T09:33:15Z</time></trkpt>
<trkpt lat="42.289017" lon="3.279218"><ele>2.5</ele><time>2011-04-30T09:33:20Z</time></trkpt>
<trkpt lat="42.289002" lon="3.278903"><ele>2.3</ele><time>2011-04-30T09:33:25Z</time></trkpt>
<trkpt lat="42.288948" lon="3.278600"><ele>2.4</ele><time>2011-04-30T09:33:30Z</time></trkpt>
<trkpt lat="42.288883" lon="3.278302"><ele>2.3</ele><time>2011-04-30T09:33:35Z</time></trkpt>
<trkpt lat="42.288800" lon="3.278058"><ele>2.1</ele><time>2011-04-30T09:33:40Z</time></trkpt>
<trkpt lat="42.288682" lon="3.277830"><ele>2.7</ele><time>2011-04-30T09:33:45Z</time></trkpt>
<trkpt lat="42.288555" lon="3.277623"><ele>2.3</ele><time>2011-04-30T09:33:50Z</time></trkpt>
<trkpt lat="42.288422" lon="3.277372"><ele>2.1</ele><time>2011-04-30T09:33:55Z</time></trkpt>
<trkpt lat="42.288258" lon="3.277175"><ele>2.5</ele><time>2011-04-30T09:34:00Z</time></trkpt>
<trkpt lat="42.288028" lon="3.277143"><ele>1.6</ele><time>2011-04-30T09:34:05Z</time></trkpt>
<trkpt lat="42.287777" lon="3.277233"><ele>0.6</ele><time>2011-04-30T09:34:10Z</time></trkpt>
<trkpt lat="42.287513" lon="3.277315"><ele>0.2</ele><time>2011-04-30T09:34:15Z</time></trkpt>
<trkpt lat="42.287415" lon="3.277023"><ele>-0.2</ele><time>2011-04-30T09:34:20Z</time></trkpt>
<trkpt lat="42.287480" lon="3.276645"><ele>-0.7</ele><time>2011-04-30T09:34:25Z</time></trkpt>
<trkpt lat="42.287502" lon="3.276283"><ele>-0.6</ele><time>2011-04-30T09:34:30Z</time></trkpt>
<trkpt lat="42.287380" lon="3.276002"><ele>0.3</ele><time>2011-04-30T09:34:35Z</time></trkpt>
<trkpt lat="42.287117" lon="3.275953"><ele>0.8</ele><time>2011-04-30T09:34:40Z</time></trkpt>
<trkpt lat="42.286868" lon="3.276115"><ele>0.5</ele><time>2011-04-30T09:34:45Z</time></trkpt>
<trkpt lat="42.286628" lon="3.276248"><ele>0.8</ele><time>2011-04-30T09:34:50Z</time></trkpt>
<trkpt lat="42.286412" lon="3.276365"><ele>1.9</ele><time>2011-04-30T09:34:55Z</time></trkpt>
<trkpt lat="42.286202" lon="3.276460"><ele>2.8</ele><time>2011-04-30T09:35:00Z</time></trkpt>
<trkpt lat="42.286010" lon="3.276537"><ele>3.6</ele><time>2011-04-30T09:35:05Z</time></trkpt>
<trkpt lat="42.285882" lon="3.276462"><ele>4.6</ele><time>2011-04-30T09:35:10Z</time></trkpt>
<trkpt lat="42.285847" lon="3.276283"><ele>5.8</ele><time>2011-04-30T09:35:15Z</time></trkpt>
<trkpt lat="42.285720" lon="3.276128"><ele>6.1</ele><time>2011-04-30T09:35:20Z</time></trkpt>
<trkpt lat="42.285583" lon="3.276013"><ele>7.6</ele><time>2011-04-30T09:35:25Z</time></trkpt>
<trkpt lat="42.285442" lon="3.275823"><ele>6.9</ele><time>2011-04-30T09:35:30Z</time></trkpt>
<trkpt lat="42.285320" lon="3.275628"><ele>7.4</ele><time>2011-04-30T09:35:35Z</time></trkpt>
<trkpt lat="42.285148" lon="3.275682"><ele>7.6</ele><time>2011-04-30T09:35:40Z</time></trkpt>
<trkpt lat="42.284947" lon="3.275667"><ele>8.1</ele><time>2011-04-30T09:35:45Z</time></trkpt>
<trkpt lat="42.284808" lon="3.275447"><ele>6.6</ele><time>2011-04-30T09:35:50Z</time></trkpt>
<trkpt lat="42.284523" lon="3.275290"><ele>6.3</ele><time>2011-04-30T09:35:55Z</time></trkpt>
<trkpt lat="42.284213" lon="3.275272"><ele>4.4</ele><time>2011-04-30T09:36:00Z</time></trkpt>
<trkpt lat="42.283928" lon="3.275440"><ele>3</ele><time>2011-04-30T09:36:05Z</time></trkpt>
<trkpt lat="42.283657" lon="3.275647"><ele>2.5</ele><time>2011-04-30T09:36:10Z</time></trkpt>
<trkpt lat="42.283408" lon="3.275787"><ele>2.6</ele><time>2011-04-30T09:36:15Z</time></trkpt>
<trkpt lat="42.283168" lon="3.275818"><ele>2.6</ele><time>2011-04-30T09:36:20Z</time></trkpt>
<trkpt lat="42.282955" lon="3.275598"><ele>2.6</ele><time>2011-04-30T09:36:25Z</time></trkpt>
<trkpt lat="42.282742" lon="3.275503"><ele>3.5</ele><time>2011-04-30T09:36:30Z</time></trkpt>
<trkpt lat="42.282540" lon="3.275503"><ele>4.4</ele><time>2011-04-30T09:36:35Z</time></trkpt>
<trkpt lat="42.282383" lon="3.275540"><ele>5.7</ele><time>2011-04-30T09:36:40Z</time></trkpt>
<trkpt lat="42.282268" lon="3.275600"><ele>7</ele><time>2011-04-30T09:36:45Z</time></trkpt>
<trkpt lat="42.282162" lon="3.275635"><ele>8.3</ele><time>2011-04-30T09:36:50Z</time></trkpt>
<trkpt lat="42.282058" lon="3.275622"><ele>9.5</ele><time>2011-04-30T09:36:55Z</time></trkpt>
<trkpt lat="42.281960" lon="3.275605"><ele>11</ele><time>2011-04-30T09:37:00Z</time></trkpt>
<trkpt lat="42.281857" lon="3.275593"><ele>13.9</ele><time>2011-04-30T09:37:05Z</time></trkpt>
<trkpt lat="42.281768" lon="3.275562"><ele>15.2</ele><time>2011-04-30T09:37:10Z</time></trkpt>
<trkpt lat="42.281673" lon="3.275523"><ele>15.7</ele><time>2011-04-30T09:37:15Z</time></trkpt>
<trkpt lat="42.281578" lon="3.275483"><ele>16.2</ele><time>2011-04-30T09:37:20Z</time></trkpt>
<trkpt lat="42.281490" lon="3.275447"><ele>16.9</ele><time>2011-04-30T09:37:25Z</time></trkpt>
<trkpt lat="42.281403" lon="3.275410"><ele>17.7</ele><time>2011-04-30T09:37:30Z</time></trkpt>
<trkpt lat="42.281318" lon="3.275362"><ele>19.1</ele><time>2011-04-30T09:37:35Z</time></trkpt>
<trkpt lat="42.281253" lon="3.275290"><ele>20.5</ele><time>2011-04-30T09:37:40Z</time></trkpt>
<trkpt lat="42.281212" lon="3.275187"><ele>21.5</ele><time>2011-04-30T09:37:45Z</time></trkpt>
<trkpt lat="42.281185" lon="3.275070"><ele>22.1</ele><time>2011-04-30T09:37:50Z</time></trkpt>
<trkpt lat="42.281158" lon="3.274955"><ele>22.6</ele><time>2011-04-30T09:37:55Z</time></trkpt>
<trkpt lat="42.281132" lon="3.274845"><ele>23.2</ele><time>2011-04-30T09:38:00Z</time></trkpt>
<trkpt lat="42.281143" lon="3.274727"><ele>24</ele><time>2011-04-30T09:38:05Z</time></trkpt>
<trkpt lat="42.281150" lon="3.274613"><ele>24.8</ele><time>2011-04-30T09:38:10Z</time></trkpt>
<trkpt lat="42.281158" lon="3.274507"><ele>25.6</ele><time>2011-04-30T09:38:15Z</time></trkpt>
<trkpt lat="42.281162" lon="3.274405"><ele>26.4</ele><time>2011-04-30T09:38:20Z</time></trkpt>
<trkpt lat="42.281150" lon="3.274305"><ele>27.6</ele><time>2011-04-30T09:38:25Z</time></trkpt>
<trkpt lat="42.281128" lon="3.274210"><ele>28.7</ele><time>2011-04-30T09:38:30Z</time></trkpt>
<trkpt lat="42.281087" lon="3.274123"><ele>29.5</ele><time>2011-04-30T09:38:35Z</time></trkpt>
<trkpt lat="42.281033" lon="3.274057"><ele>30.7</ele><time>2011-04-30T09:38:40Z</time></trkpt>
<trkpt lat="42.280963" lon="3.274022"><ele>32.1</ele><time>2011-04-30T09:38:45Z</time></trkpt>
<trkpt lat="42.280903" lon="3.273992"><ele>33.1</ele><time>2011-04-30T09:38:50Z</time></trkpt>
<trkpt lat="42.280823" lon="3.273955"><ele>34.4</ele><time>2011-04-30T09:38:55Z</time></trkpt>
<trkpt lat="42.280753" lon="3.273900"><ele>35.7</ele><time>2011-04-30T09:39:00Z</time></trkpt>
<trkpt lat="42.280685" lon="3.273853"><ele>37</ele><time>2011-04-30T09:39:05Z</time></trkpt>
<trkpt lat="42.280617" lon="3.273855"><ele>38.3</ele><time>2011-04-30T09:39:10Z</time></trkpt>
<trkpt lat="42.280587" lon="3.273973"><ele>39.3</ele><time>2011-04-30T09:39:15Z</time></trkpt>
<trkpt lat="42.280582" lon="3.274098"><ele>40.2</ele><time>2011-04-30T09:39:20Z</time></trkpt>
<trkpt lat="42.280598" lon="3.274217"><ele>41.4</ele><time>2011-04-30T09:39:25Z</time></trkpt>
<trkpt lat="42.280555" lon="3.274343"><ele>42</ele><time>2011-04-30T09:39:30Z</time></trkpt>
<trkpt lat="42.280480" lon="3.274417"><ele>42.8</ele><time>2011-04-30T09:39:35Z</time></trkpt>
<trkpt lat="42.280388" lon="3.274473"><ele>43.4</ele><time>2011-04-30T09:39:40Z</time></trkpt>
<trkpt lat="42.280288" lon="3.274527"><ele>44.1</ele><time>2011-04-30T09:39:45Z</time></trkpt>
<trkpt lat="42.280208" lon="3.274590"><ele>44.8</ele><time>2011-04-30T09:39:50Z</time></trkpt>
<trkpt lat="42.280140" lon="3.274640"><ele>45.4</ele><time>2011-04-30T09:39:55Z</time></trkpt>
<trkpt lat="42.280063" lon="3.274698"><ele>46.1</ele><time>2011-04-30T09:40:00Z</time></trkpt>
<trkpt lat="42.279980" lon="3.274755"><ele>46.9</ele><time>2011-04-30T09:40:05Z</time></trkpt>
<trkpt lat="42.279900" lon="3.274812"><ele>47.6</ele><time>2011-04-30T09:40:10Z</time></trkpt>
<trkpt lat="42.279812" lon="3.274858"><ele>48.2</ele><time>2011-04-30T09:40:15Z</time></trkpt>
<trkpt lat="42.279732" lon="3.274833"><ele>48.9</ele><time>2011-04-30T09:40:20Z</time></trkpt>
<trkpt lat="42.279687" lon="3.274727"><ele>49.4</ele><time>2011-04-30T09:40:25Z</time></trkpt>
<trkpt lat="42.279705" lon="3.274620"><ele>50.2</ele><time>2011-04-30T09:40:30Z</time></trkpt>
<trkpt lat="42.279750" lon="3.274525"><ele>51.7</ele><time>2011-04-30T09:40:35Z</time></trkpt>
<trkpt lat="42.279797" lon="3.274435"><ele>52.8</ele><time>2011-04-30T09:40:40Z</time></trkpt>
<trkpt lat="42.279823" lon="3.274360"><ele>53.5</ele><time>2011-04-30T09:40:45Z</time></trkpt>
<trkpt lat="42.279862" lon="3.274247"><ele>54.3</ele><time>2011-04-30T09:40:50Z</time></trkpt>
<trkpt lat="42.279892" lon="3.274127"><ele>54.8</ele><time>2011-04-30T09:40:55Z</time></trkpt>
<trkpt lat="42.279930" lon="3.274008"><ele>55.6</ele><time>2011-04-30T09:41:00Z</time></trkpt>
<trkpt lat="42.279953" lon="3.273875"><ele>56.6</ele><time>2011-04-30T09:41:05Z</time></trkpt>
<trkpt lat="42.279960" lon="3.273752"><ele>57.4</ele><time>2011-04-30T09:41:10Z</time></trkpt>
<trkpt lat="42.279950" lon="3.273630"><ele>58.2</ele><time>2011-04-30T09:41:15Z</time></trkpt>
<trkpt lat="42.279922" lon="3.273527"><ele>58.9</ele><time>2011-04-30T09:41:20Z</time></trkpt>
<trkpt lat="42.279885" lon="3.273425"><ele>59.5</ele><time>2011-04-30T09:41:25Z</time></trkpt>
<trkpt lat="42.279847" lon="3.273315"><ele>60</ele><time>2011-04-30T09:41:30Z</time></trkpt>
<trkpt lat="42.279805" lon="3.273215"><ele>60.8</ele><time>2011-04-30T09:41:35Z</time></trkpt>
<trkpt lat="42.279758" lon="3.273110"><ele>61.8</ele><time>2011-04-30T09:41:40Z</time></trkpt>
<trkpt lat="42.279717" lon="3.273008"><ele>62.9</ele><time>2011-04-30T09:41:45Z</time></trkpt>
<trkpt lat="42.279655" lon="3.272922"><ele>63.7</ele><time>2011-04-30T09:41:50Z</time></trkpt>
<trkpt lat="42.279575" lon="3.272877"><ele>64.2</ele><time>2011-04-30T09:41:55Z</time></trkpt>
<trkpt lat="42.279488" lon="3.272845"><ele>64.7</ele><time>2011-04-30T09:42:00Z</time></trkpt>
<trkpt lat="42.279412" lon="3.272772"><ele>65.4</ele><time>2011-04-30T09:42:05Z</time></trkpt>
<trkpt lat="42.279373" lon="3.272663"><ele>66.3</ele><time>2011-04-30T09:42:10Z</time></trkpt>
<trkpt lat="42.279373" lon="3.272535"><ele>67.1</ele><time>2011-04-30T09:42:15Z</time></trkpt>
<trkpt lat="42.279350" lon="3.272428"><ele>68.1</ele><time>2011-04-30T09:42:20Z</time></trkpt>
<trkpt lat="42.279327" lon="3.272335"><ele>69</ele><time>2011-04-30T09:42:25Z</time></trkpt>
<trkpt lat="42.279297" lon="3.272247"><ele>69.9</ele><time>2011-04-30T09:42:30Z</time></trkpt>
<trkpt lat="42.279270" lon="3.272168"><ele>70.8</ele><time>2011-04-30T09:42:35Z</time></trkpt>
<trkpt lat="42.279228" lon="3.272085"><ele>71.7</ele><time>2011-04-30T09:42:40Z</time></trkpt>
<trkpt lat="42.279178" lon="3.271998"><ele>72.6</ele><time>2011-04-30T09:42:45Z</time></trkpt>
<trkpt lat="42.279137" lon="3.271907"><ele>73.6</ele><time>2011-04-30T09:42:50Z</time></trkpt>
<trkpt lat="42.279095" lon="3.271823"><ele>74.5</ele><time>2011-04-30T09:42:55Z</time></trkpt>
<trkpt lat="42.279057" lon="3.271728"><ele>75</ele><time>2011-04-30T09:43:00Z</time></trkpt>
<trkpt lat="42.279030" lon="3.271638"><ele>76.1</ele><time>2011-04-30T09:43:05Z</time></trkpt>
<trkpt lat="42.278968" lon="3.271567"><ele>76.7</ele><time>2011-04-30T09:43:10Z</time></trkpt>
<trkpt lat="42.278893" lon="3.271495"><ele>77.3</ele><time>2011-04-30T09:43:15Z</time></trkpt>
<trkpt lat="42.278838" lon="3.271420"><ele>78.2</ele><time>2011-04-30T09:43:20Z</time></trkpt>
<trkpt lat="42.278843" lon="3.271293"><ele>78.8</ele><time>2011-04-30T09:43:25Z</time></trkpt>
<trkpt lat="42.278893" lon="3.271183"><ele>79.3</ele><time>2011-04-30T09:43:30Z</time></trkpt>
<trkpt lat="42.278935" lon="3.271087"><ele>80.2</ele><time>2011-04-30T09:43:35Z</time></trkpt>
<trkpt lat="42.278965" lon="3.270992"><ele>81.1</ele><time>2011-04-30T09:43:40Z</time></trkpt>
<trkpt lat="42.278980" lon="3.270877"><ele>81.9</ele><time>2011-04-30T09:43:45Z</time></trkpt>
<trkpt lat="42.278988" lon="3.270760"><ele>82.8</ele><time>2011-04-30T09:43:50Z</time></trkpt>
<trkpt lat="42.278992" lon="3.270653"><ele>83.7</ele><time>2011-04-30T09:43:55Z</time></trkpt>
<trkpt lat="42.279000" lon="3.270545"><ele>84.7</ele><time>2011-04-30T09:44:00Z</time></trkpt>
<trkpt lat="42.278977" lon="3.270432"><ele>86</ele><time>2011-04-30T09:44:05Z</time></trkpt>
<trkpt lat="42.278912" lon="3.270350"><ele>87.6</ele><time>2011-04-30T09:44:10Z</time></trkpt>
<trkpt lat="42.278812" lon="3.270408"><ele>88.5</ele><time>2011-04-30T09:44:15Z</time></trkpt>
<trkpt lat="42.278710" lon="3.270472"><ele>88.8</ele><time>2011-04-30T09:44:20Z</time></trkpt>
<trkpt lat="42.278603" lon="3.270467"><ele>89.1</ele><time>2011-04-30T09:44:25Z</time></trkpt>
<trkpt lat="42.278545" lon="3.270377"><ele>89.6</ele><time>2011-04-30T09:44:30Z</time></trkpt>
<trkpt lat="42.278527" lon="3.270265"><ele>90.5</ele><time>2011-04-30T09:44:35Z</time></trkpt>
<trkpt lat="42.278450" lon="3.270173"><ele>91.9</ele><time>2011-04-30T09:44:40Z</time></trkpt>
<trkpt lat="42.278350" lon="3.270223"><ele>92.7</ele><time>2011-04-30T09:44:45Z</time></trkpt>
<trkpt lat="42.278275" lon="3.270305"><ele>93.5</ele><time>2011-04-30T09:44:50Z</time></trkpt>
<trkpt lat="42.278207" lon="3.270387"><ele>94.3</ele><time>2011-04-30T09:44:55Z</time></trkpt>
<trkpt lat="42.278142" lon="3.270457"><ele>95.2</ele><time>2011-04-30T09:45:00Z</time></trkpt>
<trkpt lat="42.278062" lon="3.270530"><ele>96.1</ele><time>2011-04-30T09:45:05Z</time></trkpt>
<trkpt lat="42.278018" lon="3.270647"><ele>96.8</ele><time>2011-04-30T09:45:10Z</time></trkpt>
<trkpt lat="42.278027" lon="3.270760"><ele>97.8</ele><time>2011-04-30T09:45:15Z</time></trkpt>
<trkpt lat="42.278003" lon="3.270868"><ele>98.8</ele><time>2011-04-30T09:45:20Z</time></trkpt>
<trkpt lat="42.277947" lon="3.270905"><ele>99.7</ele><time>2011-04-30T09:45:25Z</time></trkpt>
<trkpt lat="42.277882" lon="3.270877"><ele>100.7</ele><time>2011-04-30T09:45:30Z</time></trkpt>
<trkpt lat="42.277855" lon="3.270737"><ele>101.3</ele><time>2011-04-30T09:45:35Z</time></trkpt>
<trkpt lat="42.277870" lon="3.270610"><ele>102.3</ele><time>2011-04-30T09:45:40Z</time></trkpt>
<trkpt lat="42.277885" lon="3.270498"><ele>103.5</ele><time>2011-04-30T09:45:45Z</time></trkpt>
<trkpt lat="42.277890" lon="3.270357"><ele>104.1</ele><time>2011-04-30T09:45:50Z</time></trkpt>
<trkpt lat="42.277870" lon="3.270225"><ele>105.1</ele><time>2011-04-30T09:45:55Z</time></trkpt>
<trkpt lat="42.277820" lon="3.270122"><ele>106.2</ele><time>2011-04-30T09:46:00Z</time></trkpt>
<trkpt lat="42.277745" lon="3.270078"><ele>106.6</ele><time>2011-04-30T09:46:05Z</time></trkpt>
<trkpt lat="42.277665" lon="3.270002"><ele>107.4</ele><time>2011-04-30T09:46:10Z</time></trkpt>
<trkpt lat="42.277600" lon="3.269905"><ele>108</ele><time>2011-04-30T09:46:15Z</time></trkpt>
<trkpt lat="42.277535" lon="3.269795"><ele>108.3</ele><time>2011-04-30T09:46:20Z</time></trkpt>
<trkpt lat="42.277470" lon="3.269673"><ele>108.6</ele><time>2011-04-30T09:46:25Z</time></trkpt>
<trkpt lat="42.277428" lon="3.269542"><ele>109.4</ele><time>2011-04-30T09:46:30Z</time></trkpt>
<trkpt lat="42.277370" lon="3.269447"><ele>109.9</ele><time>2011-04-30T09:46:35Z</time></trkpt>
<trkpt lat="42.277272" lon="3.269415"><ele>110.2</ele><time>2011-04-30T09:46:40Z</time></trkpt>
<trkpt lat="42.277145" lon="3.269422"><ele>110.6</ele><time>2011-04-30T09:46:45Z</time></trkpt>
<trkpt lat="42.277050" lon="3.269363"><ele>111.1</ele><time>2011-04-30T09:46:50Z</time></trkpt>
<trkpt lat="42.276982" lon="3.269255"><ele>111.9</ele><time>2011-04-30T09:46:55Z</time></trkpt>
<trkpt lat="42.276920" lon="3.269155"><ele>112.9</ele><time>2011-04-30T09:47:00Z</time></trkpt>
<trkpt lat="42.276860" lon="3.269085"><ele>114</ele><time>2011-04-30T09:47:05Z</time></trkpt>
<trkpt lat="42.276833" lon="3.268988"><ele>114.9</ele><time>2011-04-30T09:47:10Z</time></trkpt>
<trkpt lat="42.276840" lon="3.268893"><ele>116.1</ele><time>2011-04-30T09:47:15Z</time></trkpt>
<trkpt lat="42.276837" lon="3.268785"><ele>117.3</ele><time>2011-04-30T09:47:20Z</time></trkpt>
<trkpt lat="42.276867" lon="3.268683"><ele>118.2</ele><time>2011-04-30T09:47:25Z</time></trkpt>
<trkpt lat="42.276917" lon="3.268593"><ele>119.3</ele><time>2011-04-30T09:47:30Z</time></trkpt>
<trkpt lat="42.276970" lon="3.268502"><ele>120.3</ele><time>2011-04-30T09:47:35Z</time></trkpt>
<trkpt lat="42.277015" lon="3.268402"><ele>121</ele><time>2011-04-30T09:47:40Z</time></trkpt>
<trkpt lat="42.277062" lon="3.268298"><ele>121.9</ele><time>2011-04-30T09:47:45Z</time></trkpt>
<trkpt lat="42.277103" lon="3.268185"><ele>122.6</ele><time>2011-04-30T09:47:50Z</time></trkpt>
<trkpt lat="42.277138" lon="3.268070"><ele>123.4</ele><time>2011-04-30T09:47:55Z</time></trkpt>
<trkpt lat="42.277160" lon="3.267953"><ele>124.1</ele><time>2011-04-30T09:48:00Z</time></trkpt>
<trkpt lat="42.277177" lon="3.267823"><ele>124.6</ele><time>2011-04-30T09:48:05Z</time></trkpt>
<trkpt lat="42.277187" lon="3.267717"><ele>125.2</ele><time>2011-04-30T09:48:10Z</time></trkpt>
<trkpt lat="42.277207" lon="3.267590"><ele>125.9</ele><time>2011-04-30T09:48:15Z</time></trkpt>
<trkpt lat="42.277222" lon="3.267465"><ele>126.8</ele><time>2011-04-30T09:48:20Z</time></trkpt>
<trkpt lat="42.277248" lon="3.267367"><ele>127</ele><time>2011-04-30T09:48:25Z</time></trkpt>
<trkpt lat="42.277278" lon="3.267243"><ele>128</ele><time>2011-04-30T09:48:30Z</time></trkpt>
<trkpt lat="42.277287" lon="3.267123"><ele>129.1</ele><time>2011-04-30T09:48:35Z</time></trkpt>
<trkpt lat="42.277278" lon="3.267005"><ele>130.2</ele><time>2011-04-30T09:48:40Z</time></trkpt>
<trkpt lat="42.277245" lon="3.266908"><ele>131</ele><time>2011-04-30T09:48:45Z</time></trkpt>
<trkpt lat="42.277177" lon="3.266845"><ele>131.6</ele><time>2011-04-30T09:48:50Z</time></trkpt>
<trkpt lat="42.277088" lon="3.266818"><ele>132.5</ele><time>2011-04-30T09:48:55Z</time></trkpt>
<trkpt lat="42.276988" lon="3.266852"><ele>133.8</ele><time>2011-04-30T09:49:00Z</time></trkpt>
<trkpt lat="42.276932" lon="3.266973"><ele>134.4</ele><time>2011-04-30T09:49:05Z</time></trkpt>
<trkpt lat="42.276893" lon="3.267090"><ele>134.8</ele><time>2011-04-30T09:49:10Z</time></trkpt>
<trkpt lat="42.276848" lon="3.267202"><ele>135.1</ele><time>2011-04-30T09:49:15Z</time></trkpt>
<trkpt lat="42.276763" lon="3.267297"><ele>135.7</ele><time>2011-04-30T09:49:20Z</time></trkpt>
<trkpt lat="42.276677" lon="3.267407"><ele>136.2</ele><time>2011-04-30T09:49:25Z</time></trkpt>
<trkpt lat="42.276592" lon="3.267513"><ele>136.6</ele><time>2011-04-30T09:49:30Z</time></trkpt>
<trkpt lat="42.276520" lon="3.267593"><ele>137.2</ele><time>2011-04-30T09:49:35Z</time></trkpt>
<trkpt lat="42.276420" lon="3.267610"><ele>138.5</ele><time>2011-04-30T09:49:40Z</time></trkpt>
<trkpt lat="42.276387" lon="3.267472"><ele>139.5</ele><time>2011-04-30T09:49:45Z</time></trkpt>
<trkpt lat="42.276425" lon="3.267337"><ele>140.4</ele><time>2011-04-30T09:49:50Z</time></trkpt>
<trkpt lat="42.276432" lon="3.267195"><ele>141.5</ele><time>2011-04-30T09:49:55Z</time></trkpt>
<trkpt lat="42.276413" lon="3.267068"><ele>142.5</ele><time>2011-04-30T09:50:00Z</time></trkpt>
<trkpt lat="42.276398" lon="3.266938"><ele>143.3</ele><time>2011-04-30T09:50:05Z</time></trkpt>
<trkpt lat="42.276390" lon="3.266813"><ele>144.2</ele><time>2011-04-30T09:50:10Z</time></trkpt>
<trkpt lat="42.276372" lon="3.266692"><ele>145.2</ele><time>2011-04-30T09:50:15Z</time></trkpt>
<trkpt lat="42.276325" lon="3.266585"><ele>146.2</ele><time>2011-04-30T09:50:20Z</time></trkpt>
<trkpt lat="42.276257" lon="3.266490"><ele>146.9</ele><time>2011-04-30T09:50:25Z</time></trkpt>
<trkpt lat="42.276188" lon="3.266400"><ele>147.7</ele><time>2011-04-30T09:50:30Z</time></trkpt>
<trkpt lat="42.276100" lon="3.266358"><ele>148.8</ele><time>2011-04-30T09:50:35Z</time></trkpt>
<trkpt lat="42.276012" lon="3.266402"><ele>150</ele><time>2011-04-30T09:50:40Z</time></trkpt>
<trkpt lat="42.275997" lon="3.266535"><ele>150.9</ele><time>2011-04-30T09:50:45Z</time></trkpt>
<trkpt lat="42.276020" lon="3.266672"><ele>151.7</ele><time>2011-04-30T09:50:50Z</time></trkpt>
<trkpt lat="42.276032" lon="3.266808"><ele>152.7</ele><time>2011-04-30T09:50:55Z</time></trkpt>
<trkpt lat="42.276005" lon="3.266932"><ele>153.9</ele><time>2011-04-30T09:51:00Z</time></trkpt>
<trkpt lat="42.275932" lon="3.267020"><ele>155</ele><time>2011-04-30T09:51:05Z</time></trkpt>
<trkpt lat="42.275857" lon="3.267083"><ele>156.1</ele><time>2011-04-30T09:51:10Z</time></trkpt>
<trkpt lat="42.275757" lon="3.267098"><ele>157.1</ele><time>2011-04-30T09:51:15Z</time></trkpt>
<trkpt lat="42.275665" lon="3.267097"><ele>157.9</ele><time>2011-04-30T09:51:20Z</time></trkpt>
<trkpt lat="42.275582" lon="3.267183"><ele>158.7</ele><time>2011-04-30T09:51:25Z</time></trkpt>
<trkpt lat="42.275502" lon="3.267250"><ele>159.6</ele><time>2011-04-30T09:51:30Z</time></trkpt>
<trkpt lat="42.275417" lon="3.267338"><ele>160.2</ele><time>2011-04-30T09:51:35Z</time></trkpt>
<trkpt lat="42.275345" lon="3.267432"><ele>160.8</ele><time>2011-04-30T09:51:40Z</time></trkpt>
<trkpt lat="42.275280" lon="3.267527"><ele>161.3</ele><time>2011-04-30T09:51:45Z</time></trkpt>
<trkpt lat="42.275212" lon="3.267608"><ele>162</ele><time>2011-04-30T09:51:50Z</time></trkpt>
<trkpt lat="42.275138" lon="3.267660"><ele>162.8</ele><time>2011-04-30T09:51:55Z</time></trkpt>
<trkpt lat="42.275058" lon="3.267640"><ele>163.8</ele><time>2011-04-30T09:52:00Z</time></trkpt>
<trkpt lat="42.275002" lon="3.267565"><ele>164.8</ele><time>2011-04-30T09:52:05Z</time></trkpt>
<trkpt lat="42.274967" lon="3.267465"><ele>165.7</ele><time>2011-04-30T09:52:10Z</time></trkpt>
<trkpt lat="42.274967" lon="3.267352"><ele>166.6</ele><time>2011-04-30T09:52:15Z</time></trkpt>
<trkpt lat="42.275013" lon="3.267237"><ele>167.1</ele><time>2011-04-30T09:52:20Z</time></trkpt>
<trkpt lat="42.275058" lon="3.267107"><ele>167.9</ele><time>2011-04-30T09:52:25Z</time></trkpt>
<trkpt lat="42.275085" lon="3.266990"><ele>168.9</ele><time>2011-04-30T09:52:30Z</time></trkpt>
<trkpt lat="42.275112" lon="3.266888"><ele>169.8</ele><time>2011-04-30T09:52:35Z</time></trkpt>
<trkpt lat="42.275135" lon="3.266787"><ele>170.8</ele><time>2011-04-30T09:52:40Z</time></trkpt>
<trkpt lat="42.275153" lon="3.266667"><ele>171.9</ele><time>2011-04-30T09:52:45Z</time></trkpt>
<trkpt lat="42.275097" lon="3.266550"><ele>172.6</ele><time>2011-04-30T09:52:50Z</time></trkpt>
<trkpt lat="42.275025" lon="3.266468"><ele>173.9</ele><time>2011-04-30T09:52:55Z</time></trkpt>
<trkpt lat="42.274937" lon="3.266437"><ele>174.8</ele><time>2011-04-30T09:53:00Z</time></trkpt>
<trkpt lat="42.274865" lon="3.266387"><ele>175.9</ele><time>2011-04-30T09:53:05Z</time></trkpt>
<trkpt lat="42.274795" lon="3.266342"><ele>176.8</ele><time>2011-04-30T09:53:10Z</time></trkpt>
<trkpt lat="42.274727" lon="3.266302"><ele>177.9</ele><time>2011-04-30T09:53:15Z</time></trkpt>
<trkpt lat="42.274643" lon="3.266260"><ele>178.3</ele><time>2011-04-30T09:53:20Z</time></trkpt>
<trkpt lat="42.274548" lon="3.266217"><ele>178.9</ele><time>2011-04-30T09:53:25Z</time></trkpt>
<trkpt lat="42.274457" lon="3.266177"><ele>179.7</ele><time>2011-04-30T09:53:30Z</time></trkpt>
<trkpt lat="42.274372" lon="3.266135"><ele>180.3</ele><time>2011-04-30T09:53:35Z</time></trkpt>
<trkpt lat="42.274303" lon="3.266073"><ele>181</ele><time>2011-04-30T09:53:40Z</time></trkpt>
<trkpt lat="42.274242" lon="3.265985"><ele>182</ele><time>2011-04-30T09:53:45Z</time></trkpt>
<trkpt lat="42.274182" lon="3.265867"><ele>182.3</ele><time>2011-04-30T09:53:50Z</time></trkpt>
<trkpt lat="42.274078" lon="3.265840"><ele>183</ele><time>2011-04-30T09:53:55Z</time></trkpt>
<trkpt lat="42.273995" lon="3.265932"><ele>183.4</ele><time>2011-04-30T09:54:00Z</time></trkpt>
<trkpt lat="42.273907" lon="3.266045"><ele>183.3</ele><time>2011-04-30T09:54:05Z</time></trkpt>
<trkpt lat="42.273803" lon="3.266112"><ele>183.3</ele><time>2011-04-30T09:54:10Z</time></trkpt>
<trkpt lat="42.273690" lon="3.266128"><ele>184.1</ele><time>2011-04-30T09:54:15Z</time></trkpt>
<trkpt lat="42.273563" lon="3.266112"><ele>184.8</ele><time>2011-04-30T09:54:20Z</time></trkpt>
<trkpt lat="42.273465" lon="3.266027"><ele>185</ele><time>2011-04-30T09:54:25Z</time></trkpt>
<trkpt lat="42.273395" lon="3.265922"><ele>185.2</ele><time>2011-04-30T09:54:30Z</time></trkpt>
<trkpt lat="42.273368" lon="3.265788"><ele>186.2</ele><time>2011-04-30T09:54:35Z</time></trkpt>
<trkpt lat="42.273392" lon="3.265652"><ele>187.4</ele><time>2011-04-30T09:54:40Z</time></trkpt>
<trkpt lat="42.273422" lon="3.265540"><ele>188.5</ele><time>2011-04-30T09:54:45Z</time></trkpt>
<trkpt lat="42.273445" lon="3.265433"><ele>189.3</ele><time>2011-04-30T09:54:50Z</time></trkpt>
<trkpt lat="42.273472" lon="3.265325"><ele>190.2</ele><time>2011-04-30T09:54:55Z</time></trkpt>
<trkpt lat="42.273507" lon="3.265222"><ele>191.3</ele><time>2011-04-30T09:55:00Z</time></trkpt>
<trkpt lat="42.273525" lon="3.265117"><ele>192.3</ele><time>2011-04-30T09:55:05Z</time></trkpt>
<trkpt lat="42.273480" lon="3.265020"><ele>192.6</ele><time>2011-04-30T09:55:10Z</time></trkpt>
<trkpt lat="42.273383" lon="3.264995"><ele>193</ele><time>2011-04-30T09:55:15Z</time></trkpt>
<trkpt lat="42.273297" lon="3.265037"><ele>193.8</ele><time>2011-04-30T09:55:20Z</time></trkpt>
<trkpt lat="42.273220" lon="3.265092"><ele>194.9</ele><time>2011-04-30T09:55:25Z</time></trkpt>
<trkpt lat="42.273143" lon="3.265127"><ele>196.3</ele><time>2011-04-30T09:55:30Z</time></trkpt>
<trkpt lat="42.273067" lon="3.265118"><ele>197.5</ele><time>2011-04-30T09:55:35Z</time></trkpt>
<trkpt lat="42.273013" lon="3.265055"><ele>198.5</ele><time>2011-04-30T09:55:40Z</time></trkpt>
<trkpt lat="42.272965" lon="3.264953"><ele>198.9</ele><time>2011-04-30T09:55:45Z</time></trkpt>
<trkpt lat="42.272907" lon="3.264870"><ele>199.5</ele><time>2011-04-30T09:55:50Z</time></trkpt>
<trkpt lat="42.272838" lon="3.264802"><ele>200.2</ele><time>2011-04-30T09:55:55Z</time></trkpt>
<trkpt lat="42.272773" lon="3.264743"><ele>200.9</ele><time>2011-04-30T09:56:00Z</time></trkpt>
<trkpt lat="42.272713" lon="3.264672"><ele>201.7</ele><time>2011-04-30T09:56:05Z</time></trkpt>
<trkpt lat="42.272643" lon="3.264603"><ele>202.4</ele><time>2011-04-30T09:56:10Z</time></trkpt>
<trkpt lat="42.272590" lon="3.264527"><ele>203.3</ele><time>2011-04-30T09:56:15Z</time></trkpt>
<trkpt lat="42.272545" lon="3.264447"><ele>204.5</ele><time>2011-04-30T09:56:20Z</time></trkpt>
<trkpt lat="42.272498" lon="3.264367"><ele>205.8</ele><time>2011-04-30T09:56:25Z</time></trkpt>
<trkpt lat="42.272453" lon="3.264277"><ele>206.3</ele><time>2011-04-30T09:56:30Z</time></trkpt>
<trkpt lat="42.272415" lon="3.264195"><ele>207.3</ele><time>2011-04-30T09:56:35Z</time></trkpt>
<trkpt lat="42.272388" lon="3.264112"><ele>208.2</ele><time>2011-04-30T09:56:40Z</time></trkpt>
<trkpt lat="42.272362" lon="3.264035"><ele>209.2</ele><time>2011-04-30T09:56:45Z</time></trkpt>
<trkpt lat="42.272335" lon="3.263952"><ele>210</ele><time>2011-04-30T09:56:50Z</time></trkpt>
<trkpt lat="42.272320" lon="3.263860"><ele>210.7</ele><time>2011-04-30T09:56:55Z</time></trkpt>
<trkpt lat="42.272312" lon="3.263763"><ele>211.4</ele><time>2011-04-30T09:57:00Z</time></trkpt>
<trkpt lat="42.272305" lon="3.263663"><ele>212</ele><time>2011-04-30T09:57:05Z</time></trkpt>
<trkpt lat="42.272312" lon="3.263565"><ele>212.8</ele><time>2011-04-30T09:57:10Z</time></trkpt>
<trkpt lat="42.272323" lon="3.263473"><ele>213.9</ele><time>2011-04-30T09:57:15Z</time></trkpt>
<trkpt lat="42.272347" lon="3.263378"><ele>214.9</ele><time>2011-04-30T09:57:20Z</time></trkpt>
<trkpt lat="42.272373" lon="3.263293"><ele>215.8</ele><time>2011-04-30T09:57:25Z</time></trkpt>
<trkpt lat="42.272412" lon="3.263212"><ele>217</ele><time>2011-04-30T09:57:30Z</time></trkpt>
<trkpt lat="42.272435" lon="3.263113"><ele>217.8</ele><time>2011-04-30T09:57:35Z</time></trkpt>
<trkpt lat="42.272450" lon="3.263013"><ele>219</ele><time>2011-04-30T09:57:40Z</time></trkpt>
<trkpt lat="42.272488" lon="3.262930"><ele>220</ele><time>2011-04-30T09:57:45Z</time></trkpt>
<trkpt lat="42.272515" lon="3.262842"><ele>221.1</ele><time>2011-04-30T09:57:50Z</time></trkpt>
<trkpt lat="42.272545" lon="3.262758"><ele>222.1</ele><time>2011-04-30T09:57:55Z</time></trkpt>
<trkpt lat="42.272575" lon="3.262675"><ele>223.2</ele><time>2011-04-30T09:58:00Z</time></trkpt>
<trkpt lat="42.272607" lon="3.262592"><ele>224.2</ele><time>2011-04-30T09:58:05Z</time></trkpt>
<trkpt lat="42.272640" lon="3.262510"><ele>225</ele><time>2011-04-30T09:58:10Z</time></trkpt>
<trkpt lat="42.272678" lon="3.262428"><ele>225.9</ele><time>2011-04-30T09:58:15Z</time></trkpt>
<trkpt lat="42.272705" lon="3.262340"><ele>226.9</ele><time>2011-04-30T09:58:20Z</time></trkpt>
<trkpt lat="42.272717" lon="3.262233"><ele>227.5</ele><time>2011-04-30T09:58:25Z</time></trkpt>
<trkpt lat="42.272723" lon="3.262137"><ele>228.5</ele><time>2011-04-30T09:58:30Z</time></trkpt>
<trkpt lat="42.272740" lon="3.262047"><ele>229.5</ele><time>2011-04-30T09:58:35Z</time></trkpt>
<trkpt lat="42.272793" lon="3.261997"><ele>230.4</ele><time>2011-04-30T09:58:40Z</time></trkpt>
<trkpt lat="42.272832" lon="3.262075"><ele>231.9</ele><time>2011-04-30T09:58:45Z</time></trkpt>
<trkpt lat="42.272835" lon="3.262192"><ele>232.7</ele><time>2011-04-30T09:58:50Z</time></trkpt>
<trkpt lat="42.272838" lon="3.262307"><ele>233.4</ele><time>2011-04-30T09:58:55Z</time></trkpt>
<trkpt lat="42.272838" lon="3.262420"><ele>234.8</ele><time>2011-04-30T09:59:00Z</time></trkpt>
<trkpt lat="42.272838" lon="3.262527"><ele>235.7</ele><time>2011-04-30T09:59:05Z</time></trkpt>
<trkpt lat="42.272827" lon="3.262640"><ele>236.3</ele><time>2011-04-30T09:59:10Z</time></trkpt>
<trkpt lat="42.272812" lon="3.262755"><ele>236.7</ele><time>2011-04-30T09:59:15Z</time></trkpt>
<trkpt lat="42.272808" lon="3.262873"><ele>236.9</ele><time>2011-04-30T09:59:20Z</time></trkpt>
<trkpt lat="42.272820" lon="3.262995"><ele>237.5</ele><time>2011-04-30T09:59:25Z</time></trkpt>
<trkpt lat="42.272858" lon="3.263110"><ele>238.1</ele><time>2011-04-30T09:59:30Z</time></trkpt>
<trkpt lat="42.272918" lon="3.263202"><ele>238.6</ele><time>2011-04-30T09:59:35Z</time></trkpt>
<trkpt lat="42.273007" lon="3.263212"><ele>239.1</ele><time>2011-04-30T09:59:40Z</time></trkpt>
<trkpt lat="42.273090" lon="3.263158"><ele>240</ele><time>2011-04-30T09:59:45Z</time></trkpt>
<trkpt lat="42.273152" lon="3.263078"><ele>240.9</ele><time>2011-04-30T09:59:50Z</time></trkpt>
<trkpt lat="42.273205" lon="3.262992"><ele>241.7</ele><time>2011-04-30T09:59:55Z</time></trkpt>
<trkpt lat="42.273250" lon="3.262893"><ele>242.6</ele><time>2011-04-30T10:00:00Z</time></trkpt>
<trkpt lat="42.273288" lon="3.262788"><ele>243.3</ele><time>2011-04-30T10:00:05Z</time></trkpt>
<trkpt lat="42.273297" lon="3.262667"><ele>243.4</ele><time>2011-04-30T10:00:10Z</time></trkpt>
<trkpt lat="42.273258" lon="3.262557"><ele>243.8</ele><time>2011-04-30T10:00:15Z</time></trkpt>
<trkpt lat="42.273247" lon="3.262438"><ele>244.2</ele><time>2011-04-30T10:00:20Z</time></trkpt>
<trkpt lat="42.273255" lon="3.262322"><ele>244.7</ele><time>2011-04-30T10:00:25Z</time></trkpt>
<trkpt lat="42.273258" lon="3.262207"><ele>245.4</ele><time>2011-04-30T10:00:30Z</time></trkpt>
<trkpt lat="42.273267" lon="3.262097"><ele>246.4</ele><time>2011-04-30T10:00:35Z</time></trkpt>
<trkpt lat="42.273273" lon="3.261990"><ele>247.6</ele><time>2011-04-30T10:00:40Z</time></trkpt>
<trkpt lat="42.273297" lon="3.261885"><ele>248.8</ele><time>2011-04-30T10:00:45Z</time></trkpt>
<trkpt lat="42.273335" lon="3.261773"><ele>249.3</ele><time>2011-04-30T10:00:50Z</time></trkpt>
<trkpt lat="42.273362" lon="3.261667"><ele>250.1</ele><time>2011-04-30T10:00:55Z</time></trkpt>
<trkpt lat="42.273380" lon="3.261553"><ele>251.1</ele><time>2011-04-30T10:01:00Z</time></trkpt>
<trkpt lat="42.273395" lon="3.261448"><ele>252.3</ele><time>2011-04-30T10:01:05Z</time></trkpt>
<trkpt lat="42.273427" lon="3.261357"><ele>253.5</ele><time>2011-04-30T10:01:10Z</time></trkpt>
<trkpt lat="42.273492" lon="3.261387"><ele>255.2</ele><time>2011-04-30T10:01:15Z</time></trkpt>
<trkpt lat="42.273472" lon="3.261507"><ele>256.3</ele><time>2011-04-30T10:01:20Z</time></trkpt>
<trkpt lat="42.273525" lon="3.261572"><ele>257.4</ele><time>2011-04-30T10:01:25Z</time></trkpt>
<trkpt lat="42.273593" lon="3.261522"><ele>258.7</ele><time>2011-04-30T10:01:30Z</time></trkpt>
<trkpt lat="42.273620" lon="3.261423"><ele>259.7</ele><time>2011-04-30T10:01:35Z</time></trkpt>
<trkpt lat="42.273667" lon="3.261330"><ele>260.4</ele><time>2011-04-30T10:01:40Z</time></trkpt>
<trkpt lat="42.273712" lon="3.261238"><ele>262.1</ele><time>2011-04-30T10:01:45Z</time></trkpt>
<trkpt lat="42.273735" lon="3.261150"><ele>263.2</ele><time>2011-04-30T10:01:50Z</time></trkpt>
<trkpt lat="42.273773" lon="3.261082"><ele>264.3</ele><time>2011-04-30T10:01:55Z</time></trkpt>
<trkpt lat="42.273818" lon="3.261020"><ele>265.5</ele><time>2011-04-30T10:02:00Z</time></trkpt>
<trkpt lat="42.273865" lon="3.260950"><ele>266.2</ele><time>2011-04-30T10:02:05Z</time></trkpt>
<trkpt lat="42.273925" lon="3.260878"><ele>266.8</ele><time>2011-04-30T10:02:10Z</time></trkpt>
<trkpt lat="42.273980" lon="3.260812"><ele>267.6</ele><time>2011-04-30T10:02:15Z</time></trkpt>
<trkpt lat="42.274022" lon="3.260738"><ele>268.7</ele><time>2011-04-30T10:02:20Z</time></trkpt>
<trkpt lat="42.274082" lon="3.260673"><ele>269.4</ele><time>2011-04-30T10:02:25Z</time></trkpt>
<trkpt lat="42.274140" lon="3.260620"><ele>270.7</ele><time>2011-04-30T10:02:30Z</time></trkpt>
<trkpt lat="42.274158" lon="3.260535"><ele>271.6</ele><time>2011-04-30T10:02:35Z</time></trkpt>
<trkpt lat="42.274113" lon="3.260483"><ele>272.5</ele><time>2011-04-30T10:02:40Z</time></trkpt>
<trkpt lat="42.274043" lon="3.260545"><ele>273.1</ele><time>2011-04-30T10:02:45Z</time></trkpt>
<trkpt lat="42.273963" lon="3.260588"><ele>273.5</ele><time>2011-04-30T10:02:50Z</time></trkpt>
<trkpt lat="42.273888" lon="3.260600"><ele>274.3</ele><time>2011-04-30T10:02:55Z</time></trkpt>
<trkpt lat="42.273818" lon="3.260600"><ele>275.1</ele><time>2011-04-30T10:03:00Z</time></trkpt>
<trkpt lat="42.273762" lon="3.260552"><ele>276.3</ele><time>2011-04-30T10:03:05Z</time></trkpt>
<trkpt lat="42.273792" lon="3.260477"><ele>277.2</ele><time>2011-04-30T10:03:10Z</time></trkpt>
<trkpt lat="42.273865" lon="3.260463"><ele>278.3</ele><time>2011-04-30T10:03:15Z</time></trkpt>
<trkpt lat="42.273930" lon="3.260428"><ele>279.2</ele><time>2011-04-30T10:03:20Z</time></trkpt>
<trkpt lat="42.273990" lon="3.260372"><ele>280.2</ele><time>2011-04-30T10:03:25Z</time></trkpt>
<trkpt lat="42.274048" lon="3.260320"><ele>281.3</ele><time>2011-04-30T10:03:30Z</time></trkpt>
<trkpt lat="42.274105" lon="3.260257"><ele>282.3</ele><time>2011-04-30T10:03:35Z</time></trkpt>
<trkpt lat="42.274093" lon="3.260168"><ele>283.1</ele><time>2011-04-30T10:03:40Z</time></trkpt>
<trkpt lat="42.274022" lon="3.260173"><ele>283.9</ele><time>2011-04-30T10:03:45Z</time></trkpt>
<trkpt lat="42.273952" lon="3.260207"><ele>284.6</ele><time>2011-04-30T10:03:50Z</time></trkpt>
<trkpt lat="42.273880" lon="3.260235"><ele>285.2</ele><time>2011-04-30T10:03:55Z</time></trkpt>
<trkpt lat="42.273800" lon="3.260250"><ele>286.2</ele><time>2011-04-30T10:04:00Z</time></trkpt>
<trkpt lat="42.273738" lon="3.260218"><ele>287</ele><time>2011-04-30T10:04:05Z</time></trkpt>
<trkpt lat="42.273727" lon="3.260133"><ele>287.9</ele><time>2011-04-30T10:04:10Z</time></trkpt>
<trkpt lat="42.273800" lon="3.260108"><ele>288.9</ele><time>2011-04-30T10:04:15Z</time></trkpt>
<trkpt lat="42.273877" lon="3.260077"><ele>289.7</ele><time>2011-04-30T10:04:20Z</time></trkpt>
<trkpt lat="42.273948" lon="3.260028"><ele>290.5</ele><time>2011-04-30T10:04:25Z</time></trkpt>
<trkpt lat="42.274013" lon="3.259970"><ele>291.1</ele><time>2011-04-30T10:04:30Z</time></trkpt>
<trkpt lat="42.274078" lon="3.259915"><ele>292</ele><time>2011-04-30T10:04:35Z</time></trkpt>
<trkpt lat="42.274143" lon="3.259855"><ele>292.8</ele><time>2011-04-30T10:04:40Z</time></trkpt>
<trkpt lat="42.274197" lon="3.259785"><ele>293.9</ele><time>2011-04-30T10:04:45Z</time></trkpt>
<trkpt lat="42.274242" lon="3.259703"><ele>294.3</ele><time>2011-04-30T10:04:50Z</time></trkpt>
<trkpt lat="42.274303" lon="3.259615"><ele>295.1</ele><time>2011-04-30T10:04:55Z</time></trkpt>
<trkpt lat="42.274338" lon="3.259523"><ele>295.9</ele><time>2011-04-30T10:05:00Z</time></trkpt>
<trkpt lat="42.274392" lon="3.259438"><ele>296.5</ele><time>2011-04-30T10:05:05Z</time></trkpt>
<trkpt lat="42.274437" lon="3.259357"><ele>297.3</ele><time>2011-04-30T10:05:10Z</time></trkpt>
<trkpt lat="42.274490" lon="3.259287"><ele>298.3</ele><time>2011-04-30T10:05:15Z</time></trkpt>
<trkpt lat="42.274502" lon="3.259193"><ele>299.3</ele><time>2011-04-30T10:05:20Z</time></trkpt>
<trkpt lat="42.274437" lon="3.259173"><ele>300.1</ele><time>2011-04-30T10:05:25Z</time></trkpt>
<trkpt lat="42.274372" lon="3.259250"><ele>300.6</ele><time>2011-04-30T10:05:30Z</time></trkpt>
<trkpt lat="42.274312" lon="3.259310"><ele>301.4</ele><time>2011-04-30T10:05:35Z</time></trkpt>
<trkpt lat="42.274247" lon="3.259352"><ele>302.5</ele><time>2011-04-30T10:05:40Z</time></trkpt>
<trkpt lat="42.274170" lon="3.259400"><ele>302.9</ele><time>2011-04-30T10:05:45Z</time></trkpt>
<trkpt lat="42.274102" lon="3.259443"><ele>303.9</ele><time>2011-04-30T10:05:50Z</time></trkpt>
<trkpt lat="42.274028" lon="3.259460"><ele>304.7</ele><time>2011-04-30T10:05:55Z</time></trkpt>
<trkpt lat="42.274010" lon="3.259388"><ele>305.4</ele><time>2011-04-30T10:06:00Z</time></trkpt>
<trkpt lat="42.274063" lon="3.259322"><ele>306.6</ele><time>2011-04-30T10:06:05Z</time></trkpt>
<trkpt lat="42.274117" lon="3.259268"><ele>307.6</ele><time>2011-04-30T10:06:10Z</time></trkpt>
<trkpt lat="42.274170" lon="3.259192"><ele>308.3</ele><time>2011-04-30T10:06:15Z</time></trkpt>
<trkpt lat="42.274223" lon="3.259127"><ele>309.3</ele><time>2011-04-30T10:06:20Z</time></trkpt>
<trkpt lat="42.274268" lon="3.259063"><ele>310.3</ele><time>2011-04-30T10:06:25Z</time></trkpt>
<trkpt lat="42.274327" lon="3.259008"><ele>311.5</ele><time>2011-04-30T10:06:30Z</time></trkpt>
<trkpt lat="42.274350" lon="3.258927"><ele>312.2</ele><time>2011-04-30T10:06:35Z</time></trkpt>
<trkpt lat="42.274295" lon="3.258878"><ele>313</ele><time>2011-04-30T10:06:40Z</time></trkpt>
<trkpt lat="42.274242" lon="3.258937"><ele>313.8</ele><time>2011-04-30T10:06:45Z</time></trkpt>
<trkpt lat="42.274200" lon="3.258983"><ele>314.6</ele><time>2011-04-30T10:06:50Z</time></trkpt>
<trkpt lat="42.274170" lon="3.258908"><ele>315.3</ele><time>2011-04-30T10:06:55Z</time></trkpt>
<trkpt lat="42.274242" lon="3.258852"><ele>316</ele><time>2011-04-30T10:07:00Z</time></trkpt>
<trkpt lat="42.274315" lon="3.258800"><ele>316.6</ele><time>2011-04-30T10:07:05Z</time></trkpt>
<trkpt lat="42.274395" lon="3.258737"><ele>317</ele><time>2011-04-30T10:07:10Z</time></trkpt>
<trkpt lat="42.274452" lon="3.258677"><ele>318.1</ele><time>2011-04-30T10:07:15Z</time></trkpt>
<trkpt lat="42.274505" lon="3.258613"><ele>319</ele><time>2011-04-30T10:07:20Z</time></trkpt>
<trkpt lat="42.274555" lon="3.258538"><ele>319.8</ele><time>2011-04-30T10:07:25Z</time></trkpt>
<trkpt lat="42.274602" lon="3.258458"><ele>320.7</ele><time>2011-04-30T10:07:30Z</time></trkpt>
<trkpt lat="42.274647" lon="3.258380"><ele>321.9</ele><time>2011-04-30T10:07:35Z</time></trkpt>
<trkpt lat="42.274708" lon="3.258303"><ele>322.6</ele><time>2011-04-30T10:07:40Z</time></trkpt>
<trkpt lat="42.274762" lon="3.258233"><ele>323.9</ele><time>2011-04-30T10:07:45Z</time></trkpt>
<trkpt lat="42.274792" lon="3.258147"><ele>325.1</ele><time>2011-04-30T10:07:50Z</time></trkpt>
<trkpt lat="42.274742" lon="3.258098"><ele>326.1</ele><time>2011-04-30T10:07:55Z</time></trkpt>
<trkpt lat="42.274673" lon="3.258133"><ele>327</ele><time>2011-04-30T10:08:00Z</time></trkpt>
<trkpt lat="42.274602" lon="3.258157"><ele>327.8</ele><time>2011-04-30T10:08:05Z</time></trkpt>
<trkpt lat="42.274517" lon="3.258215"><ele>328.5</ele><time>2011-04-30T10:08:10Z</time></trkpt>
<trkpt lat="42.274437" lon="3.258238"><ele>329.3</ele><time>2011-04-30T10:08:15Z</time></trkpt>
<trkpt lat="42.274360" lon="3.258257"><ele>330</ele><time>2011-04-30T10:08:20Z</time></trkpt>
<trkpt lat="42.274280" lon="3.258265"><ele>330.6</ele><time>2011-04-30T10:08:25Z</time></trkpt>
<trkpt lat="42.274208" lon="3.258242"><ele>331.8</ele><time>2011-04-30T10:08:30Z</time></trkpt>
<trkpt lat="42.274178" lon="3.258153"><ele>332.6</ele><time>2011-04-30T10:08:35Z</time></trkpt>
<trkpt lat="42.274212" lon="3.258057"><ele>333.2</ele><time>2011-04-30T10:08:40Z</time></trkpt>
<trkpt lat="42.274273" lon="3.257990"><ele>334.5</ele><time>2011-04-30T10:08:45Z</time></trkpt>
<trkpt lat="42.274338" lon="3.257950"><ele>335.9</ele><time>2011-04-30T10:08:50Z</time></trkpt>
<trkpt lat="42.274403" lon="3.257903"><ele>337.6</ele><time>2011-04-30T10:08:55Z</time></trkpt>
<trkpt lat="42.274467" lon="3.257847"><ele>338.6</ele><time>2011-04-30T10:09:00Z</time></trkpt>
<trkpt lat="42.274528" lon="3.257773"><ele>339.1</ele><time>2011-04-30T10:09:05Z</time></trkpt>
<trkpt lat="42.274597" lon="3.257703"><ele>339.5</ele><time>2011-04-30T10:09:10Z</time></trkpt>
<trkpt lat="42.274662" lon="3.257623"><ele>340.1</ele><time>2011-04-30T10:09:15Z</time></trkpt>
<trkpt lat="42.274727" lon="3.257563"><ele>340.6</ele><time>2011-04-30T10:09:20Z</time></trkpt>
<trkpt lat="42.274788" lon="3.257495"><ele>341.2</ele><time>2011-04-30T10:09:25Z</time></trkpt>
<trkpt lat="42.274845" lon="3.257428"><ele>341.9</ele><time>2011-04-30T10:09:30Z</time></trkpt>
<trkpt lat="42.274895" lon="3.257355"><ele>342.7</ele><time>2011-04-30T10:09:35Z</time></trkpt>
<trkpt lat="42.274940" lon="3.257273"><ele>343.7</ele><time>2011-04-30T10:09:40Z</time></trkpt>
<trkpt lat="42.274990" lon="3.257207"><ele>344.9</ele><time>2011-04-30T10:09:45Z</time></trkpt>
<trkpt lat="42.275055" lon="3.257145"><ele>345.9</ele><time>2011-04-30T10:09:50Z</time></trkpt>
<trkpt lat="42.275123" lon="3.257088"><ele>346.9</ele><time>2011-04-30T10:09:55Z</time></trkpt>
<trkpt lat="42.275188" lon="3.257040"><ele>348</ele><time>2011-04-30T10:10:00Z</time></trkpt>
<trkpt lat="42.275253" lon="3.256993"><ele>349.2</ele><time>2011-04-30T10:10:05Z</time></trkpt>
<trkpt lat="42.275265" lon="3.256908"><ele>350.1</ele><time>2011-04-30T10:10:10Z</time></trkpt>
<trkpt lat="42.275192" lon="3.256900"><ele>350.8</ele><time>2011-04-30T10:10:15Z</time></trkpt>
<trkpt lat="42.275105" lon="3.256940"><ele>351.3</ele><time>2011-04-30T10:10:20Z</time></trkpt>
<trkpt lat="42.275008" lon="3.256960"><ele>352</ele><time>2011-04-30T10:10:25Z</time></trkpt>
<trkpt lat="42.274928" lon="3.256965"><ele>352.7</ele><time>2011-04-30T10:10:30Z</time></trkpt>
<trkpt lat="42.274860" lon="3.256943"><ele>353.4</ele><time>2011-04-30T10:10:35Z</time></trkpt>
<trkpt lat="42.274845" lon="3.256855"><ele>354.3</ele><time>2011-04-30T10:10:40Z</time></trkpt>
<trkpt lat="42.274902" lon="3.256803"><ele>355.7</ele><time>2011-04-30T10:10:45Z</time></trkpt>
<trkpt lat="42.274987" lon="3.256782"><ele>356.8</ele><time>2011-04-30T10:10:50Z</time></trkpt>
<trkpt lat="42.275055" lon="3.256752"><ele>358.1</ele><time>2011-04-30T10:10:55Z</time></trkpt>
<trkpt lat="42.275123" lon="3.256718"><ele>359.1</ele><time>2011-04-30T10:11:00Z</time></trkpt>
<trkpt lat="42.275192" lon="3.256670"><ele>359.8</ele><time>2011-04-30T10:11:05Z</time></trkpt>
<trkpt lat="42.275262" lon="3.256625"><ele>360.6</ele><time>2011-04-30T10:11:10Z</time></trkpt>
<trkpt lat="42.275333" lon="3.256587"><ele>361.8</ele><time>2011-04-30T10:11:15Z</time></trkpt>
<trkpt lat="42.275413" lon="3.256565"><ele>362.6</ele><time>2011-04-30T10:11:20Z</time></trkpt>
<trkpt lat="42.275478" lon="3.256537"><ele>363.4</ele><time>2011-04-30T10:11:25Z</time></trkpt>
<trkpt lat="42.275547" lon="3.256490"><ele>364.4</ele><time>2011-04-30T10:11:30Z</time></trkpt>
<trkpt lat="42.275597" lon="3.256423"><ele>365.5</ele><time>2011-04-30T10:11:35Z</time></trkpt>
<trkpt lat="42.275570" lon="3.256345"><ele>366.1</ele><time>2011-04-30T10:11:40Z</time></trkpt>
<trkpt lat="42.275502" lon="3.256377"><ele>366.7</ele><time>2011-04-30T10:11:45Z</time></trkpt>
<trkpt lat="42.275417" lon="3.256397"><ele>366.9</ele><time>2011-04-30T10:11:50Z</time></trkpt>
<trkpt lat="42.275333" lon="3.256390"><ele>367.4</ele><time>2011-04-30T10:11:55Z</time></trkpt>
<trkpt lat="42.275250" lon="3.256377"><ele>367.9</ele><time>2011-04-30T10:12:00Z</time></trkpt>
<trkpt lat="42.275173" lon="3.256390"><ele>368.8</ele><time>2011-04-30T10:12:05Z</time></trkpt>
<trkpt lat="42.275112" lon="3.256342"><ele>369.6</ele><time>2011-04-30T10:12:10Z</time></trkpt>
<trkpt lat="42.275138" lon="3.256268"><ele>370.4</ele><time>2011-04-30T10:12:15Z</time></trkpt>
<trkpt lat="42.275218" lon="3.256260"><ele>371.5</ele><time>2011-04-30T10:12:20Z</time></trkpt>
<trkpt lat="42.275295" lon="3.256242"><ele>372.4</ele><time>2011-04-30T10:12:25Z</time></trkpt>
<trkpt lat="42.275375" lon="3.256207"><ele>373.4</ele><time>2011-04-30T10:12:30Z</time></trkpt>
<trkpt lat="42.275448" lon="3.256170"><ele>374.6</ele><time>2011-04-30T10:12:35Z</time></trkpt>
<trkpt lat="42.275523" lon="3.256122"><ele>375.4</ele><time>2011-04-30T10:12:40Z</time></trkpt>
<trkpt lat="42.275605" lon="3.256068"><ele>376.6</ele><time>2011-04-30T10:12:45Z</time></trkpt>
<trkpt lat="42.275692" lon="3.256028"><ele>377.3</ele><time>2011-04-30T10:12:50Z</time></trkpt>
<trkpt lat="42.275780" lon="3.255992"><ele>378</ele><time>2011-04-30T10:12:55Z</time></trkpt>
<trkpt lat="42.275852" lon="3.255927"><ele>378.7</ele><time>2011-04-30T10:13:00Z</time></trkpt>
<trkpt lat="42.275860" lon="3.255923"><ele>378.8</ele><time>2011-04-30T10:13:05Z</time></trkpt>
<trkpt lat="42.275863" lon="3.255928"><ele>378.9</ele><time>2011-04-30T10:13:10Z</time></trkpt>
<trkpt lat="42.275863" lon="3.255923"><ele>378.7</ele><time>2011-04-30T10:13:15Z</time></trkpt>
<trkpt lat="42.275863" lon="3.255920"><ele>378.3</ele><time>2011-04-30T10:13:20Z</time></trkpt>
<trkpt lat="42.275863" lon="3.255920"><ele>378.7</ele><time>2011-04-30T10:13:25Z</time></trkpt>
<trkpt lat="42.275860" lon="3.255917"><ele>379.2</ele><time>2011-04-30T10:13:30Z</time></trkpt>
<trkpt lat="42.275857" lon="3.255915"><ele>379.9</ele><time>2011-04-30T10:13:35Z</time></trkpt>
<trkpt lat="42.275848" lon="3.255905"><ele>380.1</ele><time>2011-04-30T10:13:40Z</time></trkpt>
<trkpt lat="42.275857" lon="3.255920"><ele>380.3</ele><time>2011-04-30T10:13:45Z</time></trkpt>
<trkpt lat="42.275860" lon="3.255920"><ele>380.6</ele><time>2011-04-30T10:13:50Z</time></trkpt>
<trkpt lat="42.275852" lon="3.255935"><ele>380.7</ele><time>2011-04-30T10:13:55Z</time></trkpt>
<trkpt lat="42.275852" lon="3.255933"><ele>380.7</ele><time>2011-04-30T10:14:00Z</time></trkpt>
<trkpt lat="42.275848" lon="3.255950"><ele>380.3</ele><time>2011-04-30T10:14:05Z</time></trkpt>
<trkpt lat="42.275837" lon="3.255948"><ele>379.8</ele><time>2011-04-30T10:14:10Z</time></trkpt>
<trkpt lat="42.275837" lon="3.255947"><ele>379.7</ele><time>2011-04-30T10:14:15Z</time></trkpt>
<trkpt lat="42.275840" lon="3.255952"><ele>379.5</ele><time>2011-04-30T10:14:20Z</time></trkpt>
<trkpt lat="42.275840" lon="3.255955"><ele>379.4</ele><time>2011-04-30T10:14:25Z</time></trkpt>
<trkpt lat="42.275840" lon="3.255958"><ele>379.4</ele><time>2011-04-30T10:14:30Z</time></trkpt>
<trkpt lat="42.275848" lon="3.255953"><ele>379.7</ele><time>2011-04-30T10:14:35Z</time></trkpt>
<trkpt lat="42.275848" lon="3.255962"><ele>379.9</ele><time>2011-04-30T10:14:40Z</time></trkpt>
<trkpt lat="42.275848" lon="3.255957"><ele>379.6</ele><time>2011-04-30T10:14:45Z</time></trkpt>
<trkpt lat="42.275852" lon="3.255960"><ele>379.5</ele><time>2011-04-30T10:14:50Z</time></trkpt>
<trkpt lat="42.275852" lon="3.255960"><ele>379.4</ele><time>2011-04-30T10:14:55Z</time></trkpt>
<trkpt lat="42.275852" lon="3.255962"><ele>379.1</ele><time>2011-04-30T10:15:00Z</time></trkpt>
<trkpt lat="42.275852" lon="3.255958"><ele>378.9</ele><time>2011-04-30T10:15:05Z</time></trkpt>
<trkpt lat="42.275845" lon="3.255952"><ele>378</ele><time>2011-04-30T10:15:10Z</time></trkpt>
<trkpt lat="42.275845" lon="3.255948"><ele>377.8</ele><time>2011-04-30T10:15:15Z</time></trkpt>
<trkpt lat="42.275848" lon="3.255960"><ele>378.5</ele><time>2011-04-30T10:15:20Z</time></trkpt>
<trkpt lat="42.275852" lon="3.255958"><ele>378.6</ele><time>2011-04-30T10:15:25Z</time></trkpt>
<trkpt lat="42.275848" lon="3.255970"><ele>378.9</ele><time>2011-04-30T10:15:30Z</time></trkpt>
<trkpt lat="42.275848" lon="3.255972"><ele>378.9</ele><time>2011-04-30T10:15:35Z</time></trkpt>
<trkpt lat="42.275845" lon="3.255963"><ele>378.6</ele><time>2011-04-30T10:15:40Z</time></trkpt>
<trkpt lat="42.275840" lon="3.255967"><ele>377.8</ele><time>2011-04-30T10:15:45Z</time></trkpt>
<trkpt lat="42.275840" lon="3.255965"><ele>377.8</ele><time>2011-04-30T10:15:50Z</time></trkpt>
<trkpt lat="42.275840" lon="3.255967"><ele>377.9</ele><time>2011-04-30T10:15:55Z</time></trkpt>
<trkpt lat="42.275840" lon="3.255967"><ele>377.9</ele><time>2011-04-30T10:16:00Z</time></trkpt>
<trkpt lat="42.275840" lon="3.255965"><ele>377.8</ele><time>2011-04-30T10:16:05Z</time></trkpt>
<trkpt lat="42.275840" lon="3.255967"><ele>377.9</ele><time>2011-04-30T10:16:10Z</time></trkpt>
<trkpt lat="42.275840" lon="3.255975"><ele>378.8</ele><time>2011-04-30T10:16:15Z</time></trkpt>
<trkpt lat="42.275840" lon="3.255970"><ele>378.2</ele><time>2011-04-30T10:16:20Z</time></trkpt>
<trkpt lat="42.275848" lon="3.255957"><ele>378.1</ele><time>2011-04-30T10:16:25Z</time></trkpt>
<trkpt lat="42.275852" lon="3.255958"><ele>378</ele><time>2011-04-30T10:16:30Z</time></trkpt>
<trkpt lat="42.275852" lon="3.255968"><ele>378</ele><time>2011-04-30T10:16:35Z</time></trkpt>
<trkpt lat="42.275852" lon="3.255968"><ele>377.9</ele><time>2011-04-30T10:16:40Z</time></trkpt>
<trkpt lat="42.275852" lon="3.255958"><ele>378</ele><time>2011-04-30T10:16:45Z</time></trkpt>
<trkpt lat="42.275852" lon="3.255950"><ele>377.8</ele><time>2011-04-30T10:16:50Z</time></trkpt>
<trkpt lat="42.275857" lon="3.255950"><ele>377.8</ele><time>2011-04-30T10:16:55Z</time></trkpt>
<trkpt lat="42.275857" lon="3.255950"><ele>377.9</ele><time>2011-04-30T10:17:00Z</time></trkpt>
<trkpt lat="42.275857" lon="3.255950"><ele>378</ele><time>2011-04-30T10:17:05Z</time></trkpt>
<trkpt lat="42.275857" lon="3.255950"><ele>378.2</ele><time>2011-04-30T10:17:10Z</time></trkpt>
<trkpt lat="42.275857" lon="3.255955"><ele>378.3</ele><time>2011-04-30T10:17:15Z</time></trkpt>
<trkpt lat="42.275857" lon="3.255958"><ele>378.4</ele><time>2011-04-30T10:17:20Z</time></trkpt>
<trkpt lat="42.275857" lon="3.255958"><ele>378.5</ele><time>2011-04-30T10:17:25Z</time></trkpt>
<trkpt lat="42.275857" lon="3.255958"><ele>378.6</ele><time>2011-04-30T10:17:30Z</time></trkpt>
<trkpt lat="42.275857" lon="3.255963"><ele>378.7</ele><time>2011-04-30T10:17:35Z</time></trkpt>
<trkpt lat="42.275857" lon="3.255958"><ele>378.5</ele><time>2011-04-30T10:17:40Z</time></trkpt>
<trkpt lat="42.275867" lon="3.255945"><ele>378.6</ele><time>2011-04-30T10:17:45Z</time></trkpt>
<trkpt lat="42.275867" lon="3.255948"><ele>378.7</ele><time>2011-04-30T10:17:50Z</time></trkpt>
<trkpt lat="42.275867" lon="3.255953"><ele>378.9</ele><time>2011-04-30T10:17:55Z</time></trkpt>
<trkpt lat="42.275867" lon="3.255953"><ele>379.4</ele><time>2011-04-30T10:18:00Z</time></trkpt>
<trkpt lat="42.275863" lon="3.255960"><ele>379.5</ele><time>2011-04-30T10:18:05Z</time></trkpt>
<trkpt lat="42.275857" lon="3.255962"><ele>379.5</ele><time>2011-04-30T10:18:10Z</time></trkpt>
<trkpt lat="42.275857" lon="3.255962"><ele>379.5</ele><time>2011-04-30T10:18:15Z</time></trkpt>
<trkpt lat="42.275860" lon="3.255968"><ele>380.2</ele><time>2011-04-30T10:18:20Z</time></trkpt>
<trkpt lat="42.275860" lon="3.255972"><ele>380.5</ele><time>2011-04-30T10:18:25Z</time></trkpt>
<trkpt lat="42.275848" lon="3.255948"><ele>379.7</ele><time>2011-04-30T10:18:30Z</time></trkpt>
<trkpt lat="42.275857" lon="3.255948"><ele>379.6</ele><time>2011-04-30T10:18:35Z</time></trkpt>
<trkpt lat="42.275857" lon="3.255953"><ele>379.6</ele><time>2011-04-30T10:18:40Z</time></trkpt>
<trkpt lat="42.275852" lon="3.255970"><ele>379.6</ele><time>2011-04-30T10:18:45Z</time></trkpt>
<trkpt lat="42.275848" lon="3.255967"><ele>379.6</ele><time>2011-04-30T10:18:50Z</time></trkpt>
<trkpt lat="42.275848" lon="3.255967"><ele>379.2</ele><time>2011-04-30T10:18:55Z</time></trkpt>
<trkpt lat="42.275848" lon="3.255965"><ele>379</ele><time>2011-04-30T10:19:00Z</time></trkpt>
<trkpt lat="42.275848" lon="3.255965"><ele>378.9</ele><time>2011-04-30T10:19:05Z</time></trkpt>
<trkpt lat="42.275852" lon="3.255965"><ele>378.7</ele><time>2011-04-30T10:19:10Z</time></trkpt>
<trkpt lat="42.275857" lon="3.255965"><ele>378.7</ele><time>2011-04-30T10:19:15Z</time></trkpt>
<trkpt lat="42.275857" lon="3.255965"><ele>378.8</ele><time>2011-04-30T10:19:20Z</time></trkpt>
<trkpt lat="42.275857" lon="3.255967"><ele>378.9</ele><time>2011-04-30T10:19:25Z</time></trkpt>
<trkpt lat="42.275857" lon="3.255962"><ele>378.7</ele><time>2011-04-30T10:19:30Z</time></trkpt>
<trkpt lat="42.275852" lon="3.255960"><ele>378.5</ele><time>2011-04-30T10:19:35Z</time></trkpt>
<trkpt lat="42.275852" lon="3.255960"><ele>378.3</ele><time>2011-04-30T10:19:40Z</time></trkpt>
<trkpt lat="42.275852" lon="3.255963"><ele>378.1</ele><time>2011-04-30T10:19:45Z</time></trkpt>
<trkpt lat="42.275852" lon="3.255962"><ele>378.1</ele><time>2011-04-30T10:19:50Z</time></trkpt>
<trkpt lat="42.275852" lon="3.255963"><ele>378.3</ele><time>2011-04-30T10:19:55Z</time></trkpt>
<trkpt lat="42.275852" lon="3.255965"><ele>378.4</ele><time>2011-04-30T10:20:00Z</time></trkpt>
<trkpt lat="42.275852" lon="3.255965"><ele>378.1</ele><time>2011-04-30T10:20:05Z</time></trkpt>
<trkpt lat="42.275852" lon="3.255963"><ele>378.1</ele><time>2011-04-30T10:20:10Z</time></trkpt>
<trkpt lat="42.275852" lon="3.255963"><ele>378.2</ele><time>2011-04-30T10:20:15Z</time></trkpt>
<trkpt lat="42.275840" lon="3.255972"><ele>378.2</ele><time>2011-04-30T10:20:20Z</time></trkpt>
<trkpt lat="42.275783" lon="3.255992"><ele>377.5</ele><time>2011-04-30T10:20:25Z</time></trkpt>
<trkpt lat="42.275615" lon="3.256075"><ele>376.1</ele><time>2011-04-30T10:20:30Z</time></trkpt>
<trkpt lat="42.275363" lon="3.256202"><ele>373.5</ele><time>2011-04-30T10:20:35Z</time></trkpt>
<trkpt lat="42.275135" lon="3.256287"><ele>371.7</ele><time>2011-04-30T10:20:40Z</time></trkpt>
<trkpt lat="42.275235" lon="3.256387"><ele>369.2</ele><time>2011-04-30T10:20:45Z</time></trkpt>
<trkpt lat="42.275478" lon="3.256382"><ele>367.7</ele><time>2011-04-30T10:20:50Z</time></trkpt>
<trkpt lat="42.275578" lon="3.256458"><ele>365</ele><time>2011-04-30T10:20:55Z</time></trkpt>
<trkpt lat="42.275333" lon="3.256605"><ele>360.9</ele><time>2011-04-30T10:21:00Z</time></trkpt>
<trkpt lat="42.275037" lon="3.256745"><ele>357</ele><time>2011-04-30T10:21:05Z</time></trkpt>
<trkpt lat="42.274842" lon="3.256887"><ele>353.7</ele><time>2011-04-30T10:21:10Z</time></trkpt>
<trkpt lat="42.275017" lon="3.256967"><ele>351.4</ele><time>2011-04-30T10:21:15Z</time></trkpt>
<trkpt lat="42.275238" lon="3.256913"><ele>349.6</ele><time>2011-04-30T10:21:20Z</time></trkpt>
<trkpt lat="42.275153" lon="3.257073"><ele>346.7</ele><time>2011-04-30T10:21:25Z</time></trkpt>
<trkpt lat="42.274898" lon="3.257340"><ele>342.4</ele><time>2011-04-30T10:21:30Z</time></trkpt>
<trkpt lat="42.274590" lon="3.257702"><ele>338.7</ele><time>2011-04-30T10:21:35Z</time></trkpt>
<trkpt lat="42.274280" lon="3.258002"><ele>334.6</ele><time>2011-04-30T10:21:40Z</time></trkpt>
<trkpt lat="42.274208" lon="3.258265"><ele>331.6</ele><time>2011-04-30T10:21:45Z</time></trkpt>
<trkpt lat="42.274440" lon="3.258247"><ele>329.4</ele><time>2011-04-30T10:21:50Z</time></trkpt>
<trkpt lat="42.274700" lon="3.258140"><ele>327.3</ele><time>2011-04-30T10:21:55Z</time></trkpt>
<trkpt lat="42.274730" lon="3.258283"><ele>324.3</ele><time>2011-04-30T10:22:00Z</time></trkpt>
<trkpt lat="42.274498" lon="3.258607"><ele>320.2</ele><time>2011-04-30T10:22:05Z</time></trkpt>
<trkpt lat="42.274215" lon="3.258867"><ele>316.7</ele><time>2011-04-30T10:22:10Z</time></trkpt>
<trkpt lat="42.274235" lon="3.258982"><ele>314.8</ele><time>2011-04-30T10:22:15Z</time></trkpt>
<trkpt lat="42.274342" lon="3.258980"><ele>312.9</ele><time>2011-04-30T10:22:20Z</time></trkpt>
<trkpt lat="42.274170" lon="3.259208"><ele>309.8</ele><time>2011-04-30T10:22:25Z</time></trkpt>
<trkpt lat="42.274010" lon="3.259447"><ele>306.6</ele><time>2011-04-30T10:22:30Z</time></trkpt>
<trkpt lat="42.274178" lon="3.259410"><ele>304.5</ele><time>2011-04-30T10:22:35Z</time></trkpt>
<trkpt lat="42.274407" lon="3.259252"><ele>301.9</ele><time>2011-04-30T10:22:40Z</time></trkpt>
<trkpt lat="42.274472" lon="3.259338"><ele>299</ele><time>2011-04-30T10:22:45Z</time></trkpt>
<trkpt lat="42.274273" lon="3.259675"><ele>295.3</ele><time>2011-04-30T10:22:50Z</time></trkpt>
<trkpt lat="42.273963" lon="3.260010"><ele>291.3</ele><time>2011-04-30T10:22:55Z</time></trkpt>
<trkpt lat="42.273720" lon="3.260193"><ele>288.6</ele><time>2011-04-30T10:23:00Z</time></trkpt>
<trkpt lat="42.273915" lon="3.260248"><ele>285.6</ele><time>2011-04-30T10:23:05Z</time></trkpt>
<trkpt lat="42.274102" lon="3.260237"><ele>283</ele><time>2011-04-30T10:23:10Z</time></trkpt>
<trkpt lat="42.273910" lon="3.260443"><ele>279.7</ele><time>2011-04-30T10:23:15Z</time></trkpt>
<trkpt lat="42.273788" lon="3.260607"><ele>276.9</ele><time>2011-04-30T10:23:20Z</time></trkpt>
<trkpt lat="42.274007" lon="3.260572"><ele>274.8</ele><time>2011-04-30T10:23:25Z</time></trkpt>
<trkpt lat="42.274155" lon="3.260577"><ele>272.3</ele><time>2011-04-30T10:23:30Z</time></trkpt>
<trkpt lat="42.273980" lon="3.260833"><ele>268.6</ele><time>2011-04-30T10:23:35Z</time></trkpt>
<trkpt lat="42.273743" lon="3.261173"><ele>264.3</ele><time>2011-04-30T10:23:40Z</time></trkpt>
<trkpt lat="42.273575" lon="3.261553"><ele>258.9</ele><time>2011-04-30T10:23:45Z</time></trkpt>
<trkpt lat="42.273460" lon="3.261428"><ele>255.7</ele><time>2011-04-30T10:23:50Z</time></trkpt>
<trkpt lat="42.273380" lon="3.261538"><ele>253.3</ele><time>2011-04-30T10:23:55Z</time></trkpt>
<trkpt lat="42.273285" lon="3.261922"><ele>250.6</ele><time>2011-04-30T10:24:00Z</time></trkpt>
<trkpt lat="42.273238" lon="3.262408"><ele>246.1</ele><time>2011-04-30T10:24:05Z</time></trkpt>
<trkpt lat="42.273262" lon="3.262863"><ele>243.6</ele><time>2011-04-30T10:24:10Z</time></trkpt>
<trkpt lat="42.273052" lon="3.263203"><ele>239.5</ele><time>2011-04-30T10:24:15Z</time></trkpt>
<trkpt lat="42.272827" lon="3.263118"><ele>237.7</ele><time>2011-04-30T10:24:20Z</time></trkpt>
<trkpt lat="42.272805" lon="3.262737"><ele>236</ele><time>2011-04-30T10:24:25Z</time></trkpt>
<trkpt lat="42.272835" lon="3.262300"><ele>233.8</ele><time>2011-04-30T10:24:30Z</time></trkpt>
<trkpt lat="42.272785" lon="3.262040"><ele>231.8</ele><time>2011-04-30T10:24:35Z</time></trkpt>
<trkpt lat="42.272697" lon="3.262327"><ele>229.4</ele><time>2011-04-30T10:24:40Z</time></trkpt>
<trkpt lat="42.272542" lon="3.262755"><ele>225.3</ele><time>2011-04-30T10:24:45Z</time></trkpt>
<trkpt lat="42.272373" lon="3.263267"><ele>219.8</ele><time>2011-04-30T10:24:50Z</time></trkpt>
<trkpt lat="42.272305" lon="3.263827"><ele>214.6</ele><time>2011-04-30T10:24:55Z</time></trkpt>
<trkpt lat="42.272457" lon="3.264335"><ele>208.4</ele><time>2011-04-30T10:25:00Z</time></trkpt>
<trkpt lat="42.272740" lon="3.264740"><ele>202.7</ele><time>2011-04-30T10:25:05Z</time></trkpt>
<trkpt lat="42.273007" lon="3.265080"><ele>199.2</ele><time>2011-04-30T10:25:10Z</time></trkpt>
<trkpt lat="42.273255" lon="3.265108"><ele>195.2</ele><time>2011-04-30T10:25:15Z</time></trkpt>
<trkpt lat="42.273510" lon="3.265123"><ele>192.7</ele><time>2011-04-30T10:25:20Z</time></trkpt>
<trkpt lat="42.273460" lon="3.265450"><ele>190</ele><time>2011-04-30T10:25:25Z</time></trkpt>
<trkpt lat="42.273368" lon="3.265815"><ele>186.6</ele><time>2011-04-30T10:25:30Z</time></trkpt>
<trkpt lat="42.273480" lon="3.266062"><ele>185.1</ele><time>2011-04-30T10:25:35Z</time></trkpt>
<trkpt lat="42.273647" lon="3.266137"><ele>184.9</ele><time>2011-04-30T10:25:40Z</time></trkpt>
<trkpt lat="42.273747" lon="3.266152"><ele>184.2</ele><time>2011-04-30T10:25:45Z</time></trkpt>
<trkpt lat="42.273663" lon="3.266197"><ele>184</ele><time>2011-04-30T10:25:50Z</time></trkpt>
<trkpt lat="42.273548" lon="3.266143"><ele>184.1</ele><time>2011-04-30T10:25:55Z</time></trkpt>
<trkpt lat="42.273415" lon="3.266037"><ele>184</ele><time>2011-04-30T10:26:00Z</time></trkpt>
<trkpt lat="42.273297" lon="3.265893"><ele>184.3</ele><time>2011-04-30T10:26:05Z</time></trkpt>
<trkpt lat="42.273193" lon="3.265788"><ele>185.2</ele><time>2011-04-30T10:26:10Z</time></trkpt>
<trkpt lat="42.273102" lon="3.265745"><ele>185.9</ele><time>2011-04-30T10:26:15Z</time></trkpt>
<trkpt lat="42.273022" lon="3.265673"><ele>186.3</ele><time>2011-04-30T10:26:20Z</time></trkpt>
<trkpt lat="42.272938" lon="3.265543"><ele>186.7</ele><time>2011-04-30T10:26:25Z</time></trkpt>
<trkpt lat="42.272877" lon="3.265428"><ele>186.7</ele><time>2011-04-30T10:26:30Z</time></trkpt>
<trkpt lat="42.272788" lon="3.265305"><ele>186.3</ele><time>2011-04-30T10:26:35Z</time></trkpt>
<trkpt lat="42.272652" lon="3.265378"><ele>186.5</ele><time>2011-04-30T10:26:40Z</time></trkpt>
<trkpt lat="42.272643" lon="3.265587"><ele>187</ele><time>2011-04-30T10:26:45Z</time></trkpt>
<trkpt lat="42.272622" lon="3.265740"><ele>187.7</ele><time>2011-04-30T10:26:50Z</time></trkpt>
<trkpt lat="42.272590" lon="3.265860"><ele>188.5</ele><time>2011-04-30T10:26:55Z</time></trkpt>
<trkpt lat="42.272545" lon="3.265960"><ele>189.2</ele><time>2011-04-30T10:27:00Z</time></trkpt>
<trkpt lat="42.272510" lon="3.266067"><ele>189.8</ele><time>2011-04-30T10:27:05Z</time></trkpt>
<trkpt lat="42.272480" lon="3.266200"><ele>190.6</ele><time>2011-04-30T10:27:10Z</time></trkpt>
<trkpt lat="42.272468" lon="3.266340"><ele>190.8</ele><time>2011-04-30T10:27:15Z</time></trkpt>
<trkpt lat="42.272445" lon="3.266503"><ele>191.6</ele><time>2011-04-30T10:27:20Z</time></trkpt>
<trkpt lat="42.272415" lon="3.266642"><ele>192.4</ele><time>2011-04-30T10:27:25Z</time></trkpt>
<trkpt lat="42.272380" lon="3.266762"><ele>193.1</ele><time>2011-04-30T10:27:30Z</time></trkpt>
<trkpt lat="42.272320" lon="3.266855"><ele>193.9</ele><time>2011-04-30T10:27:35Z</time></trkpt>
<trkpt lat="42.272252" lon="3.266920"><ele>194.8</ele><time>2011-04-30T10:27:40Z</time></trkpt>
<trkpt lat="42.272172" lon="3.266970"><ele>195.3</ele><time>2011-04-30T10:27:45Z</time></trkpt>
<trkpt lat="42.272072" lon="3.267033"><ele>195.9</ele><time>2011-04-30T10:27:50Z</time></trkpt>
<trkpt lat="42.271980" lon="3.267097"><ele>196.5</ele><time>2011-04-30T10:27:55Z</time></trkpt>
<trkpt lat="42.271893" lon="3.267185"><ele>196.7</ele><time>2011-04-30T10:28:00Z</time></trkpt>
<trkpt lat="42.271820" lon="3.267312"><ele>196.9</ele><time>2011-04-30T10:28:05Z</time></trkpt>
<trkpt lat="42.271740" lon="3.267452"><ele>197.1</ele><time>2011-04-30T10:28:10Z</time></trkpt>
<trkpt lat="42.271657" lon="3.267583"><ele>197.3</ele><time>2011-04-30T10:28:15Z</time></trkpt>
<trkpt lat="42.271565" lon="3.267682"><ele>197.9</ele><time>2011-04-30T10:28:20Z</time></trkpt>
<trkpt lat="42.271468" lon="3.267738"><ele>198.9</ele><time>2011-04-30T10:28:25Z</time></trkpt>
<trkpt lat="42.271373" lon="3.267818"><ele>199.6</ele><time>2011-04-30T10:28:30Z</time></trkpt>
<trkpt lat="42.271278" lon="3.267883"><ele>200.5</ele><time>2011-04-30T10:28:35Z</time></trkpt>
<trkpt lat="42.271195" lon="3.267952"><ele>201.4</ele><time>2011-04-30T10:28:40Z</time></trkpt>
<trkpt lat="42.271125" lon="3.267995"><ele>202.1</ele><time>2011-04-30T10:28:45Z</time></trkpt>
<trkpt lat="42.271035" lon="3.268022"><ele>202.7</ele><time>2011-04-30T10:28:50Z</time></trkpt>
<trkpt lat="42.270897" lon="3.268083"><ele>202.9</ele><time>2011-04-30T10:28:55Z</time></trkpt>
<trkpt lat="42.270767" lon="3.268122"><ele>203.3</ele><time>2011-04-30T10:29:00Z</time></trkpt>
<trkpt lat="42.270638" lon="3.268158"><ele>203.4</ele><time>2011-04-30T10:29:05Z</time></trkpt>
<trkpt lat="42.270503" lon="3.268212"><ele>203.7</ele><time>2011-04-30T10:29:10Z</time></trkpt>
<trkpt lat="42.270382" lon="3.268270"><ele>204</ele><time>2011-04-30T10:29:15Z</time></trkpt>
<trkpt lat="42.270252" lon="3.268337"><ele>204.2</ele><time>2011-04-30T10:29:20Z</time></trkpt>
<trkpt lat="42.270103" lon="3.268402"><ele>204.2</ele><time>2011-04-30T10:29:25Z</time></trkpt>
<trkpt lat="42.269955" lon="3.268335"><ele>204.5</ele><time>2011-04-30T10:29:30Z</time></trkpt>
<trkpt lat="42.269935" lon="3.268115"><ele>204</ele><time>2011-04-30T10:29:35Z</time></trkpt>
<trkpt lat="42.270023" lon="3.267937"><ele>203.4</ele><time>2011-04-30T10:29:40Z</time></trkpt>
<trkpt lat="42.270035" lon="3.267750"><ele>203</ele><time>2011-04-30T10:29:45Z</time></trkpt>
<trkpt lat="42.269947" lon="3.267635"><ele>203.5</ele><time>2011-04-30T10:29:50Z</time></trkpt>
<trkpt lat="42.269828" lon="3.267607"><ele>204.4</ele><time>2011-04-30T10:29:55Z</time></trkpt>
<trkpt lat="42.269710" lon="3.267605"><ele>205.2</ele><time>2011-04-30T10:30:00Z</time></trkpt>
<trkpt lat="42.269603" lon="3.267607"><ele>205.9</ele><time>2011-04-30T10:30:05Z</time></trkpt>
<trkpt lat="42.269505" lon="3.267627"><ele>206.7</ele><time>2011-04-30T10:30:10Z</time></trkpt>
<trkpt lat="42.269413" lon="3.267640"><ele>207.7</ele><time>2011-04-30T10:30:15Z</time></trkpt>
<trkpt lat="42.269325" lon="3.267660"><ele>208.4</ele><time>2011-04-30T10:30:20Z</time></trkpt>
<trkpt lat="42.269242" lon="3.267677"><ele>209.1</ele><time>2011-04-30T10:30:25Z</time></trkpt>
<trkpt lat="42.269162" lon="3.267703"><ele>209.9</ele><time>2011-04-30T10:30:30Z</time></trkpt>
<trkpt lat="42.269085" lon="3.267728"><ele>210.8</ele><time>2011-04-30T10:30:35Z</time></trkpt>
<trkpt lat="42.269008" lon="3.267758"><ele>211.5</ele><time>2011-04-30T10:30:40Z</time></trkpt>
<trkpt lat="42.268932" lon="3.267788"><ele>212.3</ele><time>2011-04-30T10:30:45Z</time></trkpt>
<trkpt lat="42.268863" lon="3.267818"><ele>213.2</ele><time>2011-04-30T10:30:50Z</time></trkpt>
<trkpt lat="42.268787" lon="3.267850"><ele>214.1</ele><time>2011-04-30T10:30:55Z</time></trkpt>
<trkpt lat="42.268703" lon="3.267855"><ele>214.9</ele><time>2011-04-30T10:31:00Z</time></trkpt>
<trkpt lat="42.268605" lon="3.267838"><ele>215.1</ele><time>2011-04-30T10:31:05Z</time></trkpt>
<trkpt lat="42.268513" lon="3.267818"><ele>216.1</ele><time>2011-04-30T10:31:10Z</time></trkpt>
<trkpt lat="42.268428" lon="3.267802"><ele>217</ele><time>2011-04-30T10:31:15Z</time></trkpt>
<trkpt lat="42.268348" lon="3.267757"><ele>217.9</ele><time>2011-04-30T10:31:20Z</time></trkpt>
<trkpt lat="42.268295" lon="3.267658"><ele>218.3</ele><time>2011-04-30T10:31:25Z</time></trkpt>
<trkpt lat="42.268303" lon="3.267533"><ele>218.8</ele><time>2011-04-30T10:31:30Z</time></trkpt>
<trkpt lat="42.268333" lon="3.267423"><ele>219.4</ele><time>2011-04-30T10:31:35Z</time></trkpt>
<trkpt lat="42.268368" lon="3.267322"><ele>220.1</ele><time>2011-04-30T10:31:40Z</time></trkpt>
<trkpt lat="42.268398" lon="3.267248"><ele>220.4</ele><time>2011-04-30T10:31:45Z</time></trkpt>
<trkpt lat="42.268425" lon="3.267152"><ele>220.9</ele><time>2011-04-30T10:31:50Z</time></trkpt>
<trkpt lat="42.268455" lon="3.267042"><ele>221.5</ele><time>2011-04-30T10:31:55Z</time></trkpt>
<trkpt lat="42.268487" lon="3.266933"><ele>222.4</ele><time>2011-04-30T10:32:00Z</time></trkpt>
<trkpt lat="42.268517" lon="3.266825"><ele>223.2</ele><time>2011-04-30T10:32:05Z</time></trkpt>
<trkpt lat="42.268547" lon="3.266717"><ele>223.9</ele><time>2011-04-30T10:32:10Z</time></trkpt>
<trkpt lat="42.268573" lon="3.266605"><ele>224.5</ele><time>2011-04-30T10:32:15Z</time></trkpt>
<trkpt lat="42.268605" lon="3.266495"><ele>225.2</ele><time>2011-04-30T10:32:20Z</time></trkpt>
<trkpt lat="42.268642" lon="3.266383"><ele>225.8</ele><time>2011-04-30T10:32:25Z</time></trkpt>
<trkpt lat="42.268695" lon="3.266268"><ele>226.2</ele><time>2011-04-30T10:32:30Z</time></trkpt>
<trkpt lat="42.268765" lon="3.266152"><ele>226.1</ele><time>2011-04-30T10:32:35Z</time></trkpt>
<trkpt lat="42.268813" lon="3.266007"><ele>225.5</ele><time>2011-04-30T10:32:40Z</time></trkpt>
<trkpt lat="42.268738" lon="3.265827"><ele>225.3</ele><time>2011-04-30T10:32:45Z</time></trkpt>
<trkpt lat="42.268585" lon="3.265805"><ele>225.1</ele><time>2011-04-30T10:32:50Z</time></trkpt>
<trkpt lat="42.268433" lon="3.265855"><ele>225.3</ele><time>2011-04-30T10:32:55Z</time></trkpt>
<trkpt lat="42.268288" lon="3.265850"><ele>225.9</ele><time>2011-04-30T10:33:00Z</time></trkpt>
<trkpt lat="42.268170" lon="3.265760"><ele>226.5</ele><time>2011-04-30T10:33:05Z</time></trkpt>
<trkpt lat="42.268097" lon="3.265600"><ele>226.8</ele><time>2011-04-30T10:33:10Z</time></trkpt>
<trkpt lat="42.268047" lon="3.265363"><ele>226.1</ele><time>2011-04-30T10:33:15Z</time></trkpt>
<trkpt lat="42.268090" lon="3.265062"><ele>224.9</ele><time>2011-04-30T10:33:20Z</time></trkpt>
<trkpt lat="42.268112" lon="3.264737"><ele>223.7</ele><time>2011-04-30T10:33:25Z</time></trkpt>
<trkpt lat="42.268078" lon="3.264440"><ele>223.1</ele><time>2011-04-30T10:33:30Z</time></trkpt>
<trkpt lat="42.268010" lon="3.264163"><ele>222.7</ele><time>2011-04-30T10:33:35Z</time></trkpt>
<trkpt lat="42.267952" lon="3.263890"><ele>222.1</ele><time>2011-04-30T10:33:40Z</time></trkpt>
<trkpt lat="42.267925" lon="3.263607"><ele>221.4</ele><time>2011-04-30T10:33:45Z</time></trkpt>
<trkpt lat="42.267853" lon="3.263408"><ele>221.1</ele><time>2011-04-30T10:33:50Z</time></trkpt>
<trkpt lat="42.267688" lon="3.263422"><ele>221.1</ele><time>2011-04-30T10:33:55Z</time></trkpt>
<trkpt lat="42.267502" lon="3.263498"><ele>220.3</ele><time>2011-04-30T10:34:00Z</time></trkpt>
<trkpt lat="42.267292" lon="3.263583"><ele>219.8</ele><time>2011-04-30T10:34:05Z</time></trkpt>
<trkpt lat="42.267087" lon="3.263598"><ele>219.1</ele><time>2011-04-30T10:34:10Z</time></trkpt>
<trkpt lat="42.266868" lon="3.263657"><ele>218.2</ele><time>2011-04-30T10:34:15Z</time></trkpt>
<trkpt lat="42.266670" lon="3.263877"><ele>217.4</ele><time>2011-04-30T10:34:20Z</time></trkpt>
<trkpt lat="42.266480" lon="3.264153"><ele>216.6</ele><time>2011-04-30T10:34:25Z</time></trkpt>
<trkpt lat="42.266303" lon="3.264418"><ele>216.5</ele><time>2011-04-30T10:34:30Z</time></trkpt>
<trkpt lat="42.266132" lon="3.264660"><ele>216.8</ele><time>2011-04-30T10:34:35Z</time></trkpt>
<trkpt lat="42.265953" lon="3.264872"><ele>217</ele><time>2011-04-30T10:34:40Z</time></trkpt>
<trkpt lat="42.265758" lon="3.265065"><ele>217.1</ele><time>2011-04-30T10:34:45Z</time></trkpt>
<trkpt lat="42.265568" lon="3.265267"><ele>217.1</ele><time>2011-04-30T10:34:50Z</time></trkpt>
<trkpt lat="42.265358" lon="3.265448"><ele>217.1</ele><time>2011-04-30T10:34:55Z</time></trkpt>
<trkpt lat="42.265133" lon="3.265633"><ele>216.7</ele><time>2011-04-30T10:35:00Z</time></trkpt>
<trkpt lat="42.264877" lon="3.265760"><ele>216.9</ele><time>2011-04-30T10:35:05Z</time></trkpt>
<trkpt lat="42.264637" lon="3.265695"><ele>217.9</ele><time>2011-04-30T10:35:10Z</time></trkpt>
<trkpt lat="42.264530" lon="3.265475"><ele>219.3</ele><time>2011-04-30T10:35:15Z</time></trkpt>
<trkpt lat="42.264497" lon="3.265232"><ele>219.8</ele><time>2011-04-30T10:35:20Z</time></trkpt>
<trkpt lat="42.264438" lon="3.264973"><ele>220</ele><time>2011-04-30T10:35:25Z</time></trkpt>
<trkpt lat="42.264343" lon="3.264718"><ele>220.1</ele><time>2011-04-30T10:35:30Z</time></trkpt>
<trkpt lat="42.264255" lon="3.264463"><ele>220</ele><time>2011-04-30T10:35:35Z</time></trkpt>
<trkpt lat="42.264175" lon="3.264188"><ele>220</ele><time>2011-04-30T10:35:40Z</time></trkpt>
<trkpt lat="42.264027" lon="3.263970"><ele>219.4</ele><time>2011-04-30T10:35:45Z</time></trkpt>
<trkpt lat="42.263840" lon="3.263945"><ele>218.7</ele><time>2011-04-30T10:35:50Z</time></trkpt>
<trkpt lat="42.263672" lon="3.263933"><ele>218.6</ele><time>2011-04-30T10:35:55Z</time></trkpt>
<trkpt lat="42.263535" lon="3.263737"><ele>218.7</ele><time>2011-04-30T10:36:00Z</time></trkpt>
<trkpt lat="42.263500" lon="3.263488"><ele>219.4</ele><time>2011-04-30T10:36:05Z</time></trkpt>
<trkpt lat="42.263503" lon="3.263270"><ele>220.2</ele><time>2011-04-30T10:36:10Z</time></trkpt>
<trkpt lat="42.263503" lon="3.263040"><ele>220.9</ele><time>2011-04-30T10:36:15Z</time></trkpt>
<trkpt lat="42.263515" lon="3.262813"><ele>221.5</ele><time>2011-04-30T10:36:20Z</time></trkpt>
<trkpt lat="42.263538" lon="3.262575"><ele>221.8</ele><time>2011-04-30T10:36:25Z</time></trkpt>
<trkpt lat="42.263557" lon="3.262343"><ele>222.4</ele><time>2011-04-30T10:36:30Z</time></trkpt>
<trkpt lat="42.263588" lon="3.262108"><ele>223</ele><time>2011-04-30T10:36:35Z</time></trkpt>
<trkpt lat="42.263615" lon="3.261897"><ele>223.8</ele><time>2011-04-30T10:36:40Z</time></trkpt>
<trkpt lat="42.263633" lon="3.261717"><ele>224.5</ele><time>2011-04-30T10:36:45Z</time></trkpt>
<trkpt lat="42.263638" lon="3.261550"><ele>225.2</ele><time>2011-04-30T10:36:50Z</time></trkpt>
<trkpt lat="42.263630" lon="3.261382"><ele>225.9</ele><time>2011-04-30T10:36:55Z</time></trkpt>
<trkpt lat="42.263627" lon="3.261218"><ele>226.5</ele><time>2011-04-30T10:37:00Z</time></trkpt>
<trkpt lat="42.263627" lon="3.261053"><ele>227.2</ele><time>2011-04-30T10:37:05Z</time></trkpt>
<trkpt lat="42.263645" lon="3.260883"><ele>227.7</ele><time>2011-04-30T10:37:10Z</time></trkpt>
<trkpt lat="42.263683" lon="3.260708"><ele>227.8</ele><time>2011-04-30T10:37:15Z</time></trkpt>
<trkpt lat="42.263760" lon="3.260502"><ele>227.4</ele><time>2011-04-30T10:37:20Z</time></trkpt>
<trkpt lat="42.263882" lon="3.260313"><ele>226.2</ele><time>2011-04-30T10:37:25Z</time></trkpt>
<trkpt lat="42.264012" lon="3.260147"><ele>225.1</ele><time>2011-04-30T10:37:30Z</time></trkpt>
<trkpt lat="42.264133" lon="3.259980"><ele>224.6</ele><time>2011-04-30T10:37:35Z</time></trkpt>
<trkpt lat="42.264190" lon="3.259907"><ele>224.4</ele><time>2011-04-30T10:37:40Z</time></trkpt>
<trkpt lat="42.264187" lon="3.259913"><ele>224.6</ele><time>2011-04-30T10:37:45Z</time></trkpt>
<trkpt lat="42.264198" lon="3.259912"><ele>224.8</ele><time>2011-04-30T10:37:50Z</time></trkpt>
<trkpt lat="42.264210" lon="3.259910"><ele>225.1</ele><time>2011-04-30T10:37:55Z</time></trkpt>
<trkpt lat="42.264222" lon="3.259900"><ele>225.5</ele><time>2011-04-30T10:38:00Z</time></trkpt>
<trkpt lat="42.264237" lon="3.259852"><ele>225.8</ele><time>2011-04-30T10:38:05Z</time></trkpt>
<trkpt lat="42.264282" lon="3.259805"><ele>225.6</ele><time>2011-04-30T10:38:10Z</time></trkpt>
<trkpt lat="42.264362" lon="3.259742"><ele>225.3</ele><time>2011-04-30T10:38:15Z</time></trkpt>
<trkpt lat="42.264518" lon="3.259670"><ele>225</ele><time>2011-04-30T10:38:20Z</time></trkpt>
<trkpt lat="42.264698" lon="3.259587"><ele>224.7</ele><time>2011-04-30T10:38:25Z</time></trkpt>
<trkpt lat="42.264867" lon="3.259415"><ele>224.3</ele><time>2011-04-30T10:38:30Z</time></trkpt>
<trkpt lat="42.265003" lon="3.259167"><ele>223.6</ele><time>2011-04-30T10:38:35Z</time></trkpt>
<trkpt lat="42.265125" lon="3.258897"><ele>223.3</ele><time>2011-04-30T10:38:40Z</time></trkpt>
<trkpt lat="42.265240" lon="3.258642"><ele>223.2</ele><time>2011-04-30T10:38:45Z</time></trkpt>
<trkpt lat="42.265323" lon="3.258363"><ele>222.8</ele><time>2011-04-30T10:38:50Z</time></trkpt>
<trkpt lat="42.265323" lon="3.258055"><ele>223.1</ele><time>2011-04-30T10:38:55Z</time></trkpt>
<trkpt lat="42.265323" lon="3.257758"><ele>223.3</ele><time>2011-04-30T10:39:00Z</time></trkpt>
<trkpt lat="42.265338" lon="3.257465"><ele>223.3</ele><time>2011-04-30T10:39:05Z</time></trkpt>
<trkpt lat="42.265362" lon="3.257185"><ele>223.8</ele><time>2011-04-30T10:39:10Z</time></trkpt>
<trkpt lat="42.265392" lon="3.256940"><ele>223.9</ele><time>2011-04-30T10:39:15Z</time></trkpt>
<trkpt lat="42.265450" lon="3.256693"><ele>224.2</ele><time>2011-04-30T10:39:20Z</time></trkpt>
<trkpt lat="42.265518" lon="3.256460"><ele>224.5</ele><time>2011-04-30T10:39:25Z</time></trkpt>
<trkpt lat="42.265590" lon="3.256218"><ele>224.6</ele><time>2011-04-30T10:39:30Z</time></trkpt>
<trkpt lat="42.265655" lon="3.255950"><ele>224.9</ele><time>2011-04-30T10:39:35Z</time></trkpt>
<trkpt lat="42.265735" lon="3.255702"><ele>225.2</ele><time>2011-04-30T10:39:40Z</time></trkpt>
<trkpt lat="42.265850" lon="3.255472"><ele>225.2</ele><time>2011-04-30T10:39:45Z</time></trkpt>
<trkpt lat="42.266052" lon="3.255335"><ele>224.5</ele><time>2011-04-30T10:39:50Z</time></trkpt>
<trkpt lat="42.266282" lon="3.255260"><ele>223.9</ele><time>2011-04-30T10:39:55Z</time></trkpt>
<trkpt lat="42.266513" lon="3.255145"><ele>223.4</ele><time>2011-04-30T10:40:00Z</time></trkpt>
<trkpt lat="42.266750" lon="3.255120"><ele>222.8</ele><time>2011-04-30T10:40:05Z</time></trkpt>
<trkpt lat="42.266975" lon="3.255107"><ele>222.4</ele><time>2011-04-30T10:40:10Z</time></trkpt>
<trkpt lat="42.267135" lon="3.254940"><ele>221.4</ele><time>2011-04-30T10:40:15Z</time></trkpt>
<trkpt lat="42.267125" lon="3.254638"><ele>220.8</ele><time>2011-04-30T10:40:20Z</time></trkpt>
<trkpt lat="42.267193" lon="3.254342"><ele>220.3</ele><time>2011-04-30T10:40:25Z</time></trkpt>
<trkpt lat="42.267350" lon="3.254113"><ele>219.8</ele><time>2011-04-30T10:40:30Z</time></trkpt>
<trkpt lat="42.267558" lon="3.253977"><ele>219</ele><time>2011-04-30T10:40:35Z</time></trkpt>
<trkpt lat="42.267792" lon="3.253905"><ele>218.3</ele><time>2011-04-30T10:40:40Z</time></trkpt>
<trkpt lat="42.267982" lon="3.253852"><ele>218.2</ele><time>2011-04-30T10:40:45Z</time></trkpt>
<trkpt lat="42.268112" lon="3.253840"><ele>217.9</ele><time>2011-04-30T10:40:50Z</time></trkpt>
<trkpt lat="42.268197" lon="3.253665"><ele>217.1</ele><time>2011-04-30T10:40:55Z</time></trkpt>
<trkpt lat="42.268047" lon="3.253392"><ele>215.7</ele><time>2011-04-30T10:41:00Z</time></trkpt>
<trkpt lat="42.267872" lon="3.253122"><ele>214.5</ele><time>2011-04-30T10:41:05Z</time></trkpt>
<trkpt lat="42.267788" lon="3.252790"><ele>213.1</ele><time>2011-04-30T10:41:10Z</time></trkpt>
<trkpt lat="42.267892" lon="3.252403"><ele>210.7</ele><time>2011-04-30T10:41:15Z</time></trkpt>
<trkpt lat="42.267955" lon="3.251987"><ele>208.4</ele><time>2011-04-30T10:41:20Z</time></trkpt>
<trkpt lat="42.267918" lon="3.251533"><ele>205.7</ele><time>2011-04-30T10:41:25Z</time></trkpt>
<trkpt lat="42.267688" lon="3.251192"><ele>203.8</ele><time>2011-04-30T10:41:30Z</time></trkpt>
<trkpt lat="42.267467" lon="3.250802"><ele>201.6</ele><time>2011-04-30T10:41:35Z</time></trkpt>
<trkpt lat="42.267223" lon="3.250435"><ele>199.1</ele><time>2011-04-30T10:41:40Z</time></trkpt>
<trkpt lat="42.267232" lon="3.249968"><ele>196.5</ele><time>2011-04-30T10:41:45Z</time></trkpt>
<trkpt lat="42.267398" lon="3.249505"><ele>194.1</ele><time>2011-04-30T10:41:50Z</time></trkpt>
<trkpt lat="42.267590" lon="3.249105"><ele>191.9</ele><time>2011-04-30T10:41:55Z</time></trkpt>
<trkpt lat="42.267353" lon="3.248988"><ele>190.3</ele><time>2011-04-30T10:42:00Z</time></trkpt>
<trkpt lat="42.266980" lon="3.249105"><ele>188.1</ele><time>2011-04-30T10:42:05Z</time></trkpt>
<trkpt lat="42.266617" lon="3.249187"><ele>185.9</ele><time>2011-04-30T10:42:10Z</time></trkpt>
<trkpt lat="42.266220" lon="3.249213"><ele>183.1</ele><time>2011-04-30T10:42:15Z</time></trkpt>
<trkpt lat="42.265815" lon="3.249328"><ele>180.4</ele><time>2011-04-30T10:42:20Z</time></trkpt>
<trkpt lat="42.265418" lon="3.249473"><ele>178.1</ele><time>2011-04-30T10:42:25Z</time></trkpt>
<trkpt lat="42.265018" lon="3.249325"><ele>175.3</ele><time>2011-04-30T10:42:30Z</time></trkpt>
<trkpt lat="42.264683" lon="3.248907"><ele>171.8</ele><time>2011-04-30T10:42:35Z</time></trkpt>
<trkpt lat="42.264332" lon="3.248503"><ele>168</ele><time>2011-04-30T10:42:40Z</time></trkpt>
<trkpt lat="42.264098" lon="3.248135"><ele>164.2</ele><time>2011-04-30T10:42:45Z</time></trkpt>
<trkpt lat="42.264157" lon="3.247652"><ele>160.8</ele><time>2011-04-30T10:42:50Z</time></trkpt>
<trkpt lat="42.263893" lon="3.247408"><ele>157.8</ele><time>2011-04-30T10:42:55Z</time></trkpt>
<trkpt lat="42.263503" lon="3.247293"><ele>154.5</ele><time>2011-04-30T10:43:00Z</time></trkpt>
<trkpt lat="42.263118" lon="3.247057"><ele>150.7</ele><time>2011-04-30T10:43:05Z</time></trkpt>
<trkpt lat="42.262913" lon="3.246652"><ele>147.3</ele><time>2011-04-30T10:43:10Z</time></trkpt>
<trkpt lat="42.262962" lon="3.246145"><ele>144</ele><time>2011-04-30T10:43:15Z</time></trkpt>
<trkpt lat="42.262753" lon="3.245703"><ele>140.4</ele><time>2011-04-30T10:43:20Z</time></trkpt>
<trkpt lat="42.262360" lon="3.245475"><ele>137.1</ele><time>2011-04-30T10:43:25Z</time></trkpt>
<trkpt lat="42.262082" lon="3.245165"><ele>133.8</ele><time>2011-04-30T10:43:30Z</time></trkpt>
<trkpt lat="42.262050" lon="3.244652"><ele>130.6</ele><time>2011-04-30T10:43:35Z</time></trkpt>
<trkpt lat="42.262313" lon="3.244248"><ele>127.3</ele><time>2011-04-30T10:43:40Z</time></trkpt>
<trkpt lat="42.262597" lon="3.243923"><ele>124.1</ele><time>2011-04-30T10:43:45Z</time></trkpt>
<trkpt lat="42.262597" lon="3.243698"><ele>121.6</ele><time>2011-04-30T10:43:50Z</time></trkpt>
<trkpt lat="42.262340" lon="3.243825"><ele>119.6</ele><time>2011-04-30T10:43:55Z</time></trkpt>
<trkpt lat="42.262017" lon="3.244070"><ele>116.4</ele><time>2011-04-30T10:44:00Z</time></trkpt>
<trkpt lat="42.261668" lon="3.244382"><ele>112.4</ele><time>2011-04-30T10:44:05Z</time></trkpt>
<trkpt lat="42.261463" lon="3.244905"><ele>108.6</ele><time>2011-04-30T10:44:10Z</time></trkpt>
<trkpt lat="42.261272" lon="3.245443"><ele>104.3</ele><time>2011-04-30T10:44:15Z</time></trkpt>
<trkpt lat="42.261298" lon="3.245977"><ele>100.9</ele><time>2011-04-30T10:44:20Z</time></trkpt>
<trkpt lat="42.261635" lon="3.246322"><ele>97.2</ele><time>2011-04-30T10:44:25Z</time></trkpt>
<trkpt lat="42.261668" lon="3.246818"><ele>93.7</ele><time>2011-04-30T10:44:30Z</time></trkpt>
<trkpt lat="42.261668" lon="3.247380"><ele>89.6</ele><time>2011-04-30T10:44:35Z</time></trkpt>
<trkpt lat="42.261780" lon="3.247967"><ele>85.4</ele><time>2011-04-30T10:44:40Z</time></trkpt>
<trkpt lat="42.261922" lon="3.248425"><ele>82.2</ele><time>2011-04-30T10:44:45Z</time></trkpt>
<trkpt lat="42.261658" lon="3.248618"><ele>80.5</ele><time>2011-04-30T10:44:50Z</time></trkpt>
<trkpt lat="42.261265" lon="3.248720"><ele>78</ele><time>2011-04-30T10:44:55Z</time></trkpt>
<trkpt lat="42.260860" lon="3.248922"><ele>73.9</ele><time>2011-04-30T10:45:00Z</time></trkpt>
<trkpt lat="42.260448" lon="3.249148"><ele>70.6</ele><time>2011-04-30T10:45:05Z</time></trkpt>
<trkpt lat="42.260143" lon="3.249363"><ele>67.6</ele><time>2011-04-30T10:45:10Z</time></trkpt>
<trkpt lat="42.260158" lon="3.249148"><ele>65.6</ele><time>2011-04-30T10:45:15Z</time></trkpt>
<trkpt lat="42.260475" lon="3.248932"><ele>62.2</ele><time>2011-04-30T10:45:20Z</time></trkpt>
<trkpt lat="42.260792" lon="3.248617"><ele>59.4</ele><time>2011-04-30T10:45:25Z</time></trkpt>
<trkpt lat="42.261090" lon="3.248345"><ele>56.9</ele><time>2011-04-30T10:45:30Z</time></trkpt>
<trkpt lat="42.261215" lon="3.247992"><ele>54.4</ele><time>2011-04-30T10:45:35Z</time></trkpt>
<trkpt lat="42.261017" lon="3.247548"><ele>51.3</ele><time>2011-04-30T10:45:40Z</time></trkpt>
<trkpt lat="42.260857" lon="3.247032"><ele>48.5</ele><time>2011-04-30T10:45:45Z</time></trkpt>
<trkpt lat="42.260495" lon="3.246772"><ele>44.6</ele><time>2011-04-30T10:45:50Z</time></trkpt>
<trkpt lat="42.260315" lon="3.246677"><ele>43</ele><time>2011-04-30T10:45:55Z</time></trkpt>
<trkpt lat="42.260312" lon="3.246682"><ele>42.8</ele><time>2011-04-30T10:46:00Z</time></trkpt>
<trkpt lat="42.260285" lon="3.246668"><ele>42.7</ele><time>2011-04-30T10:46:05Z</time></trkpt>
<trkpt lat="42.260262" lon="3.246668"><ele>43.3</ele><time>2011-04-30T10:46:10Z</time></trkpt>
<trkpt lat="42.260247" lon="3.246665"><ele>43.8</ele><time>2011-04-30T10:46:15Z</time></trkpt>
<trkpt lat="42.260235" lon="3.246662"><ele>43.7</ele><time>2011-04-30T10:46:20Z</time></trkpt>
<trkpt lat="42.260167" lon="3.246647"><ele>43</ele><time>2011-04-30T10:46:25Z</time></trkpt>
<trkpt lat="42.259983" lon="3.246522"><ele>40.9</ele><time>2011-04-30T10:46:30Z</time></trkpt>
<trkpt lat="42.259827" lon="3.246160"><ele>38.7</ele><time>2011-04-30T10:46:35Z</time></trkpt>
<trkpt lat="42.259758" lon="3.245782"><ele>38.8</ele><time>2011-04-30T10:46:40Z</time></trkpt>
<trkpt lat="42.259830" lon="3.245570"><ele>40.1</ele><time>2011-04-30T10:46:45Z</time></trkpt>
<trkpt lat="42.259942" lon="3.245463"><ele>41.1</ele><time>2011-04-30T10:46:50Z</time></trkpt>
<trkpt lat="42.260040" lon="3.245347"><ele>41.4</ele><time>2011-04-30T10:46:55Z</time></trkpt>
<trkpt lat="42.260108" lon="3.245258"><ele>42.2</ele><time>2011-04-30T10:47:00Z</time></trkpt>
<trkpt lat="42.260173" lon="3.245168"><ele>42.9</ele><time>2011-04-30T10:47:05Z</time></trkpt>
<trkpt lat="42.260247" lon="3.245060"><ele>43.7</ele><time>2011-04-30T10:47:10Z</time></trkpt>
<trkpt lat="42.260297" lon="3.244963"><ele>44.5</ele><time>2011-04-30T10:47:15Z</time></trkpt>
<trkpt lat="42.260330" lon="3.244860"><ele>45.1</ele><time>2011-04-30T10:47:20Z</time></trkpt>
<trkpt lat="42.260327" lon="3.244740"><ele>45.7</ele><time>2011-04-30T10:47:25Z</time></trkpt>
<trkpt lat="42.260250" lon="3.244660"><ele>46.3</ele><time>2011-04-30T10:47:30Z</time></trkpt>
<trkpt lat="42.260158" lon="3.244690"><ele>47</ele><time>2011-04-30T10:47:35Z</time></trkpt>
<trkpt lat="42.260090" lon="3.244793"><ele>47.6</ele><time>2011-04-30T10:47:40Z</time></trkpt>
<trkpt lat="42.260033" lon="3.244898"><ele>48.6</ele><time>2011-04-30T10:47:45Z</time></trkpt>
<trkpt lat="42.259983" lon="3.245010"><ele>49.4</ele><time>2011-04-30T10:47:50Z</time></trkpt>
<trkpt lat="42.259918" lon="3.245110"><ele>49.7</ele><time>2011-04-30T10:47:55Z</time></trkpt>
<trkpt lat="42.259830" lon="3.245243"><ele>50</ele><time>2011-04-30T10:48:00Z</time></trkpt>
<trkpt lat="42.259743" lon="3.245345"><ele>50.8</ele><time>2011-04-30T10:48:05Z</time></trkpt>
<trkpt lat="42.259663" lon="3.245450"><ele>51.3</ele><time>2011-04-30T10:48:10Z</time></trkpt>
<trkpt lat="42.259567" lon="3.245525"><ele>51.3</ele><time>2011-04-30T10:48:15Z</time></trkpt>
<trkpt lat="42.259445" lon="3.245563"><ele>51.3</ele><time>2011-04-30T10:48:20Z</time></trkpt>
<trkpt lat="42.259330" lon="3.245545"><ele>51.7</ele><time>2011-04-30T10:48:25Z</time></trkpt>
<trkpt lat="42.259217" lon="3.245510"><ele>51.9</ele><time>2011-04-30T10:48:30Z</time></trkpt>
<trkpt lat="42.259102" lon="3.245460"><ele>51.8</ele><time>2011-04-30T10:48:35Z</time></trkpt>
<trkpt lat="42.258995" lon="3.245432"><ele>52.4</ele><time>2011-04-30T10:48:40Z</time></trkpt>
<trkpt lat="42.258892" lon="3.245498"><ele>52.5</ele><time>2011-04-30T10:48:45Z</time></trkpt>
<trkpt lat="42.258870" lon="3.245647"><ele>53</ele><time>2011-04-30T10:48:50Z</time></trkpt>
<trkpt lat="42.258907" lon="3.245767"><ele>53.7</ele><time>2011-04-30T10:48:55Z</time></trkpt>
<trkpt lat="42.258957" lon="3.245885"><ele>54.4</ele><time>2011-04-30T10:49:00Z</time></trkpt>
<trkpt lat="42.259007" lon="3.245990"><ele>55</ele><time>2011-04-30T10:49:05Z</time></trkpt>
<trkpt lat="42.259048" lon="3.246097"><ele>55.7</ele><time>2011-04-30T10:49:10Z</time></trkpt>
<trkpt lat="42.259068" lon="3.246217"><ele>56.3</ele><time>2011-04-30T10:49:15Z</time></trkpt>
<trkpt lat="42.259075" lon="3.246338"><ele>57.2</ele><time>2011-04-30T10:49:20Z</time></trkpt>
<trkpt lat="42.259083" lon="3.246455"><ele>57.5</ele><time>2011-04-30T10:49:25Z</time></trkpt>
<trkpt lat="42.259095" lon="3.246605"><ele>58</ele><time>2011-04-30T10:49:30Z</time></trkpt>
<trkpt lat="42.259098" lon="3.246730"><ele>58.8</ele><time>2011-04-30T10:49:35Z</time></trkpt>
<trkpt lat="42.259113" lon="3.246857"><ele>59.6</ele><time>2011-04-30T10:49:40Z</time></trkpt>
<trkpt lat="42.259128" lon="3.246990"><ele>60.3</ele><time>2011-04-30T10:49:45Z</time></trkpt>
<trkpt lat="42.259143" lon="3.247125"><ele>61.2</ele><time>2011-04-30T10:49:50Z</time></trkpt>
<trkpt lat="42.259148" lon="3.247252"><ele>62.1</ele><time>2011-04-30T10:49:55Z</time></trkpt>
<trkpt lat="42.259152" lon="3.247377"><ele>62.9</ele><time>2011-04-30T10:50:00Z</time></trkpt>
<trkpt lat="42.259105" lon="3.247485"><ele>64.1</ele><time>2011-04-30T10:50:05Z</time></trkpt>
<trkpt lat="42.259033" lon="3.247553"><ele>65.4</ele><time>2011-04-30T10:50:10Z</time></trkpt>
<trkpt lat="42.258942" lon="3.247617"><ele>65.9</ele><time>2011-04-30T10:50:15Z</time></trkpt>
<trkpt lat="42.258853" lon="3.247652"><ele>67.1</ele><time>2011-04-30T10:50:20Z</time></trkpt>
<trkpt lat="42.258767" lon="3.247662"><ele>68</ele><time>2011-04-30T10:50:25Z</time></trkpt>
<trkpt lat="42.258678" lon="3.247672"><ele>68.9</ele><time>2011-04-30T10:50:30Z</time></trkpt>
<trkpt lat="42.258590" lon="3.247665"><ele>69.6</ele><time>2011-04-30T10:50:35Z</time></trkpt>
<trkpt lat="42.258503" lon="3.247670"><ele>70.3</ele><time>2011-04-30T10:50:40Z</time></trkpt>
<trkpt lat="42.258418" lon="3.247677"><ele>71</ele><time>2011-04-30T10:50:45Z</time></trkpt>
<trkpt lat="42.258335" lon="3.247698"><ele>71.7</ele><time>2011-04-30T10:50:50Z</time></trkpt>
<trkpt lat="42.258263" lon="3.247733"><ele>71.7</ele><time>2011-04-30T10:50:55Z</time></trkpt>
<trkpt lat="42.258198" lon="3.247798"><ele>72.1</ele><time>2011-04-30T10:51:00Z</time></trkpt>
<trkpt lat="42.258113" lon="3.247842"><ele>73</ele><time>2011-04-30T10:51:05Z</time></trkpt>
<trkpt lat="42.258042" lon="3.247893"><ele>73.8</ele><time>2011-04-30T10:51:10Z</time></trkpt>
<trkpt lat="42.257977" lon="3.247962"><ele>74.6</ele><time>2011-04-30T10:51:15Z</time></trkpt>
<trkpt lat="42.257908" lon="3.248052"><ele>75.1</ele><time>2011-04-30T10:51:20Z</time></trkpt>
<trkpt lat="42.257840" lon="3.248165"><ele>75.6</ele><time>2011-04-30T10:51:25Z</time></trkpt>
<trkpt lat="42.257752" lon="3.248288"><ele>75.9</ele><time>2011-04-30T10:51:30Z</time></trkpt>
<trkpt lat="42.257648" lon="3.248412"><ele>76.1</ele><time>2011-04-30T10:51:35Z</time></trkpt>
<trkpt lat="42.257530" lon="3.248542"><ele>76.2</ele><time>2011-04-30T10:51:40Z</time></trkpt>
<trkpt lat="42.257420" lon="3.248682"><ele>77.1</ele><time>2011-04-30T10:51:45Z</time></trkpt>
<trkpt lat="42.257328" lon="3.248798"><ele>78</ele><time>2011-04-30T10:51:50Z</time></trkpt>
<trkpt lat="42.257255" lon="3.248903"><ele>78.8</ele><time>2011-04-30T10:51:55Z</time></trkpt>
<trkpt lat="42.257183" lon="3.249005"><ele>79.2</ele><time>2011-04-30T10:52:00Z</time></trkpt>
<trkpt lat="42.257110" lon="3.249097"><ele>80</ele><time>2011-04-30T10:52:05Z</time></trkpt>
<trkpt lat="42.257030" lon="3.249190"><ele>80.7</ele><time>2011-04-30T10:52:10Z</time></trkpt>
<trkpt lat="42.256943" lon="3.249267"><ele>81.2</ele><time>2011-04-30T10:52:15Z</time></trkpt>
<trkpt lat="42.256832" lon="3.249297"><ele>81.7</ele><time>2011-04-30T10:52:20Z</time></trkpt>
<trkpt lat="42.256725" lon="3.249272"><ele>82.2</ele><time>2011-04-30T10:52:25Z</time></trkpt>
<trkpt lat="42.256607" lon="3.249205"><ele>82.5</ele><time>2011-04-30T10:52:30Z</time></trkpt>
<trkpt lat="42.256527" lon="3.249118"><ele>83.4</ele><time>2011-04-30T10:52:35Z</time></trkpt>
<trkpt lat="42.256473" lon="3.248992"><ele>84.5</ele><time>2011-04-30T10:52:40Z</time></trkpt>
<trkpt lat="42.256435" lon="3.248847"><ele>84.6</ele><time>2011-04-30T10:52:45Z</time></trkpt>
<trkpt lat="42.256417" lon="3.248692"><ele>84.9</ele><time>2011-04-30T10:52:50Z</time></trkpt>
<trkpt lat="42.256367" lon="3.248558"><ele>85.5</ele><time>2011-04-30T10:52:55Z</time></trkpt>
<trkpt lat="42.256257" lon="3.248467"><ele>85.5</ele><time>2011-04-30T10:53:00Z</time></trkpt>
<trkpt lat="42.256142" lon="3.248450"><ele>86.3</ele><time>2011-04-30T10:53:05Z</time></trkpt>
<trkpt lat="42.256027" lon="3.248503"><ele>87.4</ele><time>2011-04-30T10:53:10Z</time></trkpt>
<trkpt lat="42.255920" lon="3.248557"><ele>88.6</ele><time>2011-04-30T10:53:15Z</time></trkpt>
<trkpt lat="42.255817" lon="3.248603"><ele>89.4</ele><time>2011-04-30T10:53:20Z</time></trkpt>
<trkpt lat="42.255703" lon="3.248648"><ele>90</ele><time>2011-04-30T10:53:25Z</time></trkpt>
<trkpt lat="42.255600" lon="3.248710"><ele>91</ele><time>2011-04-30T10:53:30Z</time></trkpt>
<trkpt lat="42.255508" lon="3.248800"><ele>92</ele><time>2011-04-30T10:53:35Z</time></trkpt>
<trkpt lat="42.255428" lon="3.248902"><ele>92.8</ele><time>2011-04-30T10:53:40Z</time></trkpt>
<trkpt lat="42.255333" lon="3.248985"><ele>93.9</ele><time>2011-04-30T10:53:45Z</time></trkpt>
<trkpt lat="42.255233" lon="3.249073"><ele>95</ele><time>2011-04-30T10:53:50Z</time></trkpt>
<trkpt lat="42.255142" lon="3.249168"><ele>95.8</ele><time>2011-04-30T10:53:55Z</time></trkpt>
<trkpt lat="42.255040" lon="3.249250"><ele>97.1</ele><time>2011-04-30T10:54:00Z</time></trkpt>
<trkpt lat="42.254937" lon="3.249300"><ele>98</ele><time>2011-04-30T10:54:05Z</time></trkpt>
<trkpt lat="42.254825" lon="3.249347"><ele>98.8</ele><time>2011-04-30T10:54:10Z</time></trkpt>
<trkpt lat="42.254715" lon="3.249387"><ele>99.7</ele><time>2011-04-30T10:54:15Z</time></trkpt>
<trkpt lat="42.254605" lon="3.249413"><ele>100.6</ele><time>2011-04-30T10:54:20Z</time></trkpt>
<trkpt lat="42.254490" lon="3.249448"><ele>101.3</ele><time>2011-04-30T10:54:25Z</time></trkpt>
<trkpt lat="42.254380" lon="3.249463"><ele>102.1</ele><time>2011-04-30T10:54:30Z</time></trkpt>
<trkpt lat="42.254257" lon="3.249457"><ele>102.7</ele><time>2011-04-30T10:54:35Z</time></trkpt>
<trkpt lat="42.254158" lon="3.249390"><ele>103.7</ele><time>2011-04-30T10:54:40Z</time></trkpt>
<trkpt lat="42.254063" lon="3.249293"><ele>104.6</ele><time>2011-04-30T10:54:45Z</time></trkpt>
<trkpt lat="42.253983" lon="3.249175"><ele>105.5</ele><time>2011-04-30T10:54:50Z</time></trkpt>
<trkpt lat="42.253928" lon="3.249078"><ele>105.6</ele><time>2011-04-30T10:54:55Z</time></trkpt>
<trkpt lat="42.253865" lon="3.248975"><ele>105.2</ele><time>2011-04-30T10:55:00Z</time></trkpt>
<trkpt lat="42.253753" lon="3.248813"><ele>104</ele><time>2011-04-30T10:55:05Z</time></trkpt>
<trkpt lat="42.253597" lon="3.248588"><ele>102.5</ele><time>2011-04-30T10:55:10Z</time></trkpt>
<trkpt lat="42.253413" lon="3.248342"><ele>101.6</ele><time>2011-04-30T10:55:15Z</time></trkpt>
<trkpt lat="42.253365" lon="3.248035"><ele>100.6</ele><time>2011-04-30T10:55:20Z</time></trkpt>
<trkpt lat="42.253350" lon="3.247750"><ele>100</ele><time>2011-04-30T10:55:25Z</time></trkpt>
<trkpt lat="42.253113" lon="3.247773"><ele>99.3</ele><time>2011-04-30T10:55:30Z</time></trkpt>
<trkpt lat="42.252862" lon="3.247857"><ele>98.3</ele><time>2011-04-30T10:55:35Z</time></trkpt>
<trkpt lat="42.252602" lon="3.247752"><ele>96.9</ele><time>2011-04-30T10:55:40Z</time></trkpt>
<trkpt lat="42.252560" lon="3.247403"><ele>96.4</ele><time>2011-04-30T10:55:45Z</time></trkpt>
<trkpt lat="42.252613" lon="3.247130"><ele>96.4</ele><time>2011-04-30T10:55:50Z</time></trkpt>
<trkpt lat="42.252472" lon="3.247035"><ele>96.3</ele><time>2011-04-30T10:55:55Z</time></trkpt>
<trkpt lat="42.252240" lon="3.247252"><ele>95.4</ele><time>2011-04-30T10:56:00Z</time></trkpt>
<trkpt lat="42.251977" lon="3.247465"><ele>93.8</ele><time>2011-04-30T10:56:05Z</time></trkpt>
<trkpt lat="42.251682" lon="3.247607"><ele>92.4</ele><time>2011-04-30T10:56:10Z</time></trkpt>
<trkpt lat="42.251338" lon="3.247638"><ele>90.6</ele><time>2011-04-30T10:56:15Z</time></trkpt>
<trkpt lat="42.250965" lon="3.247705"><ele>88.8</ele><time>2011-04-30T10:56:20Z</time></trkpt>
<trkpt lat="42.250583" lon="3.247817"><ele>86.7</ele><time>2011-04-30T10:56:25Z</time></trkpt>
<trkpt lat="42.250313" lon="3.248190"><ele>84.4</ele><time>2011-04-30T10:56:30Z</time></trkpt>
<trkpt lat="42.250030" lon="3.248525"><ele>82.6</ele><time>2011-04-30T10:56:35Z</time></trkpt>
<trkpt lat="42.249638" lon="3.248605"><ele>80.4</ele><time>2011-04-30T10:56:40Z</time></trkpt>
<trkpt lat="42.249355" lon="3.248972"><ele>78</ele><time>2011-04-30T10:56:45Z</time></trkpt>
<trkpt lat="42.249138" lon="3.249410"><ele>75.5</ele><time>2011-04-30T10:56:50Z</time></trkpt>
<trkpt lat="42.248772" lon="3.249550"><ele>73.3</ele><time>2011-04-30T10:56:55Z</time></trkpt>
<trkpt lat="42.248485" lon="3.249182"><ele>71.3</ele><time>2011-04-30T10:57:00Z</time></trkpt>
<trkpt lat="42.248333" lon="3.248657"><ele>69.2</ele><time>2011-04-30T10:57:05Z</time></trkpt>
<trkpt lat="42.248257" lon="3.248087"><ele>67.4</ele><time>2011-04-30T10:57:10Z</time></trkpt>
<trkpt lat="42.248195" lon="3.247577"><ele>65.1</ele><time>2011-04-30T10:57:15Z</time></trkpt>
<trkpt lat="42.247842" lon="3.247503"><ele>63.6</ele><time>2011-04-30T10:57:20Z</time></trkpt>
<trkpt lat="42.247765" lon="3.247237"><ele>61.3</ele><time>2011-04-30T10:57:25Z</time></trkpt>
<trkpt lat="42.247932" lon="3.246788"><ele>59.1</ele><time>2011-04-30T10:57:30Z</time></trkpt>
<trkpt lat="42.248168" lon="3.246443"><ele>57.2</ele><time>2011-04-30T10:57:35Z</time></trkpt>
<trkpt lat="42.248458" lon="3.246233"><ele>55.7</ele><time>2011-04-30T10:57:40Z</time></trkpt>
<trkpt lat="42.248780" lon="3.246275"><ele>53.8</ele><time>2011-04-30T10:57:45Z</time></trkpt>
<trkpt lat="42.249088" lon="3.246433"><ele>52.1</ele><time>2011-04-30T10:57:50Z</time></trkpt>
<trkpt lat="42.249420" lon="3.246327"><ele>50.5</ele><time>2011-04-30T10:57:55Z</time></trkpt>
<trkpt lat="42.249675" lon="3.245997"><ele>48.2</ele><time>2011-04-30T10:58:00Z</time></trkpt>
<trkpt lat="42.249955" lon="3.245693"><ele>46.1</ele><time>2011-04-30T10:58:05Z</time></trkpt>
<trkpt lat="42.250293" lon="3.245545"><ele>44.3</ele><time>2011-04-30T10:58:10Z</time></trkpt>
<trkpt lat="42.250637" lon="3.245448"><ele>42.5</ele><time>2011-04-30T10:58:15Z</time></trkpt>
<trkpt lat="42.250968" lon="3.245435"><ele>40.9</ele><time>2011-04-30T10:58:20Z</time></trkpt>
<trkpt lat="42.251113" lon="3.245032"><ele>38.9</ele><time>2011-04-30T10:58:25Z</time></trkpt>
<trkpt lat="42.251003" lon="3.244560"><ele>36.4</ele><time>2011-04-30T10:58:30Z</time></trkpt>
<trkpt lat="42.251193" lon="3.244130"><ele>34.3</ele><time>2011-04-30T10:58:35Z</time></trkpt>
<trkpt lat="42.251483" lon="3.243813"><ele>32.5</ele><time>2011-04-30T10:58:40Z</time></trkpt>
<trkpt lat="42.251682" lon="3.243482"><ele>31.8</ele><time>2011-04-30T10:58:45Z</time></trkpt>
<trkpt lat="42.251530" lon="3.243230"><ele>31.6</ele><time>2011-04-30T10:58:50Z</time></trkpt>
<trkpt lat="42.251290" lon="3.243260"><ele>31.7</ele><time>2011-04-30T10:58:55Z</time></trkpt>
<trkpt lat="42.251080" lon="3.243147"><ele>32.1</ele><time>2011-04-30T10:59:00Z</time></trkpt>
<trkpt lat="42.250930" lon="3.242963"><ele>33</ele><time>2011-04-30T10:59:05Z</time></trkpt>
<trkpt lat="42.250808" lon="3.242785"><ele>33.9</ele><time>2011-04-30T10:59:10Z</time></trkpt>
<trkpt lat="42.250705" lon="3.242613"><ele>34.9</ele><time>2011-04-30T10:59:15Z</time></trkpt>
<trkpt lat="42.250683" lon="3.242385"><ele>35.4</ele><time>2011-04-30T10:59:20Z</time></trkpt>
<trkpt lat="42.250702" lon="3.242130"><ele>35.7</ele><time>2011-04-30T10:59:25Z</time></trkpt>
<trkpt lat="42.250802" lon="3.241885"><ele>35.3</ele><time>2011-04-30T10:59:30Z</time></trkpt>
<trkpt lat="42.250977" lon="3.241647"><ele>34.8</ele><time>2011-04-30T10:59:35Z</time></trkpt>
<trkpt lat="42.251152" lon="3.241350"><ele>33.8</ele><time>2011-04-30T10:59:40Z</time></trkpt>
<trkpt lat="42.251355" lon="3.241038"><ele>32.7</ele><time>2011-04-30T10:59:45Z</time></trkpt>
<trkpt lat="42.251522" lon="3.240690"><ele>31.7</ele><time>2011-04-30T10:59:50Z</time></trkpt>
<trkpt lat="42.251660" lon="3.240330"><ele>30.2</ele><time>2011-04-30T10:59:55Z</time></trkpt>
<trkpt lat="42.251800" lon="3.239973"><ele>28.9</ele><time>2011-04-30T11:00:00Z</time></trkpt>
<trkpt lat="42.251873" lon="3.239532"><ele>26.6</ele><time>2011-04-30T11:00:05Z</time></trkpt>
<trkpt lat="42.252057" lon="3.239153"><ele>25.2</ele><time>2011-04-30T11:00:10Z</time></trkpt>
<trkpt lat="42.252235" lon="3.238775"><ele>23.6</ele><time>2011-04-30T11:00:15Z</time></trkpt>
<trkpt lat="42.252057" lon="3.238445"><ele>23.4</ele><time>2011-04-30T11:00:20Z</time></trkpt>
<trkpt lat="42.251842" lon="3.238407"><ele>24</ele><time>2011-04-30T11:00:25Z</time></trkpt>
<trkpt lat="42.251735" lon="3.238313"><ele>24.9</ele><time>2011-04-30T11:00:30Z</time></trkpt>
<trkpt lat="42.251675" lon="3.238162"><ele>25.8</ele><time>2011-04-30T11:00:35Z</time></trkpt>
<trkpt lat="42.251613" lon="3.238007"><ele>26.9</ele><time>2011-04-30T11:00:40Z</time></trkpt>
<trkpt lat="42.251533" lon="3.237885"><ele>27.7</ele><time>2011-04-30T11:00:45Z</time></trkpt>
<trkpt lat="42.251442" lon="3.237797"><ele>28.3</ele><time>2011-04-30T11:00:50Z</time></trkpt>
<trkpt lat="42.251338" lon="3.237732"><ele>29</ele><time>2011-04-30T11:00:55Z</time></trkpt>
<trkpt lat="42.251247" lon="3.237680"><ele>29.7</ele><time>2011-04-30T11:01:00Z</time></trkpt>
<trkpt lat="42.251148" lon="3.237642"><ele>30.6</ele><time>2011-04-30T11:01:05Z</time></trkpt>
<trkpt lat="42.251022" lon="3.237627"><ele>31.2</ele><time>2011-04-30T11:01:10Z</time></trkpt>
<trkpt lat="42.250908" lon="3.237622"><ele>31.9</ele><time>2011-04-30T11:01:15Z</time></trkpt>
<trkpt lat="42.250802" lon="3.237580"><ele>32.9</ele><time>2011-04-30T11:01:20Z</time></trkpt>
<trkpt lat="42.250695" lon="3.237547"><ele>33.7</ele><time>2011-04-30T11:01:25Z</time></trkpt>
<trkpt lat="42.250583" lon="3.237518"><ele>34.5</ele><time>2011-04-30T11:01:30Z</time></trkpt>
<trkpt lat="42.250473" lon="3.237497"><ele>35.5</ele><time>2011-04-30T11:01:35Z</time></trkpt>
<trkpt lat="42.250352" lon="3.237437"><ele>36</ele><time>2011-04-30T11:01:40Z</time></trkpt>
<trkpt lat="42.250243" lon="3.237368"><ele>36.7</ele><time>2011-04-30T11:01:45Z</time></trkpt>
<trkpt lat="42.250133" lon="3.237303"><ele>37.2</ele><time>2011-04-30T11:01:50Z</time></trkpt>
<trkpt lat="42.250018" lon="3.237253"><ele>38.2</ele><time>2011-04-30T11:01:55Z</time></trkpt>
<trkpt lat="42.249905" lon="3.237207"><ele>39</ele><time>2011-04-30T11:02:00Z</time></trkpt>
<trkpt lat="42.249790" lon="3.237173"><ele>40.1</ele><time>2011-04-30T11:02:05Z</time></trkpt>
<trkpt lat="42.249672" lon="3.237147"><ele>41</ele><time>2011-04-30T11:02:10Z</time></trkpt>
<trkpt lat="42.249557" lon="3.237135"><ele>41.9</ele><time>2011-04-30T11:02:15Z</time></trkpt>
<trkpt lat="42.249447" lon="3.237143"><ele>43.2</ele><time>2011-04-30T11:02:20Z</time></trkpt>
<trkpt lat="42.249343" lon="3.237098"><ele>44</ele><time>2011-04-30T11:02:25Z</time></trkpt>
<trkpt lat="42.249272" lon="3.237053"><ele>44.6</ele><time>2011-04-30T11:02:30Z</time></trkpt>
<trkpt lat="42.249210" lon="3.237015"><ele>45.3</ele><time>2011-04-30T11:02:35Z</time></trkpt>
<trkpt lat="42.249207" lon="3.237015"><ele>45.3</ele><time>2011-04-30T11:02:40Z</time></trkpt>
<trkpt lat="42.249203" lon="3.237017"><ele>45.4</ele><time>2011-04-30T11:02:45Z</time></trkpt>
<trkpt lat="42.249207" lon="3.237020"><ele>45.5</ele><time>2011-04-30T11:02:50Z</time></trkpt>
<trkpt lat="42.249207" lon="3.237018"><ele>45.6</ele><time>2011-04-30T11:02:55Z</time></trkpt>
<trkpt lat="42.249195" lon="3.237005"><ele>45.6</ele><time>2011-04-30T11:03:00Z</time></trkpt>
<trkpt lat="42.249107" lon="3.236917"><ele>46.3</ele><time>2011-04-30T11:03:05Z</time></trkpt>
<trkpt lat="42.249023" lon="3.236883"><ele>47</ele><time>2011-04-30T11:03:10Z</time></trkpt>
<trkpt lat="42.248935" lon="3.236843"><ele>47.7</ele><time>2011-04-30T11:03:15Z</time></trkpt>
<trkpt lat="42.248872" lon="3.236767"><ele>48.5</ele><time>2011-04-30T11:03:20Z</time></trkpt>
<trkpt lat="42.248837" lon="3.236625"><ele>49.3</ele><time>2011-04-30T11:03:25Z</time></trkpt>
<trkpt lat="42.248843" lon="3.236493"><ele>49.6</ele><time>2011-04-30T11:03:30Z</time></trkpt>
<trkpt lat="42.248905" lon="3.236350"><ele>49.6</ele><time>2011-04-30T11:03:35Z</time></trkpt>
<trkpt lat="42.249008" lon="3.236160"><ele>49.9</ele><time>2011-04-30T11:03:40Z</time></trkpt>
<trkpt lat="42.249107" lon="3.235962"><ele>50.3</ele><time>2011-04-30T11:03:45Z</time></trkpt>
<trkpt lat="42.249237" lon="3.235793"><ele>50.9</ele><time>2011-04-30T11:03:50Z</time></trkpt>
<trkpt lat="42.249390" lon="3.235612"><ele>50.7</ele><time>2011-04-30T11:03:55Z</time></trkpt>
<trkpt lat="42.249553" lon="3.235397"><ele>50.5</ele><time>2011-04-30T11:04:00Z</time></trkpt>
<trkpt lat="42.249588" lon="3.235080"><ele>49.8</ele><time>2011-04-30T11:04:05Z</time></trkpt>
<trkpt lat="42.249455" lon="3.234792"><ele>48.1</ele><time>2011-04-30T11:04:10Z</time></trkpt>
<trkpt lat="42.249332" lon="3.234407"><ele>46.5</ele><time>2011-04-30T11:04:15Z</time></trkpt>
<trkpt lat="42.249322" lon="3.233940"><ele>44.9</ele><time>2011-04-30T11:04:20Z</time></trkpt>
<trkpt lat="42.249390" lon="3.233482"><ele>43.9</ele><time>2011-04-30T11:04:25Z</time></trkpt>
<trkpt lat="42.249467" lon="3.233043"><ele>42.3</ele><time>2011-04-30T11:04:30Z</time></trkpt>
<trkpt lat="42.249615" lon="3.232707"><ele>41.1</ele><time>2011-04-30T11:04:35Z</time></trkpt>
<trkpt lat="42.249885" lon="3.232518"><ele>39.3</ele><time>2011-04-30T11:04:40Z</time></trkpt>
<trkpt lat="42.250172" lon="3.232330"><ele>37.4</ele><time>2011-04-30T11:04:45Z</time></trkpt>
<trkpt lat="42.250423" lon="3.232070"><ele>35.3</ele><time>2011-04-30T11:04:50Z</time></trkpt>
<trkpt lat="42.250560" lon="3.231643"><ele>33.8</ele><time>2011-04-30T11:04:55Z</time></trkpt>
<trkpt lat="42.250813" lon="3.231287"><ele>31.2</ele><time>2011-04-30T11:05:00Z</time></trkpt>
<trkpt lat="42.251113" lon="3.231043"><ele>28.7</ele><time>2011-04-30T11:05:05Z</time></trkpt>
<trkpt lat="42.251385" lon="3.230783"><ele>26.3</ele><time>2011-04-30T11:05:10Z</time></trkpt>
<trkpt lat="42.251643" lon="3.230447"><ele>23.8</ele><time>2011-04-30T11:05:15Z</time></trkpt>
<trkpt lat="42.251847" lon="3.230045"><ele>22.2</ele><time>2011-04-30T11:05:20Z</time></trkpt>
<trkpt lat="42.251972" lon="3.229555"><ele>19.9</ele><time>2011-04-30T11:05:25Z</time></trkpt>
<trkpt lat="42.252300" lon="3.229243"><ele>18.3</ele><time>2011-04-30T11:05:30Z</time></trkpt>
<trkpt lat="42.252525" lon="3.228815"><ele>18.1</ele><time>2011-04-30T11:05:35Z</time></trkpt>
<trkpt lat="42.252708" lon="3.228413"><ele>17.2</ele><time>2011-04-30T11:05:40Z</time></trkpt>
<trkpt lat="42.252823" lon="3.228070"><ele>16.5</ele><time>2011-04-30T11:05:45Z</time></trkpt>
<trkpt lat="42.252895" lon="3.227748"><ele>16</ele><time>2011-04-30T11:05:50Z</time></trkpt>
<trkpt lat="42.253022" lon="3.227463"><ele>15</ele><time>2011-04-30T11:05:55Z</time></trkpt>
<trkpt lat="42.253155" lon="3.227208"><ele>14.1</ele><time>2011-04-30T11:06:00Z</time></trkpt>
<trkpt lat="42.253185" lon="3.226870"><ele>13.3</ele><time>2011-04-30T11:06:05Z</time></trkpt>
<trkpt lat="42.253147" lon="3.226498"><ele>12.8</ele><time>2011-04-30T11:06:10Z</time></trkpt>
<trkpt lat="42.253052" lon="3.226188"><ele>12.2</ele><time>2011-04-30T11:06:15Z</time></trkpt>
<trkpt lat="42.252888" lon="3.225947"><ele>12.5</ele><time>2011-04-30T11:06:20Z</time></trkpt>
<trkpt lat="42.252685" lon="3.225783"><ele>13.1</ele><time>2011-04-30T11:06:25Z</time></trkpt>
<trkpt lat="42.252445" lon="3.225737"><ele>13.8</ele><time>2011-04-30T11:06:30Z</time></trkpt>
<trkpt lat="42.252255" lon="3.225708"><ele>14.4</ele><time>2011-04-30T11:06:35Z</time></trkpt>
<trkpt lat="42.252060" lon="3.225735"><ele>14.2</ele><time>2011-04-30T11:06:40Z</time></trkpt>
<trkpt lat="42.251853" lon="3.225783"><ele>14.8</ele><time>2011-04-30T11:06:45Z</time></trkpt>
<trkpt lat="42.251693" lon="3.225793"><ele>15.1</ele><time>2011-04-30T11:06:50Z</time></trkpt>
<trkpt lat="42.251533" lon="3.225793"><ele>15.4</ele><time>2011-04-30T11:06:55Z</time></trkpt>
<trkpt lat="42.251388" lon="3.225790"><ele>15.8</ele><time>2011-04-30T11:07:00Z</time></trkpt>
<trkpt lat="42.251243" lon="3.225812"><ele>17.4</ele><time>2011-04-30T11:07:05Z</time></trkpt>
<trkpt lat="42.251102" lon="3.225822"><ele>18.2</ele><time>2011-04-30T11:07:10Z</time></trkpt>
<trkpt lat="42.250965" lon="3.225853"><ele>19.2</ele><time>2011-04-30T11:07:15Z</time></trkpt>
<trkpt lat="42.250835" lon="3.225890"><ele>19.7</ele><time>2011-04-30T11:07:20Z</time></trkpt>
<trkpt lat="42.250710" lon="3.225900"><ele>19.7</ele><time>2011-04-30T11:07:25Z</time></trkpt>
<trkpt lat="42.250595" lon="3.225918"><ele>20.2</ele><time>2011-04-30T11:07:30Z</time></trkpt>
<trkpt lat="42.250477" lon="3.225927"><ele>20.7</ele><time>2011-04-30T11:07:35Z</time></trkpt>
<trkpt lat="42.250355" lon="3.225935"><ele>21.1</ele><time>2011-04-30T11:07:40Z</time></trkpt>
<trkpt lat="42.250243" lon="3.225958"><ele>21.7</ele><time>2011-04-30T11:07:45Z</time></trkpt>
<trkpt lat="42.250148" lon="3.226002"><ele>22.5</ele><time>2011-04-30T11:07:50Z</time></trkpt>
<trkpt lat="42.250045" lon="3.226067"><ele>23.3</ele><time>2011-04-30T11:07:55Z</time></trkpt>
<trkpt lat="42.249938" lon="3.226100"><ele>24.2</ele><time>2011-04-30T11:08:00Z</time></trkpt>
<trkpt lat="42.249832" lon="3.226083"><ele>24.9</ele><time>2011-04-30T11:08:05Z</time></trkpt>
<trkpt lat="42.249733" lon="3.226015"><ele>25.9</ele><time>2011-04-30T11:08:10Z</time></trkpt>
<trkpt lat="42.249683" lon="3.225915"><ele>27.7</ele><time>2011-04-30T11:08:15Z</time></trkpt>
<trkpt lat="42.249653" lon="3.225793"><ele>28.5</ele><time>2011-04-30T11:08:20Z</time></trkpt>
<trkpt lat="42.249615" lon="3.225660"><ele>29.2</ele><time>2011-04-30T11:08:25Z</time></trkpt>
<trkpt lat="42.249568" lon="3.225543"><ele>30.3</ele><time>2011-04-30T11:08:30Z</time></trkpt>
<trkpt lat="42.249515" lon="3.225418"><ele>30.7</ele><time>2011-04-30T11:08:35Z</time></trkpt>
<trkpt lat="42.249450" lon="3.225322"><ele>32</ele><time>2011-04-30T11:08:40Z</time></trkpt>
<trkpt lat="42.249378" lon="3.225227"><ele>33.5</ele><time>2011-04-30T11:08:45Z</time></trkpt>
<trkpt lat="42.249302" lon="3.225138"><ele>34.3</ele><time>2011-04-30T11:08:50Z</time></trkpt>
<trkpt lat="42.249210" lon="3.225052"><ele>34.8</ele><time>2011-04-30T11:08:55Z</time></trkpt>
<trkpt lat="42.249130" lon="3.224955"><ele>34.7</ele><time>2011-04-30T11:09:00Z</time></trkpt>
<trkpt lat="42.249062" lon="3.224855"><ele>35.5</ele><time>2011-04-30T11:09:05Z</time></trkpt>
<trkpt lat="42.249008" lon="3.224752"><ele>35.6</ele><time>2011-04-30T11:09:10Z</time></trkpt>
<trkpt lat="42.248958" lon="3.224642"><ele>35.8</ele><time>2011-04-30T11:09:15Z</time></trkpt>
<trkpt lat="42.248917" lon="3.224528"><ele>35.8</ele><time>2011-04-30T11:09:20Z</time></trkpt>
<trkpt lat="42.248872" lon="3.224427"><ele>36</ele><time>2011-04-30T11:09:25Z</time></trkpt>
<trkpt lat="42.248798" lon="3.224345"><ele>36.5</ele><time>2011-04-30T11:09:30Z</time></trkpt>
<trkpt lat="42.248707" lon="3.224322"><ele>36.9</ele><time>2011-04-30T11:09:35Z</time></trkpt>
<trkpt lat="42.248603" lon="3.224347"><ele>38</ele><time>2011-04-30T11:09:40Z</time></trkpt>
<trkpt lat="42.248517" lon="3.224363"><ele>38.3</ele><time>2011-04-30T11:09:45Z</time></trkpt>
<trkpt lat="42.248425" lon="3.224397"><ele>38.3</ele><time>2011-04-30T11:09:50Z</time></trkpt>
<trkpt lat="42.248357" lon="3.224507"><ele>38.9</ele><time>2011-04-30T11:09:55Z</time></trkpt>
<trkpt lat="42.248325" lon="3.224617"><ele>40.3</ele><time>2011-04-30T11:10:00Z</time></trkpt>
<trkpt lat="42.248337" lon="3.224733"><ele>41.8</ele><time>2011-04-30T11:10:05Z</time></trkpt>
<trkpt lat="42.248333" lon="3.224855"><ele>42.7</ele><time>2011-04-30T11:10:10Z</time></trkpt>
<trkpt lat="42.248325" lon="3.224982"><ele>43.6</ele><time>2011-04-30T11:10:15Z</time></trkpt>
<trkpt lat="42.248310" lon="3.225090"><ele>44.3</ele><time>2011-04-30T11:10:20Z</time></trkpt>
<trkpt lat="42.248310" lon="3.225235"><ele>45.1</ele><time>2011-04-30T11:10:25Z</time></trkpt>
<trkpt lat="42.248295" lon="3.225365"><ele>45.6</ele><time>2011-04-30T11:10:30Z</time></trkpt>
<trkpt lat="42.248287" lon="3.225482"><ele>46.3</ele><time>2011-04-30T11:10:35Z</time></trkpt>
<trkpt lat="42.248280" lon="3.225600"><ele>47.1</ele><time>2011-04-30T11:10:40Z</time></trkpt>
<trkpt lat="42.248272" lon="3.225718"><ele>47.7</ele><time>2011-04-30T11:10:45Z</time></trkpt>
<trkpt lat="42.248260" lon="3.225835"><ele>48.2</ele><time>2011-04-30T11:10:50Z</time></trkpt>
<trkpt lat="42.248257" lon="3.225955"><ele>48.7</ele><time>2011-04-30T11:10:55Z</time></trkpt>
<trkpt lat="42.248245" lon="3.226088"><ele>49.3</ele><time>2011-04-30T11:11:00Z</time></trkpt>
<trkpt lat="42.248222" lon="3.226210"><ele>50.1</ele><time>2011-04-30T11:11:05Z</time></trkpt>
<trkpt lat="42.248185" lon="3.226325"><ele>50.4</ele><time>2011-04-30T11:11:10Z</time></trkpt>
<trkpt lat="42.248130" lon="3.226437"><ele>50.9</ele><time>2011-04-30T11:11:15Z</time></trkpt>
<trkpt lat="42.248082" lon="3.226537"><ele>51.3</ele><time>2011-04-30T11:11:20Z</time></trkpt>
<trkpt lat="42.248017" lon="3.226608"><ele>51.6</ele><time>2011-04-30T11:11:25Z</time></trkpt>
<trkpt lat="42.247943" lon="3.226683"><ele>52</ele><time>2011-04-30T11:11:30Z</time></trkpt>
<trkpt lat="42.247863" lon="3.226748"><ele>52.5</ele><time>2011-04-30T11:11:35Z</time></trkpt>
<trkpt lat="42.247768" lon="3.226803"><ele>53.1</ele><time>2011-04-30T11:11:40Z</time></trkpt>
<trkpt lat="42.247673" lon="3.226837"><ele>53.7</ele><time>2011-04-30T11:11:45Z</time></trkpt>
<trkpt lat="42.247582" lon="3.226860"><ele>54.2</ele><time>2011-04-30T11:11:50Z</time></trkpt>
<trkpt lat="42.247493" lon="3.226887"><ele>54.7</ele><time>2011-04-30T11:11:55Z</time></trkpt>
<trkpt lat="42.247402" lon="3.226912"><ele>55.2</ele><time>2011-04-30T11:12:00Z</time></trkpt>
<trkpt lat="42.247315" lon="3.226935"><ele>55.8</ele><time>2011-04-30T11:12:05Z</time></trkpt>
<trkpt lat="42.247223" lon="3.226962"><ele>56.5</ele><time>2011-04-30T11:12:10Z</time></trkpt>
<trkpt lat="42.247138" lon="3.226988"><ele>57.1</ele><time>2011-04-30T11:12:15Z</time></trkpt>
<trkpt lat="42.247052" lon="3.227037"><ele>57.6</ele><time>2011-04-30T11:12:20Z</time></trkpt>
<trkpt lat="42.246983" lon="3.227110"><ele>58.2</ele><time>2011-04-30T11:12:25Z</time></trkpt>
<trkpt lat="42.246918" lon="3.227193"><ele>58.9</ele><time>2011-04-30T11:12:30Z</time></trkpt>
<trkpt lat="42.246853" lon="3.227280"><ele>59.8</ele><time>2011-04-30T11:12:35Z</time></trkpt>
<trkpt lat="42.246785" lon="3.227348"><ele>60.2</ele><time>2011-04-30T11:12:40Z</time></trkpt>
<trkpt lat="42.246697" lon="3.227417"><ele>60.8</ele><time>2011-04-30T11:12:45Z</time></trkpt>
<trkpt lat="42.246602" lon="3.227458"><ele>61.3</ele><time>2011-04-30T11:12:50Z</time></trkpt>
<trkpt lat="42.246505" lon="3.227485"><ele>61.8</ele><time>2011-04-30T11:12:55Z</time></trkpt>
<trkpt lat="42.246415" lon="3.227503"><ele>62</ele><time>2011-04-30T11:13:00Z</time></trkpt>
<trkpt lat="42.246323" lon="3.227535"><ele>62.4</ele><time>2011-04-30T11:13:05Z</time></trkpt>
<trkpt lat="42.246235" lon="3.227560"><ele>62.8</ele><time>2011-04-30T11:13:10Z</time></trkpt>
<trkpt lat="42.246147" lon="3.227603"><ele>63.2</ele><time>2011-04-30T11:13:15Z</time></trkpt>
<trkpt lat="42.246072" lon="3.227672"><ele>63.7</ele><time>2011-04-30T11:13:20Z</time></trkpt>
<trkpt lat="42.245990" lon="3.227745"><ele>64.4</ele><time>2011-04-30T11:13:25Z</time></trkpt>
<trkpt lat="42.245918" lon="3.227823"><ele>65.5</ele><time>2011-04-30T11:13:30Z</time></trkpt>
<trkpt lat="42.245850" lon="3.227900"><ele>66.2</ele><time>2011-04-30T11:13:35Z</time></trkpt>
<trkpt lat="42.245777" lon="3.227972"><ele>66.9</ele><time>2011-04-30T11:13:40Z</time></trkpt>
<trkpt lat="42.245682" lon="3.228023"><ele>67.6</ele><time>2011-04-30T11:13:45Z</time></trkpt>
<trkpt lat="42.245587" lon="3.228028"><ele>68.1</ele><time>2011-04-30T11:13:50Z</time></trkpt>
<trkpt lat="42.245498" lon="3.227985"><ele>68.6</ele><time>2011-04-30T11:13:55Z</time></trkpt>
<trkpt lat="42.245422" lon="3.227907"><ele>69.2</ele><time>2011-04-30T11:14:00Z</time></trkpt>
<trkpt lat="42.245368" lon="3.227793"><ele>69.9</ele><time>2011-04-30T11:14:05Z</time></trkpt>
<trkpt lat="42.245350" lon="3.227667"><ele>70.5</ele><time>2011-04-30T11:14:10Z</time></trkpt>
<trkpt lat="42.245362" lon="3.227550"><ele>71.2</ele><time>2011-04-30T11:14:15Z</time></trkpt>
<trkpt lat="42.245388" lon="3.227435"><ele>71.9</ele><time>2011-04-30T11:14:20Z</time></trkpt>
<trkpt lat="42.245422" lon="3.227325"><ele>72.8</ele><time>2011-04-30T11:14:25Z</time></trkpt>
<trkpt lat="42.245457" lon="3.227215"><ele>73.5</ele><time>2011-04-30T11:14:30Z</time></trkpt>
<trkpt lat="42.245487" lon="3.227103"><ele>74.1</ele><time>2011-04-30T11:14:35Z</time></trkpt>
<trkpt lat="42.245525" lon="3.226990"><ele>74.6</ele><time>2011-04-30T11:14:40Z</time></trkpt>
<trkpt lat="42.245560" lon="3.226875"><ele>75.1</ele><time>2011-04-30T11:14:45Z</time></trkpt>
<trkpt lat="42.245590" lon="3.226763"><ele>75.6</ele><time>2011-04-30T11:14:50Z</time></trkpt>
<trkpt lat="42.245620" lon="3.226648"><ele>76.2</ele><time>2011-04-30T11:14:55Z</time></trkpt>
<trkpt lat="42.245647" lon="3.226535"><ele>76.7</ele><time>2011-04-30T11:15:00Z</time></trkpt>
<trkpt lat="42.245667" lon="3.226423"><ele>77.4</ele><time>2011-04-30T11:15:05Z</time></trkpt>
<trkpt lat="42.245682" lon="3.226303"><ele>78.1</ele><time>2011-04-30T11:15:10Z</time></trkpt>
<trkpt lat="42.245693" lon="3.226187"><ele>78.8</ele><time>2011-04-30T11:15:15Z</time></trkpt>
<trkpt lat="42.245705" lon="3.226068"><ele>79.6</ele><time>2011-04-30T11:15:20Z</time></trkpt>
<trkpt lat="42.245717" lon="3.225945"><ele>80.3</ele><time>2011-04-30T11:15:25Z</time></trkpt>
<trkpt lat="42.245728" lon="3.225825"><ele>81.1</ele><time>2011-04-30T11:15:30Z</time></trkpt>
<trkpt lat="42.245738" lon="3.225703"><ele>81.8</ele><time>2011-04-30T11:15:35Z</time></trkpt>
<trkpt lat="42.245738" lon="3.225580"><ele>82.4</ele><time>2011-04-30T11:15:40Z</time></trkpt>
<trkpt lat="42.245743" lon="3.225463"><ele>83.1</ele><time>2011-04-30T11:15:45Z</time></trkpt>
<trkpt lat="42.245738" lon="3.225345"><ele>83.9</ele><time>2011-04-30T11:15:50Z</time></trkpt>
<trkpt lat="42.245738" lon="3.225227"><ele>84.7</ele><time>2011-04-30T11:15:55Z</time></trkpt>
<trkpt lat="42.245735" lon="3.225105"><ele>85.1</ele><time>2011-04-30T11:16:00Z</time></trkpt>
<trkpt lat="42.245747" lon="3.225008"><ele>85.4</ele><time>2011-04-30T11:16:05Z</time></trkpt>
<trkpt lat="42.245747" lon="3.224875"><ele>86</ele><time>2011-04-30T11:16:10Z</time></trkpt>
<trkpt lat="42.245732" lon="3.224732"><ele>86.6</ele><time>2011-04-30T11:16:15Z</time></trkpt>
<trkpt lat="42.245720" lon="3.224612"><ele>87.2</ele><time>2011-04-30T11:16:20Z</time></trkpt>
<trkpt lat="42.245705" lon="3.224498"><ele>88</ele><time>2011-04-30T11:16:25Z</time></trkpt>
<trkpt lat="42.245682" lon="3.224385"><ele>88.5</ele><time>2011-04-30T11:16:30Z</time></trkpt>
<trkpt lat="42.245643" lon="3.224277"><ele>89.1</ele><time>2011-04-30T11:16:35Z</time></trkpt>
<trkpt lat="42.245598" lon="3.224170"><ele>89.8</ele><time>2011-04-30T11:16:40Z</time></trkpt>
<trkpt lat="42.245548" lon="3.224058"><ele>90.4</ele><time>2011-04-30T11:16:45Z</time></trkpt>
<trkpt lat="42.245492" lon="3.223933"><ele>91.1</ele><time>2011-04-30T11:16:50Z</time></trkpt>
<trkpt lat="42.245453" lon="3.223807"><ele>91.7</ele><time>2011-04-30T11:16:55Z</time></trkpt>
<trkpt lat="42.245415" lon="3.223680"><ele>92.6</ele><time>2011-04-30T11:17:00Z</time></trkpt>
<trkpt lat="42.245395" lon="3.223545"><ele>93.5</ele><time>2011-04-30T11:17:05Z</time></trkpt>
<trkpt lat="42.245388" lon="3.223418"><ele>94.3</ele><time>2011-04-30T11:17:10Z</time></trkpt>
<trkpt lat="42.245377" lon="3.223295"><ele>95.3</ele><time>2011-04-30T11:17:15Z</time></trkpt>
<trkpt lat="42.245365" lon="3.223168"><ele>96.2</ele><time>2011-04-30T11:17:20Z</time></trkpt>
<trkpt lat="42.245358" lon="3.223047"><ele>97.3</ele><time>2011-04-30T11:17:25Z</time></trkpt>
<trkpt lat="42.245347" lon="3.222925"><ele>98.2</ele><time>2011-04-30T11:17:30Z</time></trkpt>
<trkpt lat="42.245323" lon="3.222807"><ele>98.7</ele><time>2011-04-30T11:17:35Z</time></trkpt>
<trkpt lat="42.245273" lon="3.222705"><ele>100.1</ele><time>2011-04-30T11:17:40Z</time></trkpt>
<trkpt lat="42.245213" lon="3.222615"><ele>100.7</ele><time>2011-04-30T11:17:45Z</time></trkpt>
<trkpt lat="42.245128" lon="3.222558"><ele>101.6</ele><time>2011-04-30T11:17:50Z</time></trkpt>
<trkpt lat="42.245042" lon="3.222543"><ele>102.4</ele><time>2011-04-30T11:17:55Z</time></trkpt>
<trkpt lat="42.244950" lon="3.222552"><ele>102.8</ele><time>2011-04-30T11:18:00Z</time></trkpt>
<trkpt lat="42.244853" lon="3.222563"><ele>103.2</ele><time>2011-04-30T11:18:05Z</time></trkpt>
<trkpt lat="42.244762" lon="3.222575"><ele>103.5</ele><time>2011-04-30T11:18:10Z</time></trkpt>
<trkpt lat="42.244672" lon="3.222588"><ele>103.9</ele><time>2011-04-30T11:18:15Z</time></trkpt>
<trkpt lat="42.244580" lon="3.222602"><ele>104</ele><time>2011-04-30T11:18:20Z</time></trkpt>
<trkpt lat="42.244492" lon="3.222612"><ele>104.4</ele><time>2011-04-30T11:18:25Z</time></trkpt>
<trkpt lat="42.244400" lon="3.222618"><ele>104.7</ele><time>2011-04-30T11:18:30Z</time></trkpt>
<trkpt lat="42.244308" lon="3.222607"><ele>105.2</ele><time>2011-04-30T11:18:35Z</time></trkpt>
<trkpt lat="42.244217" lon="3.222585"><ele>105.7</ele><time>2011-04-30T11:18:40Z</time></trkpt>
<trkpt lat="42.244118" lon="3.222550"><ele>106.1</ele><time>2011-04-30T11:18:45Z</time></trkpt>
<trkpt lat="42.244038" lon="3.222500"><ele>106.7</ele><time>2011-04-30T11:18:50Z</time></trkpt>
<trkpt lat="42.243977" lon="3.222437"><ele>107.9</ele><time>2011-04-30T11:18:55Z</time></trkpt>
<trkpt lat="42.243920" lon="3.222343"><ele>109.1</ele><time>2011-04-30T11:19:00Z</time></trkpt>
<trkpt lat="42.243867" lon="3.222230"><ele>110.3</ele><time>2011-04-30T11:19:05Z</time></trkpt>
<trkpt lat="42.243832" lon="3.222113"><ele>111.2</ele><time>2011-04-30T11:19:10Z</time></trkpt>
<trkpt lat="42.243813" lon="3.221988"><ele>112</ele><time>2011-04-30T11:19:15Z</time></trkpt>
<trkpt lat="42.243793" lon="3.221872"><ele>113.1</ele><time>2011-04-30T11:19:20Z</time></trkpt>
<trkpt lat="42.243793" lon="3.221747"><ele>113.5</ele><time>2011-04-30T11:19:25Z</time></trkpt>
<trkpt lat="42.243793" lon="3.221620"><ele>114</ele><time>2011-04-30T11:19:30Z</time></trkpt>
<trkpt lat="42.243802" lon="3.221497"><ele>114.4</ele><time>2011-04-30T11:19:35Z</time></trkpt>
<trkpt lat="42.243828" lon="3.221407"><ele>114.7</ele><time>2011-04-30T11:19:40Z</time></trkpt>
<trkpt lat="42.243858" lon="3.221292"><ele>115.2</ele><time>2011-04-30T11:19:45Z</time></trkpt>
<trkpt lat="42.243888" lon="3.221160"><ele>115.7</ele><time>2011-04-30T11:19:50Z</time></trkpt>
<trkpt lat="42.243923" lon="3.221022"><ele>116.4</ele><time>2011-04-30T11:19:55Z</time></trkpt>
<trkpt lat="42.243958" lon="3.220883"><ele>117.3</ele><time>2011-04-30T11:20:00Z</time></trkpt>
<trkpt lat="42.243995" lon="3.220763"><ele>118</ele><time>2011-04-30T11:20:05Z</time></trkpt>
<trkpt lat="42.244042" lon="3.220670"><ele>118.3</ele><time>2011-04-30T11:20:10Z</time></trkpt>
<trkpt lat="42.244068" lon="3.220542"><ele>118.8</ele><time>2011-04-30T11:20:15Z</time></trkpt>
<trkpt lat="42.244065" lon="3.220402"><ele>119.7</ele><time>2011-04-30T11:20:20Z</time></trkpt>
<trkpt lat="42.244038" lon="3.220262"><ele>120.7</ele><time>2011-04-30T11:20:25Z</time></trkpt>
<trkpt lat="42.244007" lon="3.220138"><ele>122.6</ele><time>2011-04-30T11:20:30Z</time></trkpt>
<trkpt lat="42.243962" lon="3.220025"><ele>124.6</ele><time>2011-04-30T11:20:35Z</time></trkpt>
<trkpt lat="42.243930" lon="3.219895"><ele>128</ele><time>2011-04-30T11:20:40Z</time></trkpt>
<trkpt lat="42.243927" lon="3.219757"><ele>129.9</ele><time>2011-04-30T11:20:45Z</time></trkpt>
<trkpt lat="42.243965" lon="3.219623"><ele>128.9</ele><time>2011-04-30T11:20:50Z</time></trkpt>
<trkpt lat="42.244045" lon="3.219512"><ele>126.2</ele><time>2011-04-30T11:20:55Z</time></trkpt>
<trkpt lat="42.244145" lon="3.219447"><ele>126.7</ele><time>2011-04-30T11:21:00Z</time></trkpt>
<trkpt lat="42.244243" lon="3.219468"><ele>129.1</ele><time>2011-04-30T11:21:05Z</time></trkpt>
<trkpt lat="42.244332" lon="3.219495"><ele>131.1</ele><time>2011-04-30T11:21:10Z</time></trkpt>
<trkpt lat="42.244427" lon="3.219470"><ele>131.9</ele><time>2011-04-30T11:21:15Z</time></trkpt>
<trkpt lat="42.244510" lon="3.219397"><ele>130.8</ele><time>2011-04-30T11:21:20Z</time></trkpt>
<trkpt lat="42.244572" lon="3.219288"><ele>130.3</ele><time>2011-04-30T11:21:25Z</time></trkpt>
<trkpt lat="42.244595" lon="3.219167"><ele>130.5</ele><time>2011-04-30T11:21:30Z</time></trkpt>
<trkpt lat="42.244575" lon="3.219055"><ele>131.5</ele><time>2011-04-30T11:21:35Z</time></trkpt>
<trkpt lat="42.244537" lon="3.218943"><ele>132.7</ele><time>2011-04-30T11:21:40Z</time></trkpt>
<trkpt lat="42.244462" lon="3.218868"><ele>134.1</ele><time>2011-04-30T11:21:45Z</time></trkpt>
<trkpt lat="42.244358" lon="3.218828"><ele>133.1</ele><time>2011-04-30T11:21:50Z</time></trkpt>
<trkpt lat="42.244270" lon="3.218852"><ele>132.9</ele><time>2011-04-30T11:21:55Z</time></trkpt>
<trkpt lat="42.244183" lon="3.218910"><ele>133</ele><time>2011-04-30T11:22:00Z</time></trkpt>
<trkpt lat="42.244098" lon="3.218970"><ele>133.2</ele><time>2011-04-30T11:22:05Z</time></trkpt>
<trkpt lat="42.244018" lon="3.219032"><ele>133.4</ele><time>2011-04-30T11:22:10Z</time></trkpt>
<trkpt lat="42.243938" lon="3.219082"><ele>133.6</ele><time>2011-04-30T11:22:15Z</time></trkpt>
<trkpt lat="42.243843" lon="3.219143"><ele>134</ele><time>2011-04-30T11:22:20Z</time></trkpt>
<trkpt lat="42.243743" lon="3.219185"><ele>134.5</ele><time>2011-04-30T11:22:25Z</time></trkpt>
<trkpt lat="42.243652" lon="3.219210"><ele>135.2</ele><time>2011-04-30T11:22:30Z</time></trkpt>
<trkpt lat="42.243560" lon="3.219237"><ele>135.6</ele><time>2011-04-30T11:22:35Z</time></trkpt>
<trkpt lat="42.243470" lon="3.219252"><ele>136</ele><time>2011-04-30T11:22:40Z</time></trkpt>
<trkpt lat="42.243367" lon="3.219260"><ele>136.5</ele><time>2011-04-30T11:22:45Z</time></trkpt>
<trkpt lat="42.243245" lon="3.219255"><ele>137.1</ele><time>2011-04-30T11:22:50Z</time></trkpt>
<trkpt lat="42.243133" lon="3.219230"><ele>137.6</ele><time>2011-04-30T11:22:55Z</time></trkpt>
<trkpt lat="42.243027" lon="3.219183"><ele>138.3</ele><time>2011-04-30T11:23:00Z</time></trkpt>
<trkpt lat="42.242928" lon="3.219112"><ele>139</ele><time>2011-04-30T11:23:05Z</time></trkpt>
<trkpt lat="42.242843" lon="3.219010"><ele>139.8</ele><time>2011-04-30T11:23:10Z</time></trkpt>
<trkpt lat="42.242775" lon="3.218893"><ele>140.7</ele><time>2011-04-30T11:23:15Z</time></trkpt>
<trkpt lat="42.242725" lon="3.218762"><ele>141.5</ele><time>2011-04-30T11:23:20Z</time></trkpt>
<trkpt lat="42.242683" lon="3.218630"><ele>142.3</ele><time>2011-04-30T11:23:25Z</time></trkpt>
<trkpt lat="42.242648" lon="3.218507"><ele>142.9</ele><time>2011-04-30T11:23:30Z</time></trkpt>
<trkpt lat="42.242612" lon="3.218388"><ele>143.6</ele><time>2011-04-30T11:23:35Z</time></trkpt>
<trkpt lat="42.242568" lon="3.218277"><ele>144.3</ele><time>2011-04-30T11:23:40Z</time></trkpt>
<trkpt lat="42.242523" lon="3.218162"><ele>144.9</ele><time>2011-04-30T11:23:45Z</time></trkpt>
<trkpt lat="42.242488" lon="3.218048"><ele>145.5</ele><time>2011-04-30T11:23:50Z</time></trkpt>
<trkpt lat="42.242443" lon="3.217937"><ele>146.3</ele><time>2011-04-30T11:23:55Z</time></trkpt>
<trkpt lat="42.242370" lon="3.217852"><ele>146.9</ele><time>2011-04-30T11:24:00Z</time></trkpt>
<trkpt lat="42.242287" lon="3.217803"><ele>147.7</ele><time>2011-04-30T11:24:05Z</time></trkpt>
<trkpt lat="42.242188" lon="3.217807"><ele>148.4</ele><time>2011-04-30T11:24:10Z</time></trkpt>
<trkpt lat="42.242088" lon="3.217825"><ele>149.1</ele><time>2011-04-30T11:24:15Z</time></trkpt>
<trkpt lat="42.241988" lon="3.217842"><ele>149.8</ele><time>2011-04-30T11:24:20Z</time></trkpt>
<trkpt lat="42.241890" lon="3.217860"><ele>150.4</ele><time>2011-04-30T11:24:25Z</time></trkpt>
<trkpt lat="42.241787" lon="3.217875"><ele>150.9</ele><time>2011-04-30T11:24:30Z</time></trkpt>
<trkpt lat="42.241683" lon="3.217880"><ele>151.5</ele><time>2011-04-30T11:24:35Z</time></trkpt>
<trkpt lat="42.241588" lon="3.217860"><ele>151.7</ele><time>2011-04-30T11:24:40Z</time></trkpt>
<trkpt lat="42.241478" lon="3.217795"><ele>152.2</ele><time>2011-04-30T11:24:45Z</time></trkpt>
<trkpt lat="42.241387" lon="3.217698"><ele>153.2</ele><time>2011-04-30T11:24:50Z</time></trkpt>
<trkpt lat="42.241325" lon="3.217572"><ele>154.3</ele><time>2011-04-30T11:24:55Z</time></trkpt>
<trkpt lat="42.241268" lon="3.217457"><ele>154.7</ele><time>2011-04-30T11:25:00Z</time></trkpt>
<trkpt lat="42.241215" lon="3.217335"><ele>154.7</ele><time>2011-04-30T11:25:05Z</time></trkpt>
<trkpt lat="42.241153" lon="3.217220"><ele>155.1</ele><time>2011-04-30T11:25:10Z</time></trkpt>
<trkpt lat="42.241100" lon="3.217105"><ele>155.5</ele><time>2011-04-30T11:25:15Z</time></trkpt>
<trkpt lat="42.241043" lon="3.216983"><ele>156.1</ele><time>2011-04-30T11:25:20Z</time></trkpt>
<trkpt lat="42.240982" lon="3.216865"><ele>156.7</ele><time>2011-04-30T11:25:25Z</time></trkpt>
<trkpt lat="42.240922" lon="3.216745"><ele>157.4</ele><time>2011-04-30T11:25:30Z</time></trkpt>
<trkpt lat="42.240863" lon="3.216613"><ele>158.3</ele><time>2011-04-30T11:25:35Z</time></trkpt>
<trkpt lat="42.240825" lon="3.216465"><ele>159.1</ele><time>2011-04-30T11:25:40Z</time></trkpt>
<trkpt lat="42.240825" lon="3.216310"><ele>159.9</ele><time>2011-04-30T11:25:45Z</time></trkpt>
<trkpt lat="42.240860" lon="3.216153"><ele>160.5</ele><time>2011-04-30T11:25:50Z</time></trkpt>
<trkpt lat="42.240940" lon="3.216038"><ele>161.1</ele><time>2011-04-30T11:25:55Z</time></trkpt>
<trkpt lat="42.241032" lon="3.215967"><ele>161.8</ele><time>2011-04-30T11:26:00Z</time></trkpt>
<trkpt lat="42.241135" lon="3.215938"><ele>162.4</ele><time>2011-04-30T11:26:05Z</time></trkpt>
<trkpt lat="42.241245" lon="3.215928"><ele>162.9</ele><time>2011-04-30T11:26:10Z</time></trkpt>
<trkpt lat="42.241357" lon="3.215907"><ele>163.6</ele><time>2011-04-30T11:26:15Z</time></trkpt>
<trkpt lat="42.241470" lon="3.215898"><ele>164.3</ele><time>2011-04-30T11:26:20Z</time></trkpt>
<trkpt lat="42.241582" lon="3.215878"><ele>164.9</ele><time>2011-04-30T11:26:25Z</time></trkpt>
<trkpt lat="42.241700" lon="3.215855"><ele>165.4</ele><time>2011-04-30T11:26:30Z</time></trkpt>
<trkpt lat="42.241822" lon="3.215883"><ele>166</ele><time>2011-04-30T11:26:35Z</time></trkpt>
<trkpt lat="42.241928" lon="3.215930"><ele>166.6</ele><time>2011-04-30T11:26:40Z</time></trkpt>
<trkpt lat="42.242027" lon="3.215970"><ele>167.1</ele><time>2011-04-30T11:26:45Z</time></trkpt>
<trkpt lat="42.242118" lon="3.216017"><ele>167.8</ele><time>2011-04-30T11:26:50Z</time></trkpt>
<trkpt lat="42.242222" lon="3.216045"><ele>168.3</ele><time>2011-04-30T11:26:55Z</time></trkpt>
<trkpt lat="42.242325" lon="3.216055"><ele>168.6</ele><time>2011-04-30T11:27:00Z</time></trkpt>
<trkpt lat="42.242428" lon="3.216060"><ele>169.2</ele><time>2011-04-30T11:27:05Z</time></trkpt>
<trkpt lat="42.242530" lon="3.216058"><ele>169.7</ele><time>2011-04-30T11:27:10Z</time></trkpt>
<trkpt lat="42.242633" lon="3.216030"><ele>170.2</ele><time>2011-04-30T11:27:15Z</time></trkpt>
<trkpt lat="42.242730" lon="3.215962"><ele>170.7</ele><time>2011-04-30T11:27:20Z</time></trkpt>
<trkpt lat="42.242820" lon="3.215868"><ele>171.1</ele><time>2011-04-30T11:27:25Z</time></trkpt>
<trkpt lat="42.242905" lon="3.215767"><ele>171.6</ele><time>2011-04-30T11:27:30Z</time></trkpt>
<trkpt lat="42.242992" lon="3.215665"><ele>172.1</ele><time>2011-04-30T11:27:35Z</time></trkpt>
<trkpt lat="42.243088" lon="3.215553"><ele>172.7</ele><time>2011-04-30T11:27:40Z</time></trkpt>
<trkpt lat="42.243198" lon="3.215445"><ele>173.1</ele><time>2011-04-30T11:27:45Z</time></trkpt>
<trkpt lat="42.243313" lon="3.215357"><ele>173.1</ele><time>2011-04-30T11:27:50Z</time></trkpt>
<trkpt lat="42.243465" lon="3.215320"><ele>172.8</ele><time>2011-04-30T11:27:55Z</time></trkpt>
<trkpt lat="42.243622" lon="3.215323"><ele>172.6</ele><time>2011-04-30T11:28:00Z</time></trkpt>
<trkpt lat="42.243817" lon="3.215347"><ele>172.1</ele><time>2011-04-30T11:28:05Z</time></trkpt>
<trkpt lat="42.244045" lon="3.215387"><ele>171.1</ele><time>2011-04-30T11:28:10Z</time></trkpt>
<trkpt lat="42.244252" lon="3.215560"><ele>169.9</ele><time>2011-04-30T11:28:15Z</time></trkpt>
<trkpt lat="42.244388" lon="3.215837"><ele>169.1</ele><time>2011-04-30T11:28:20Z</time></trkpt>
<trkpt lat="42.244488" lon="3.216122"><ele>168.2</ele><time>2011-04-30T11:28:25Z</time></trkpt>
<trkpt lat="42.244598" lon="3.216420"><ele>167.3</ele><time>2011-04-30T11:28:30Z</time></trkpt>
<trkpt lat="42.244717" lon="3.216648"><ele>167.3</ele><time>2011-04-30T11:28:35Z</time></trkpt>
<trkpt lat="42.244885" lon="3.216777"><ele>167.4</ele><time>2011-04-30T11:28:40Z</time></trkpt>
<trkpt lat="42.245048" lon="3.216795"><ele>167.9</ele><time>2011-04-30T11:28:45Z</time></trkpt>
<trkpt lat="42.245175" lon="3.216727"><ele>168.5</ele><time>2011-04-30T11:28:50Z</time></trkpt>
<trkpt lat="42.245277" lon="3.216630"><ele>169.4</ele><time>2011-04-30T11:28:55Z</time></trkpt>
<trkpt lat="42.245358" lon="3.216507"><ele>170.1</ele><time>2011-04-30T11:29:00Z</time></trkpt>
<trkpt lat="42.245448" lon="3.216372"><ele>170.9</ele><time>2011-04-30T11:29:05Z</time></trkpt>
<trkpt lat="42.245552" lon="3.216233"><ele>171.6</ele><time>2011-04-30T11:29:10Z</time></trkpt>
<trkpt lat="42.245652" lon="3.216108"><ele>172.5</ele><time>2011-04-30T11:29:15Z</time></trkpt>
<trkpt lat="42.245755" lon="3.216003"><ele>173.3</ele><time>2011-04-30T11:29:20Z</time></trkpt>
<trkpt lat="42.245880" lon="3.215920"><ele>174.1</ele><time>2011-04-30T11:29:25Z</time></trkpt>
<trkpt lat="42.246007" lon="3.215857"><ele>174.9</ele><time>2011-04-30T11:29:30Z</time></trkpt>
<trkpt lat="42.246125" lon="3.215785"><ele>175.9</ele><time>2011-04-30T11:29:35Z</time></trkpt>
<trkpt lat="42.246232" lon="3.215680"><ele>176.8</ele><time>2011-04-30T11:29:40Z</time></trkpt>
<trkpt lat="42.246307" lon="3.215540"><ele>177.7</ele><time>2011-04-30T11:29:45Z</time></trkpt>
<trkpt lat="42.246368" lon="3.215380"><ele>178.6</ele><time>2011-04-30T11:29:50Z</time></trkpt>
<trkpt lat="42.246442" lon="3.215220"><ele>179.4</ele><time>2011-04-30T11:29:55Z</time></trkpt>
<trkpt lat="42.246537" lon="3.215080"><ele>180.3</ele><time>2011-04-30T11:30:00Z</time></trkpt>
<trkpt lat="42.246647" lon="3.215007"><ele>181.1</ele><time>2011-04-30T11:30:05Z</time></trkpt>
<trkpt lat="42.246750" lon="3.214950"><ele>181.8</ele><time>2011-04-30T11:30:10Z</time></trkpt>
<trkpt lat="42.246857" lon="3.214910"><ele>182.6</ele><time>2011-04-30T11:30:15Z</time></trkpt>
<trkpt lat="42.246960" lon="3.214850"><ele>183.5</ele><time>2011-04-30T11:30:20Z</time></trkpt>
<trkpt lat="42.247063" lon="3.214763"><ele>184.4</ele><time>2011-04-30T11:30:25Z</time></trkpt>
<trkpt lat="42.247165" lon="3.214673"><ele>185.2</ele><time>2011-04-30T11:30:30Z</time></trkpt>
<trkpt lat="42.247257" lon="3.214593"><ele>186.1</ele><time>2011-04-30T11:30:35Z</time></trkpt>
<trkpt lat="42.247372" lon="3.214557"><ele>187</ele><time>2011-04-30T11:30:40Z</time></trkpt>
<trkpt lat="42.247475" lon="3.214593"><ele>188.1</ele><time>2011-04-30T11:30:45Z</time></trkpt>
<trkpt lat="42.247573" lon="3.214682"><ele>189.2</ele><time>2011-04-30T11:30:50Z</time></trkpt>
<trkpt lat="42.247707" lon="3.214748"><ele>189.8</ele><time>2011-04-30T11:30:55Z</time></trkpt>
<trkpt lat="42.247837" lon="3.214723"><ele>190.4</ele><time>2011-04-30T11:31:00Z</time></trkpt>
<trkpt lat="42.247958" lon="3.214643"><ele>190.8</ele><time>2011-04-30T11:31:05Z</time></trkpt>
<trkpt lat="42.248070" lon="3.214560"><ele>191.1</ele><time>2011-04-30T11:31:10Z</time></trkpt>
<trkpt lat="42.248180" lon="3.214475"><ele>191.6</ele><time>2011-04-30T11:31:15Z</time></trkpt>
<trkpt lat="42.248302" lon="3.214405"><ele>191.9</ele><time>2011-04-30T11:31:20Z</time></trkpt>
<trkpt lat="42.248443" lon="3.214315"><ele>192.1</ele><time>2011-04-30T11:31:25Z</time></trkpt>
<trkpt lat="42.248597" lon="3.214183"><ele>192.1</ele><time>2011-04-30T11:31:30Z</time></trkpt>
<trkpt lat="42.248763" lon="3.214023"><ele>192</ele><time>2011-04-30T11:31:35Z</time></trkpt>
<trkpt lat="42.248940" lon="3.213817"><ele>191.6</ele><time>2011-04-30T11:31:40Z</time></trkpt>
<trkpt lat="42.249107" lon="3.213577"><ele>191.1</ele><time>2011-04-30T11:31:45Z</time></trkpt>
<trkpt lat="42.249263" lon="3.213358"><ele>190.8</ele><time>2011-04-30T11:31:50Z</time></trkpt>
<trkpt lat="42.249467" lon="3.213205"><ele>190.9</ele><time>2011-04-30T11:31:55Z</time></trkpt>
<trkpt lat="42.249695" lon="3.213107"><ele>191</ele><time>2011-04-30T11:32:00Z</time></trkpt>
<trkpt lat="42.249837" lon="3.212785"><ele>190.2</ele><time>2011-04-30T11:32:05Z</time></trkpt>
<trkpt lat="42.249847" lon="3.212362"><ele>189.5</ele><time>2011-04-30T11:32:10Z</time></trkpt>
<trkpt lat="42.250023" lon="3.212037"><ele>188.8</ele><time>2011-04-30T11:32:15Z</time></trkpt>
<trkpt lat="42.250248" lon="3.211750"><ele>187.9</ele><time>2011-04-30T11:32:20Z</time></trkpt>
<trkpt lat="42.250512" lon="3.211487"><ele>187</ele><time>2011-04-30T11:32:25Z</time></trkpt>
<trkpt lat="42.250808" lon="3.211402"><ele>186.8</ele><time>2011-04-30T11:32:30Z</time></trkpt>
<trkpt lat="42.251060" lon="3.211540"><ele>186.9</ele><time>2011-04-30T11:32:35Z</time></trkpt>
<trkpt lat="42.251293" lon="3.211675"><ele>187.2</ele><time>2011-04-30T11:32:40Z</time></trkpt>
<trkpt lat="42.251518" lon="3.211682"><ele>187.8</ele><time>2011-04-30T11:32:45Z</time></trkpt>
<trkpt lat="42.251648" lon="3.211435"><ele>187.8</ele><time>2011-04-30T11:32:50Z</time></trkpt>
<trkpt lat="42.251778" lon="3.211140"><ele>187.4</ele><time>2011-04-30T11:32:55Z</time></trkpt>
<trkpt lat="42.251977" lon="3.210860"><ele>186.5</ele><time>2011-04-30T11:33:00Z</time></trkpt>
<trkpt lat="42.252228" lon="3.210608"><ele>185.6</ele><time>2011-04-30T11:33:05Z</time></trkpt>
<trkpt lat="42.252385" lon="3.210262"><ele>184.9</ele><time>2011-04-30T11:33:10Z</time></trkpt>
<trkpt lat="42.252170" lon="3.209952"><ele>184.2</ele><time>2011-04-30T11:33:15Z</time></trkpt>
<trkpt lat="42.251892" lon="3.209717"><ele>183.8</ele><time>2011-04-30T11:33:20Z</time></trkpt>
<trkpt lat="42.251805" lon="3.209250"><ele>183.1</ele><time>2011-04-30T11:33:25Z</time></trkpt>
<trkpt lat="42.251797" lon="3.208745"><ele>181.5</ele><time>2011-04-30T11:33:30Z</time></trkpt>
<trkpt lat="42.252083" lon="3.208450"><ele>180.2</ele><time>2011-04-30T11:33:35Z</time></trkpt>
<trkpt lat="42.252460" lon="3.208543"><ele>179.9</ele><time>2011-04-30T11:33:40Z</time></trkpt>
<trkpt lat="42.252758" lon="3.208810"><ele>179.6</ele><time>2011-04-30T11:33:45Z</time></trkpt>
<trkpt lat="42.253033" lon="3.208737"><ele>179.5</ele><time>2011-04-30T11:33:50Z</time></trkpt>
<trkpt lat="42.253208" lon="3.208448"><ele>179.7</ele><time>2011-04-30T11:33:55Z</time></trkpt>
<trkpt lat="42.253357" lon="3.208128"><ele>179.4</ele><time>2011-04-30T11:34:00Z</time></trkpt>
<trkpt lat="42.253350" lon="3.207742"><ele>179.3</ele><time>2011-04-30T11:34:05Z</time></trkpt>
<trkpt lat="42.253410" lon="3.207338"><ele>178.3</ele><time>2011-04-30T11:34:10Z</time></trkpt>
<trkpt lat="42.253540" lon="3.206932"><ele>176.4</ele><time>2011-04-30T11:34:15Z</time></trkpt>
<trkpt lat="42.253640" lon="3.206572"><ele>174.3</ele><time>2011-04-30T11:34:20Z</time></trkpt>
<trkpt lat="42.253720" lon="3.206245"><ele>172.5</ele><time>2011-04-30T11:34:25Z</time></trkpt>
<trkpt lat="42.253747" lon="3.206093"><ele>171.6</ele><time>2011-04-30T11:34:30Z</time></trkpt>
<trkpt lat="42.253812" lon="3.206097"><ele>172</ele><time>2011-04-30T11:34:35Z</time></trkpt>
<trkpt lat="42.253815" lon="3.206107"><ele>171.9</ele><time>2011-04-30T11:34:40Z</time></trkpt>
<trkpt lat="42.253818" lon="3.206118"><ele>172.2</ele><time>2011-04-30T11:34:45Z</time></trkpt>
<trkpt lat="42.253815" lon="3.206125"><ele>172.1</ele><time>2011-04-30T11:34:50Z</time></trkpt>
<trkpt lat="42.253842" lon="3.206160"><ele>172.6</ele><time>2011-04-30T11:34:55Z</time></trkpt>
<trkpt lat="42.253848" lon="3.206168"><ele>172.7</ele><time>2011-04-30T11:35:00Z</time></trkpt>
<trkpt lat="42.253845" lon="3.206172"><ele>173</ele><time>2011-04-30T11:35:05Z</time></trkpt>
<trkpt lat="42.253857" lon="3.206185"><ele>173.3</ele><time>2011-04-30T11:35:10Z</time></trkpt>
<trkpt lat="42.253898" lon="3.206203"><ele>173.9</ele><time>2011-04-30T11:35:15Z</time></trkpt>
<trkpt lat="42.253990" lon="3.206260"><ele>175.2</ele><time>2011-04-30T11:35:20Z</time></trkpt>
<trkpt lat="42.254085" lon="3.206302"><ele>176.6</ele><time>2011-04-30T11:35:25Z</time></trkpt>
<trkpt lat="42.254185" lon="3.206337"><ele>177.9</ele><time>2011-04-30T11:35:30Z</time></trkpt>
<trkpt lat="42.254272" lon="3.206363"><ele>179.1</ele><time>2011-04-30T11:35:35Z</time></trkpt>
<trkpt lat="42.254363" lon="3.206402"><ele>180.3</ele><time>2011-04-30T11:35:40Z</time></trkpt>
<trkpt lat="42.254448" lon="3.206437"><ele>181.7</ele><time>2011-04-30T11:35:45Z</time></trkpt>
<trkpt lat="42.254528" lon="3.206492"><ele>183</ele><time>2011-04-30T11:35:50Z</time></trkpt>
<trkpt lat="42.254612" lon="3.206560"><ele>184.2</ele><time>2011-04-30T11:35:55Z</time></trkpt>
<trkpt lat="42.254673" lon="3.206650"><ele>185.3</ele><time>2011-04-30T11:36:00Z</time></trkpt>
<trkpt lat="42.254677" lon="3.206767"><ele>185.5</ele><time>2011-04-30T11:36:05Z</time></trkpt>
<trkpt lat="42.254647" lon="3.206893"><ele>185.8</ele><time>2011-04-30T11:36:10Z</time></trkpt>
<trkpt lat="42.254605" lon="3.207022"><ele>186.2</ele><time>2011-04-30T11:36:15Z</time></trkpt>
<trkpt lat="42.254570" lon="3.207147"><ele>187</ele><time>2011-04-30T11:36:20Z</time></trkpt>
<trkpt lat="42.254535" lon="3.207275"><ele>187.8</ele><time>2011-04-30T11:36:25Z</time></trkpt>
<trkpt lat="42.254490" lon="3.207403"><ele>188.7</ele><time>2011-04-30T11:36:30Z</time></trkpt>
<trkpt lat="42.254452" lon="3.207538"><ele>189.5</ele><time>2011-04-30T11:36:35Z</time></trkpt>
<trkpt lat="42.254413" lon="3.207680"><ele>190.3</ele><time>2011-04-30T11:36:40Z</time></trkpt>
<trkpt lat="42.254380" lon="3.207803"><ele>191.3</ele><time>2011-04-30T11:36:45Z</time></trkpt>
<trkpt lat="42.254337" lon="3.207908"><ele>192.3</ele><time>2011-04-30T11:36:50Z</time></trkpt>
<trkpt lat="42.254303" lon="3.208022"><ele>193.2</ele><time>2011-04-30T11:36:55Z</time></trkpt>
<trkpt lat="42.254257" lon="3.208132"><ele>194.3</ele><time>2011-04-30T11:37:00Z</time></trkpt>
<trkpt lat="42.254212" lon="3.208248"><ele>195.4</ele><time>2011-04-30T11:37:05Z</time></trkpt>
<trkpt lat="42.254158" lon="3.208363"><ele>196.5</ele><time>2011-04-30T11:37:10Z</time></trkpt>
<trkpt lat="42.254108" lon="3.208473"><ele>197.4</ele><time>2011-04-30T11:37:15Z</time></trkpt>
<trkpt lat="42.254055" lon="3.208578"><ele>198.3</ele><time>2011-04-30T11:37:20Z</time></trkpt>
<trkpt lat="42.254002" lon="3.208682"><ele>199.1</ele><time>2011-04-30T11:37:25Z</time></trkpt>
<trkpt lat="42.253940" lon="3.208783"><ele>200</ele><time>2011-04-30T11:37:30Z</time></trkpt>
<trkpt lat="42.253872" lon="3.208892"><ele>201</ele><time>2011-04-30T11:37:35Z</time></trkpt>
<trkpt lat="42.253827" lon="3.209008"><ele>201.9</ele><time>2011-04-30T11:37:40Z</time></trkpt>
<trkpt lat="42.253898" lon="3.209047"><ele>202.9</ele><time>2011-04-30T11:37:45Z</time></trkpt>
<trkpt lat="42.253902" lon="3.209038"><ele>203.1</ele><time>2011-04-30T11:37:50Z</time></trkpt>
<trkpt lat="42.253922" lon="3.209020"><ele>203.5</ele><time>2011-04-30T11:37:55Z</time></trkpt>
<trkpt lat="42.253922" lon="3.209015"><ele>203.9</ele><time>2011-04-30T11:38:00Z</time></trkpt>
<trkpt lat="42.253925" lon="3.209013"><ele>204</ele><time>2011-04-30T11:38:05Z</time></trkpt>
<trkpt lat="42.253925" lon="3.209008"><ele>204</ele><time>2011-04-30T11:38:10Z</time></trkpt>
<trkpt lat="42.253922" lon="3.209007"><ele>203.9</ele><time>2011-04-30T11:38:15Z</time></trkpt>
<trkpt lat="42.253922" lon="3.209007"><ele>204</ele><time>2011-04-30T11:38:20Z</time></trkpt>
<trkpt lat="42.253922" lon="3.209003"><ele>204.2</ele><time>2011-04-30T11:38:25Z</time></trkpt>
<trkpt lat="42.253922" lon="3.209002"><ele>204.3</ele><time>2011-04-30T11:38:30Z</time></trkpt>
<trkpt lat="42.253918" lon="3.208997"><ele>204.5</ele><time>2011-04-30T11:38:35Z</time></trkpt>
<trkpt lat="42.253918" lon="3.208995"><ele>204.5</ele><time>2011-04-30T11:38:40Z</time></trkpt>
<trkpt lat="42.253918" lon="3.208993"><ele>204.6</ele><time>2011-04-30T11:38:45Z</time></trkpt>
<trkpt lat="42.253918" lon="3.208992"><ele>204.8</ele><time>2011-04-30T11:38:50Z</time></trkpt>
<trkpt lat="42.253918" lon="3.208992"><ele>205</ele><time>2011-04-30T11:38:55Z</time></trkpt>
<trkpt lat="42.253918" lon="3.208988"><ele>205</ele><time>2011-04-30T11:39:00Z</time></trkpt>
<trkpt lat="42.253898" lon="3.209013"><ele>204.9</ele><time>2011-04-30T11:39:05Z</time></trkpt>
<trkpt lat="42.253880" lon="3.209012"><ele>204.1</ele><time>2011-04-30T11:39:10Z</time></trkpt>
<trkpt lat="42.253788" lon="3.209055"><ele>203.7</ele><time>2011-04-30T11:39:15Z</time></trkpt>
<trkpt lat="42.253708" lon="3.209153"><ele>204.5</ele><time>2011-04-30T11:39:20Z</time></trkpt>
<trkpt lat="42.253647" lon="3.209273"><ele>205.5</ele><time>2011-04-30T11:39:25Z</time></trkpt>
<trkpt lat="42.253597" lon="3.209400"><ele>206</ele><time>2011-04-30T11:39:30Z</time></trkpt>
<trkpt lat="42.253548" lon="3.209548"><ele>206.5</ele><time>2011-04-30T11:39:35Z</time></trkpt>
<trkpt lat="42.253505" lon="3.209695"><ele>207</ele><time>2011-04-30T11:39:40Z</time></trkpt>
<trkpt lat="42.253468" lon="3.209848"><ele>207.4</ele><time>2011-04-30T11:39:45Z</time></trkpt>
<trkpt lat="42.253413" lon="3.209985"><ele>208.1</ele><time>2011-04-30T11:39:50Z</time></trkpt>
<trkpt lat="42.253372" lon="3.210113"><ele>208.8</ele><time>2011-04-30T11:39:55Z</time></trkpt>
<trkpt lat="42.253323" lon="3.210243"><ele>209.5</ele><time>2011-04-30T11:40:00Z</time></trkpt>
<trkpt lat="42.253288" lon="3.210387"><ele>210.1</ele><time>2011-04-30T11:40:05Z</time></trkpt>
<trkpt lat="42.253285" lon="3.210550"><ele>210.5</ele><time>2011-04-30T11:40:10Z</time></trkpt>
<trkpt lat="42.253357" lon="3.210675"><ele>211</ele><time>2011-04-30T11:40:15Z</time></trkpt>
<trkpt lat="42.253472" lon="3.210650"><ele>211.9</ele><time>2011-04-30T11:40:20Z</time></trkpt>
<trkpt lat="42.253510" lon="3.210533"><ele>213</ele><time>2011-04-30T11:40:25Z</time></trkpt>
<trkpt lat="42.253490" lon="3.210390"><ele>213.5</ele><time>2011-04-30T11:40:30Z</time></trkpt>
<trkpt lat="42.253490" lon="3.210237"><ele>213.7</ele><time>2011-04-30T11:40:35Z</time></trkpt>
<trkpt lat="42.253540" lon="3.210085"><ele>214.2</ele><time>2011-04-30T11:40:40Z</time></trkpt>
<trkpt lat="42.253613" lon="3.209968"><ele>214.9</ele><time>2011-04-30T11:40:45Z</time></trkpt>
<trkpt lat="42.253697" lon="3.209870"><ele>215.8</ele><time>2011-04-30T11:40:50Z</time></trkpt>
<trkpt lat="42.253773" lon="3.209772"><ele>216.9</ele><time>2011-04-30T11:40:55Z</time></trkpt>
<trkpt lat="42.253860" lon="3.209680"><ele>218</ele><time>2011-04-30T11:41:00Z</time></trkpt>
<trkpt lat="42.253948" lon="3.209593"><ele>218.9</ele><time>2011-04-30T11:41:05Z</time></trkpt>
<trkpt lat="42.254043" lon="3.209522"><ele>219.7</ele><time>2011-04-30T11:41:10Z</time></trkpt>
<trkpt lat="42.254147" lon="3.209472"><ele>220.6</ele><time>2011-04-30T11:41:15Z</time></trkpt>
<trkpt lat="42.254245" lon="3.209432"><ele>221.5</ele><time>2011-04-30T11:41:20Z</time></trkpt>
<trkpt lat="42.254345" lon="3.209393"><ele>222.3</ele><time>2011-04-30T11:41:25Z</time></trkpt>
<trkpt lat="42.254440" lon="3.209348"><ele>222.9</ele><time>2011-04-30T11:41:30Z</time></trkpt>
<trkpt lat="42.254540" lon="3.209300"><ele>223.8</ele><time>2011-04-30T11:41:35Z</time></trkpt>
<trkpt lat="42.254638" lon="3.209252"><ele>224.6</ele><time>2011-04-30T11:41:40Z</time></trkpt>
<trkpt lat="42.254730" lon="3.209202"><ele>225.5</ele><time>2011-04-30T11:41:45Z</time></trkpt>
<trkpt lat="42.254822" lon="3.209150"><ele>226.5</ele><time>2011-04-30T11:41:50Z</time></trkpt>
<trkpt lat="42.254917" lon="3.209098"><ele>227.3</ele><time>2011-04-30T11:41:55Z</time></trkpt>
<trkpt lat="42.255013" lon="3.209053"><ele>228</ele><time>2011-04-30T11:42:00Z</time></trkpt>
<trkpt lat="42.255108" lon="3.209018"><ele>228.8</ele><time>2011-04-30T11:42:05Z</time></trkpt>
<trkpt lat="42.255203" lon="3.208962"><ele>229.7</ele><time>2011-04-30T11:42:10Z</time></trkpt>
<trkpt lat="42.255292" lon="3.208893"><ele>230.5</ele><time>2011-04-30T11:42:15Z</time></trkpt>
<trkpt lat="42.255372" lon="3.208820"><ele>231.4</ele><time>2011-04-30T11:42:20Z</time></trkpt>
<trkpt lat="42.255447" lon="3.208743"><ele>232.4</ele><time>2011-04-30T11:42:25Z</time></trkpt>
<trkpt lat="42.255523" lon="3.208663"><ele>233.4</ele><time>2011-04-30T11:42:30Z</time></trkpt>
<trkpt lat="42.255597" lon="3.208578"><ele>234.1</ele><time>2011-04-30T11:42:35Z</time></trkpt>
<trkpt lat="42.255668" lon="3.208487"><ele>234.8</ele><time>2011-04-30T11:42:40Z</time></trkpt>
<trkpt lat="42.255748" lon="3.208407"><ele>235.4</ele><time>2011-04-30T11:42:45Z</time></trkpt>
<trkpt lat="42.255825" lon="3.208325"><ele>236.1</ele><time>2011-04-30T11:42:50Z</time></trkpt>
<trkpt lat="42.255905" lon="3.208255"><ele>236.9</ele><time>2011-04-30T11:42:55Z</time></trkpt>
<trkpt lat="42.255993" lon="3.208202"><ele>237.8</ele><time>2011-04-30T11:43:00Z</time></trkpt>
<trkpt lat="42.256080" lon="3.208155"><ele>238.7</ele><time>2011-04-30T11:43:05Z</time></trkpt>
<trkpt lat="42.256172" lon="3.208110"><ele>239.7</ele><time>2011-04-30T11:43:10Z</time></trkpt>
<trkpt lat="42.256260" lon="3.208065"><ele>240.7</ele><time>2011-04-30T11:43:15Z</time></trkpt>
<trkpt lat="42.256355" lon="3.208018"><ele>241.5</ele><time>2011-04-30T11:43:20Z</time></trkpt>
<trkpt lat="42.256447" lon="3.207970"><ele>242.2</ele><time>2011-04-30T11:43:25Z</time></trkpt>
<trkpt lat="42.256538" lon="3.207920"><ele>242.9</ele><time>2011-04-30T11:43:30Z</time></trkpt>
<trkpt lat="42.256627" lon="3.207870"><ele>243.8</ele><time>2011-04-30T11:43:35Z</time></trkpt>
<trkpt lat="42.256718" lon="3.207827"><ele>244.7</ele><time>2011-04-30T11:43:40Z</time></trkpt>
<trkpt lat="42.256813" lon="3.207810"><ele>245.8</ele><time>2011-04-30T11:43:45Z</time></trkpt>
<trkpt lat="42.256920" lon="3.207795"><ele>246.7</ele><time>2011-04-30T11:43:50Z</time></trkpt>
<trkpt lat="42.257023" lon="3.207800"><ele>247.8</ele><time>2011-04-30T11:43:55Z</time></trkpt>
<trkpt lat="42.257127" lon="3.207827"><ele>248.8</ele><time>2011-04-30T11:44:00Z</time></trkpt>
<trkpt lat="42.257222" lon="3.207863"><ele>249.7</ele><time>2011-04-30T11:44:05Z</time></trkpt>
<trkpt lat="42.257317" lon="3.207910"><ele>250.8</ele><time>2011-04-30T11:44:10Z</time></trkpt>
<trkpt lat="42.257412" lon="3.207960"><ele>251.7</ele><time>2011-04-30T11:44:15Z</time></trkpt>
<trkpt lat="42.257503" lon="3.208017"><ele>252.8</ele><time>2011-04-30T11:44:20Z</time></trkpt>
<trkpt lat="42.257603" lon="3.208067"><ele>253.6</ele><time>2011-04-30T11:44:25Z</time></trkpt>
<trkpt lat="42.257698" lon="3.208105"><ele>254.7</ele><time>2011-04-30T11:44:30Z</time></trkpt>
<trkpt lat="42.257793" lon="3.208128"><ele>255.7</ele><time>2011-04-30T11:44:35Z</time></trkpt>
<trkpt lat="42.257897" lon="3.208128"><ele>256.5</ele><time>2011-04-30T11:44:40Z</time></trkpt>
<trkpt lat="42.257992" lon="3.208132"><ele>257.3</ele><time>2011-04-30T11:44:45Z</time></trkpt>
<trkpt lat="42.258092" lon="3.208118"><ele>258.1</ele><time>2011-04-30T11:44:50Z</time></trkpt>
<trkpt lat="42.258190" lon="3.208103"><ele>259</ele><time>2011-04-30T11:44:55Z</time></trkpt>
<trkpt lat="42.258285" lon="3.208092"><ele>259.9</ele><time>2011-04-30T11:45:00Z</time></trkpt>
<trkpt lat="42.258382" lon="3.208070"><ele>261</ele><time>2011-04-30T11:45:05Z</time></trkpt>
<trkpt lat="42.258477" lon="3.208035"><ele>261.9</ele><time>2011-04-30T11:45:10Z</time></trkpt>
<trkpt lat="42.258563" lon="3.207985"><ele>262.9</ele><time>2011-04-30T11:45:15Z</time></trkpt>
<trkpt lat="42.258652" lon="3.207927"><ele>263.8</ele><time>2011-04-30T11:45:20Z</time></trkpt>
<trkpt lat="42.258732" lon="3.207853"><ele>264.5</ele><time>2011-04-30T11:45:25Z</time></trkpt>
<trkpt lat="42.258815" lon="3.207783"><ele>265.3</ele><time>2011-04-30T11:45:30Z</time></trkpt>
<trkpt lat="42.258897" lon="3.207715"><ele>266.3</ele><time>2011-04-30T11:45:35Z</time></trkpt>
<trkpt lat="42.258983" lon="3.207652"><ele>266.8</ele><time>2011-04-30T11:45:40Z</time></trkpt>
<trkpt lat="42.259068" lon="3.207578"><ele>267.3</ele><time>2011-04-30T11:45:45Z</time></trkpt>
<trkpt lat="42.259152" lon="3.207520"><ele>268</ele><time>2011-04-30T11:45:50Z</time></trkpt>
<trkpt lat="42.259232" lon="3.207448"><ele>268.7</ele><time>2011-04-30T11:45:55Z</time></trkpt>
<trkpt lat="42.259312" lon="3.207385"><ele>269.4</ele><time>2011-04-30T11:46:00Z</time></trkpt>
<trkpt lat="42.259395" lon="3.207328"><ele>270.2</ele><time>2011-04-30T11:46:05Z</time></trkpt>
<trkpt lat="42.259480" lon="3.207288"><ele>271.2</ele><time>2011-04-30T11:46:10Z</time></trkpt>
<trkpt lat="42.259572" lon="3.207265"><ele>272.3</ele><time>2011-04-30T11:46:15Z</time></trkpt>
<trkpt lat="42.259670" lon="3.207237"><ele>273.2</ele><time>2011-04-30T11:46:20Z</time></trkpt>
<trkpt lat="42.259762" lon="3.207217"><ele>274.1</ele><time>2011-04-30T11:46:25Z</time></trkpt>
<trkpt lat="42.259865" lon="3.207168"><ele>274.6</ele><time>2011-04-30T11:46:30Z</time></trkpt>
<trkpt lat="42.259968" lon="3.207158"><ele>275.4</ele><time>2011-04-30T11:46:35Z</time></trkpt>
<trkpt lat="42.260067" lon="3.207155"><ele>276.2</ele><time>2011-04-30T11:46:40Z</time></trkpt>
<trkpt lat="42.260167" lon="3.207158"><ele>277.2</ele><time>2011-04-30T11:46:45Z</time></trkpt>
<trkpt lat="42.260265" lon="3.207165"><ele>278.1</ele><time>2011-04-30T11:46:50Z</time></trkpt>
<trkpt lat="42.260357" lon="3.207178"><ele>279.1</ele><time>2011-04-30T11:46:55Z</time></trkpt>
<trkpt lat="42.260452" lon="3.207192"><ele>280.2</ele><time>2011-04-30T11:47:00Z</time></trkpt>
<trkpt lat="42.260548" lon="3.207215"><ele>281</ele><time>2011-04-30T11:47:05Z</time></trkpt>
<trkpt lat="42.260647" lon="3.207250"><ele>281.8</ele><time>2011-04-30T11:47:10Z</time></trkpt>
<trkpt lat="42.260738" lon="3.207277"><ele>282.7</ele><time>2011-04-30T11:47:15Z</time></trkpt>
<trkpt lat="42.260833" lon="3.207277"><ele>283.9</ele><time>2011-04-30T11:47:20Z</time></trkpt>
<trkpt lat="42.260940" lon="3.207258"><ele>284.6</ele><time>2011-04-30T11:47:25Z</time></trkpt>
<trkpt lat="42.261040" lon="3.207215"><ele>285.4</ele><time>2011-04-30T11:47:30Z</time></trkpt>
<trkpt lat="42.261132" lon="3.207167"><ele>286</ele><time>2011-04-30T11:47:35Z</time></trkpt>
<trkpt lat="42.261218" lon="3.207110"><ele>286.6</ele><time>2011-04-30T11:47:40Z</time></trkpt>
<trkpt lat="42.261303" lon="3.207052"><ele>287.4</ele><time>2011-04-30T11:47:45Z</time></trkpt>
<trkpt lat="42.261387" lon="3.206987"><ele>288.1</ele><time>2011-04-30T11:47:50Z</time></trkpt>
<trkpt lat="42.261467" lon="3.206917"><ele>289</ele><time>2011-04-30T11:47:55Z</time></trkpt>
<trkpt lat="42.261555" lon="3.206852"><ele>289.7</ele><time>2011-04-30T11:48:00Z</time></trkpt>
<trkpt lat="42.261638" lon="3.206792"><ele>290.6</ele><time>2011-04-30T11:48:05Z</time></trkpt>
<trkpt lat="42.261730" lon="3.206743"><ele>291.6</ele><time>2011-04-30T11:48:10Z</time></trkpt>
<trkpt lat="42.261825" lon="3.206707"><ele>292.5</ele><time>2011-04-30T11:48:15Z</time></trkpt>
<trkpt lat="42.261922" lon="3.206692"><ele>293.4</ele><time>2011-04-30T11:48:20Z</time></trkpt>
<trkpt lat="42.262017" lon="3.206705"><ele>294.3</ele><time>2011-04-30T11:48:25Z</time></trkpt>
<trkpt lat="42.262108" lon="3.206732"><ele>295.3</ele><time>2011-04-30T11:48:30Z</time></trkpt>
<trkpt lat="42.262195" lon="3.206782"><ele>296</ele><time>2011-04-30T11:48:35Z</time></trkpt>
<trkpt lat="42.262275" lon="3.206818"><ele>297</ele><time>2011-04-30T11:48:40Z</time></trkpt>
<trkpt lat="42.262360" lon="3.206853"><ele>298.1</ele><time>2011-04-30T11:48:45Z</time></trkpt>
<trkpt lat="42.262447" lon="3.206878"><ele>298.9</ele><time>2011-04-30T11:48:50Z</time></trkpt>
<trkpt lat="42.262538" lon="3.206918"><ele>299.9</ele><time>2011-04-30T11:48:55Z</time></trkpt>
<trkpt lat="42.262603" lon="3.207000"><ele>300.6</ele><time>2011-04-30T11:49:00Z</time></trkpt>
<trkpt lat="42.262645" lon="3.207118"><ele>301</ele><time>2011-04-30T11:49:05Z</time></trkpt>
<trkpt lat="42.262677" lon="3.207245"><ele>301.3</ele><time>2011-04-30T11:49:10Z</time></trkpt>
<trkpt lat="42.262707" lon="3.207380"><ele>301.6</ele><time>2011-04-30T11:49:15Z</time></trkpt>
<trkpt lat="42.262733" lon="3.207515"><ele>301.9</ele><time>2011-04-30T11:49:20Z</time></trkpt>
<trkpt lat="42.262763" lon="3.207643"><ele>302.5</ele><time>2011-04-30T11:49:25Z</time></trkpt>
<trkpt lat="42.262798" lon="3.207798"><ele>302.5</ele><time>2011-04-30T11:49:30Z</time></trkpt>
<trkpt lat="42.262833" lon="3.207938"><ele>303.1</ele><time>2011-04-30T11:49:35Z</time></trkpt>
<trkpt lat="42.262875" lon="3.208073"><ele>303.7</ele><time>2011-04-30T11:49:40Z</time></trkpt>
<trkpt lat="42.262928" lon="3.208202"><ele>304.2</ele><time>2011-04-30T11:49:45Z</time></trkpt>
<trkpt lat="42.262988" lon="3.208315"><ele>304.6</ele><time>2011-04-30T11:49:50Z</time></trkpt>
<trkpt lat="42.263065" lon="3.208407"><ele>305.4</ele><time>2011-04-30T11:49:55Z</time></trkpt>
<trkpt lat="42.263153" lon="3.208485"><ele>306.4</ele><time>2011-04-30T11:50:00Z</time></trkpt>
<trkpt lat="42.263245" lon="3.208530"><ele>307.7</ele><time>2011-04-30T11:50:05Z</time></trkpt>
<trkpt lat="42.263348" lon="3.208542"><ele>308.9</ele><time>2011-04-30T11:50:10Z</time></trkpt>
<trkpt lat="42.263455" lon="3.208523"><ele>309.9</ele><time>2011-04-30T11:50:15Z</time></trkpt>
<trkpt lat="42.263550" lon="3.208475"><ele>311.2</ele><time>2011-04-30T11:50:20Z</time></trkpt>
<trkpt lat="42.263645" lon="3.208408"><ele>312</ele><time>2011-04-30T11:50:25Z</time></trkpt>
<trkpt lat="42.263733" lon="3.208337"><ele>312.7</ele><time>2011-04-30T11:50:30Z</time></trkpt>
<trkpt lat="42.263825" lon="3.208273"><ele>313.5</ele><time>2011-04-30T11:50:35Z</time></trkpt>
<trkpt lat="42.263927" lon="3.208228"><ele>314.1</ele><time>2011-04-30T11:50:40Z</time></trkpt>
<trkpt lat="42.264030" lon="3.208188"><ele>314.8</ele><time>2011-04-30T11:50:45Z</time></trkpt>
<trkpt lat="42.264133" lon="3.208170"><ele>315.4</ele><time>2011-04-30T11:50:50Z</time></trkpt>
<trkpt lat="42.264233" lon="3.208173"><ele>316.1</ele><time>2011-04-30T11:50:55Z</time></trkpt>
<trkpt lat="42.264313" lon="3.208257"><ele>317.3</ele><time>2011-04-30T11:51:00Z</time></trkpt>
<trkpt lat="42.264347" lon="3.208385"><ele>318.2</ele><time>2011-04-30T11:51:05Z</time></trkpt>
<trkpt lat="42.264352" lon="3.208548"><ele>318.5</ele><time>2011-04-30T11:51:10Z</time></trkpt>
<trkpt lat="42.264355" lon="3.208725"><ele>318.4</ele><time>2011-04-30T11:51:15Z</time></trkpt>
<trkpt lat="42.264352" lon="3.208888"><ele>318.2</ele><time>2011-04-30T11:51:20Z</time></trkpt>
<trkpt lat="42.264332" lon="3.209053"><ele>318.1</ele><time>2011-04-30T11:51:25Z</time></trkpt>
<trkpt lat="42.264332" lon="3.209233"><ele>317.9</ele><time>2011-04-30T11:51:30Z</time></trkpt>
<trkpt lat="42.264332" lon="3.209418"><ele>317.7</ele><time>2011-04-30T11:51:35Z</time></trkpt>
<trkpt lat="42.264335" lon="3.209632"><ele>316.9</ele><time>2011-04-30T11:51:40Z</time></trkpt>
<trkpt lat="42.264325" lon="3.209862"><ele>315.8</ele><time>2011-04-30T11:51:45Z</time></trkpt>
<trkpt lat="42.264302" lon="3.210135"><ele>314.5</ele><time>2011-04-30T11:51:50Z</time></trkpt>
<trkpt lat="42.264233" lon="3.210415"><ele>313.8</ele><time>2011-04-30T11:51:55Z</time></trkpt>
<trkpt lat="42.264142" lon="3.210618"><ele>314</ele><time>2011-04-30T11:52:00Z</time></trkpt>
<trkpt lat="42.264092" lon="3.210797"><ele>314</ele><time>2011-04-30T11:52:05Z</time></trkpt>
<trkpt lat="42.264095" lon="3.211020"><ele>313.6</ele><time>2011-04-30T11:52:10Z</time></trkpt>
<trkpt lat="42.264115" lon="3.211293"><ele>312.9</ele><time>2011-04-30T11:52:15Z</time></trkpt>
<trkpt lat="42.264122" lon="3.211587"><ele>311.8</ele><time>2011-04-30T11:52:20Z</time></trkpt>
<trkpt lat="42.264130" lon="3.211900"><ele>310.6</ele><time>2011-04-30T11:52:25Z</time></trkpt>
<trkpt lat="42.264148" lon="3.212158"><ele>310</ele><time>2011-04-30T11:52:30Z</time></trkpt>
<trkpt lat="42.264153" lon="3.212447"><ele>309.6</ele><time>2011-04-30T11:52:35Z</time></trkpt>
<trkpt lat="42.264202" lon="3.212667"><ele>310.5</ele><time>2011-04-30T11:52:40Z</time></trkpt>
<trkpt lat="42.264255" lon="3.212803"><ele>311.7</ele><time>2011-04-30T11:52:45Z</time></trkpt>
<trkpt lat="42.264293" lon="3.212887"><ele>312.8</ele><time>2011-04-30T11:52:50Z</time></trkpt>
<trkpt lat="42.264332" lon="3.212970"><ele>313.9</ele><time>2011-04-30T11:52:55Z</time></trkpt>
<trkpt lat="42.264378" lon="3.213048"><ele>315.1</ele><time>2011-04-30T11:53:00Z</time></trkpt>
<trkpt lat="42.264427" lon="3.213128"><ele>316.1</ele><time>2011-04-30T11:53:05Z</time></trkpt>
<trkpt lat="42.264480" lon="3.213202"><ele>317</ele><time>2011-04-30T11:53:10Z</time></trkpt>
<trkpt lat="42.264533" lon="3.213273"><ele>317.8</ele><time>2011-04-30T11:53:15Z</time></trkpt>
<trkpt lat="42.264592" lon="3.213343"><ele>318.8</ele><time>2011-04-30T11:53:20Z</time></trkpt>
<trkpt lat="42.264645" lon="3.213413"><ele>319.6</ele><time>2011-04-30T11:53:25Z</time></trkpt>
<trkpt lat="42.264698" lon="3.213477"><ele>320.7</ele><time>2011-04-30T11:53:30Z</time></trkpt>
<trkpt lat="42.264755" lon="3.213538"><ele>321.8</ele><time>2011-04-30T11:53:35Z</time></trkpt>
<trkpt lat="42.264820" lon="3.213598"><ele>322.8</ele><time>2011-04-30T11:53:40Z</time></trkpt>
<trkpt lat="42.264877" lon="3.213655"><ele>323.9</ele><time>2011-04-30T11:53:45Z</time></trkpt>
<trkpt lat="42.264935" lon="3.213713"><ele>324.9</ele><time>2011-04-30T11:53:50Z</time></trkpt>
<trkpt lat="42.264995" lon="3.213767"><ele>325.8</ele><time>2011-04-30T11:53:55Z</time></trkpt>
<trkpt lat="42.265057" lon="3.213818"><ele>326.8</ele><time>2011-04-30T11:54:00Z</time></trkpt>
<trkpt lat="42.265113" lon="3.213877"><ele>327.9</ele><time>2011-04-30T11:54:05Z</time></trkpt>
<trkpt lat="42.265182" lon="3.213932"><ele>328.7</ele><time>2011-04-30T11:54:10Z</time></trkpt>
<trkpt lat="42.265247" lon="3.213992"><ele>329.4</ele><time>2011-04-30T11:54:15Z</time></trkpt>
<trkpt lat="42.265308" lon="3.214053"><ele>330.2</ele><time>2011-04-30T11:54:20Z</time></trkpt>
<trkpt lat="42.265370" lon="3.214115"><ele>331.1</ele><time>2011-04-30T11:54:25Z</time></trkpt>
<trkpt lat="42.265430" lon="3.214177"><ele>332</ele><time>2011-04-30T11:54:30Z</time></trkpt>
<trkpt lat="42.265488" lon="3.214233"><ele>332.8</ele><time>2011-04-30T11:54:35Z</time></trkpt>
<trkpt lat="42.265553" lon="3.214287"><ele>333.5</ele><time>2011-04-30T11:54:40Z</time></trkpt>
<trkpt lat="42.265617" lon="3.214337"><ele>334.3</ele><time>2011-04-30T11:54:45Z</time></trkpt>
<trkpt lat="42.265682" lon="3.214377"><ele>335.2</ele><time>2011-04-30T11:54:50Z</time></trkpt>
<trkpt lat="42.265752" lon="3.214408"><ele>336</ele><time>2011-04-30T11:54:55Z</time></trkpt>
<trkpt lat="42.265823" lon="3.214412"><ele>337</ele><time>2011-04-30T11:55:00Z</time></trkpt>
<trkpt lat="42.265897" lon="3.214398"><ele>337.8</ele><time>2011-04-30T11:55:05Z</time></trkpt>
<trkpt lat="42.265960" lon="3.214363"><ele>338.6</ele><time>2011-04-30T11:55:10Z</time></trkpt>
<trkpt lat="42.266022" lon="3.214313"><ele>339.4</ele><time>2011-04-30T11:55:15Z</time></trkpt>
<trkpt lat="42.266078" lon="3.214258"><ele>340.1</ele><time>2011-04-30T11:55:20Z</time></trkpt>
<trkpt lat="42.266132" lon="3.214197"><ele>340.6</ele><time>2011-04-30T11:55:25Z</time></trkpt>
<trkpt lat="42.266190" lon="3.214135"><ele>341.3</ele><time>2011-04-30T11:55:30Z</time></trkpt>
<trkpt lat="42.266238" lon="3.214068"><ele>342</ele><time>2011-04-30T11:55:35Z</time></trkpt>
<trkpt lat="42.266288" lon="3.213998"><ele>342.6</ele><time>2011-04-30T11:55:40Z</time></trkpt>
<trkpt lat="42.266335" lon="3.213917"><ele>343.3</ele><time>2011-04-30T11:55:45Z</time></trkpt>
<trkpt lat="42.266380" lon="3.213842"><ele>344.2</ele><time>2011-04-30T11:55:50Z</time></trkpt>
<trkpt lat="42.266418" lon="3.213767"><ele>345.1</ele><time>2011-04-30T11:55:55Z</time></trkpt>
<trkpt lat="42.266480" lon="3.213713"><ele>346.1</ele><time>2011-04-30T11:56:00Z</time></trkpt>
<trkpt lat="42.266548" lon="3.213693"><ele>347.5</ele><time>2011-04-30T11:56:05Z</time></trkpt>
<trkpt lat="42.266613" lon="3.213717"><ele>349.1</ele><time>2011-04-30T11:56:10Z</time></trkpt>
<trkpt lat="42.266678" lon="3.213767"><ele>350.3</ele><time>2011-04-30T11:56:15Z</time></trkpt>
<trkpt lat="42.266735" lon="3.213823"><ele>351.7</ele><time>2011-04-30T11:56:20Z</time></trkpt>
<trkpt lat="42.266792" lon="3.213880"><ele>353</ele><time>2011-04-30T11:56:25Z</time></trkpt>
<trkpt lat="42.266862" lon="3.213948"><ele>353.5</ele><time>2011-04-30T11:56:30Z</time></trkpt>
<trkpt lat="42.266930" lon="3.214012"><ele>353.5</ele><time>2011-04-30T11:56:35Z</time></trkpt>
<trkpt lat="42.266990" lon="3.214083"><ele>353.6</ele><time>2011-04-30T11:56:40Z</time></trkpt>
<trkpt lat="42.267055" lon="3.214150"><ele>354.2</ele><time>2011-04-30T11:56:45Z</time></trkpt>
<trkpt lat="42.267117" lon="3.214218"><ele>354.8</ele><time>2011-04-30T11:56:50Z</time></trkpt>
<trkpt lat="42.267178" lon="3.214285"><ele>355.7</ele><time>2011-04-30T11:56:55Z</time></trkpt>
<trkpt lat="42.267238" lon="3.214350"><ele>356.5</ele><time>2011-04-30T11:57:00Z</time></trkpt>
<trkpt lat="42.267297" lon="3.214422"><ele>357.2</ele><time>2011-04-30T11:57:05Z</time></trkpt>
<trkpt lat="42.267345" lon="3.214493"><ele>357.8</ele><time>2011-04-30T11:57:10Z</time></trkpt>
<trkpt lat="42.267398" lon="3.214560"><ele>358.5</ele><time>2011-04-30T11:57:15Z</time></trkpt>
<trkpt lat="42.267452" lon="3.214627"><ele>359.3</ele><time>2011-04-30T11:57:20Z</time></trkpt>
<trkpt lat="42.267498" lon="3.214693"><ele>360.3</ele><time>2011-04-30T11:57:25Z</time></trkpt>
<trkpt lat="42.267555" lon="3.214755"><ele>361.1</ele><time>2011-04-30T11:57:30Z</time></trkpt>
<trkpt lat="42.267608" lon="3.214830"><ele>361.6</ele><time>2011-04-30T11:57:35Z</time></trkpt>
<trkpt lat="42.267662" lon="3.214900"><ele>362</ele><time>2011-04-30T11:57:40Z</time></trkpt>
<trkpt lat="42.267715" lon="3.214973"><ele>363.1</ele><time>2011-04-30T11:57:45Z</time></trkpt>
<trkpt lat="42.267762" lon="3.215052"><ele>363.9</ele><time>2011-04-30T11:57:50Z</time></trkpt>
<trkpt lat="42.267800" lon="3.215138"><ele>364.6</ele><time>2011-04-30T11:57:55Z</time></trkpt>
<trkpt lat="42.267833" lon="3.215225"><ele>365.3</ele><time>2011-04-30T11:58:00Z</time></trkpt>
<trkpt lat="42.267880" lon="3.215307"><ele>366.2</ele><time>2011-04-30T11:58:05Z</time></trkpt>
<trkpt lat="42.267933" lon="3.215392"><ele>367</ele><time>2011-04-30T11:58:10Z</time></trkpt>
<trkpt lat="42.268013" lon="3.215442"><ele>367.6</ele><time>2011-04-30T11:58:15Z</time></trkpt>
<trkpt lat="42.268090" lon="3.215473"><ele>368.4</ele><time>2011-04-30T11:58:20Z</time></trkpt>
<trkpt lat="42.268177" lon="3.215492"><ele>368.9</ele><time>2011-04-30T11:58:25Z</time></trkpt>
<trkpt lat="42.268265" lon="3.215510"><ele>369.9</ele><time>2011-04-30T11:58:30Z</time></trkpt>
<trkpt lat="42.268342" lon="3.215517"><ele>371</ele><time>2011-04-30T11:58:35Z</time></trkpt>
<trkpt lat="42.268417" lon="3.215527"><ele>371.9</ele><time>2011-04-30T11:58:40Z</time></trkpt>
<trkpt lat="42.268497" lon="3.215545"><ele>372.6</ele><time>2011-04-30T11:58:45Z</time></trkpt>
<trkpt lat="42.268570" lon="3.215568"><ele>373.3</ele><time>2011-04-30T11:58:50Z</time></trkpt>
<trkpt lat="42.268650" lon="3.215585"><ele>374.1</ele><time>2011-04-30T11:58:55Z</time></trkpt>
<trkpt lat="42.268730" lon="3.215612"><ele>374.9</ele><time>2011-04-30T11:59:00Z</time></trkpt>
<trkpt lat="42.268798" lon="3.215652"><ele>375.7</ele><time>2011-04-30T11:59:05Z</time></trkpt>
<trkpt lat="42.268867" lon="3.215715"><ele>376.4</ele><time>2011-04-30T11:59:10Z</time></trkpt>
<trkpt lat="42.268948" lon="3.215783"><ele>376.9</ele><time>2011-04-30T11:59:15Z</time></trkpt>
<trkpt lat="42.269008" lon="3.215875"><ele>377.3</ele><time>2011-04-30T11:59:20Z</time></trkpt>
<trkpt lat="42.269058" lon="3.215983"><ele>377.6</ele><time>2011-04-30T11:59:25Z</time></trkpt>
<trkpt lat="42.269100" lon="3.216087"><ele>378</ele><time>2011-04-30T11:59:30Z</time></trkpt>
<trkpt lat="42.269150" lon="3.216195"><ele>378.5</ele><time>2011-04-30T11:59:35Z</time></trkpt>
<trkpt lat="42.269203" lon="3.216293"><ele>379.2</ele><time>2011-04-30T11:59:40Z</time></trkpt>
<trkpt lat="42.269248" lon="3.216395"><ele>379.8</ele><time>2011-04-30T11:59:45Z</time></trkpt>
<trkpt lat="42.269298" lon="3.216497"><ele>380.5</ele><time>2011-04-30T11:59:50Z</time></trkpt>
<trkpt lat="42.269352" lon="3.216592"><ele>381.5</ele><time>2011-04-30T11:59:55Z</time></trkpt>
<trkpt lat="42.269398" lon="3.216690"><ele>382.4</ele><time>2011-04-30T12:00:00Z</time></trkpt>
<trkpt lat="42.269447" lon="3.216787"><ele>383.3</ele><time>2011-04-30T12:00:05Z</time></trkpt>
<trkpt lat="42.269493" lon="3.216882"><ele>384.3</ele><time>2011-04-30T12:00:10Z</time></trkpt>
<trkpt lat="42.269535" lon="3.216978"><ele>385.4</ele><time>2011-04-30T12:00:15Z</time></trkpt>
<trkpt lat="42.269585" lon="3.217085"><ele>385.9</ele><time>2011-04-30T12:00:20Z</time></trkpt>
<trkpt lat="42.269630" lon="3.217188"><ele>386.8</ele><time>2011-04-30T12:00:25Z</time></trkpt>
<trkpt lat="42.269662" lon="3.217293"><ele>387.5</ele><time>2011-04-30T12:00:30Z</time></trkpt>
<trkpt lat="42.269683" lon="3.217400"><ele>388.1</ele><time>2011-04-30T12:00:35Z</time></trkpt>
<trkpt lat="42.269707" lon="3.217507"><ele>388.7</ele><time>2011-04-30T12:00:40Z</time></trkpt>
<trkpt lat="42.269730" lon="3.217615"><ele>389.3</ele><time>2011-04-30T12:00:45Z</time></trkpt>
<trkpt lat="42.269753" lon="3.217728"><ele>389.9</ele><time>2011-04-30T12:00:50Z</time></trkpt>
<trkpt lat="42.269775" lon="3.217842"><ele>390.5</ele><time>2011-04-30T12:00:55Z</time></trkpt>
<trkpt lat="42.269795" lon="3.217953"><ele>391.3</ele><time>2011-04-30T12:01:00Z</time></trkpt>
<trkpt lat="42.269822" lon="3.218075"><ele>391.7</ele><time>2011-04-30T12:01:05Z</time></trkpt>
<trkpt lat="42.269837" lon="3.218193"><ele>392.4</ele><time>2011-04-30T12:01:10Z</time></trkpt>
<trkpt lat="42.269855" lon="3.218317"><ele>393</ele><time>2011-04-30T12:01:15Z</time></trkpt>
<trkpt lat="42.269870" lon="3.218435"><ele>393.7</ele><time>2011-04-30T12:01:20Z</time></trkpt>
<trkpt lat="42.269882" lon="3.218558"><ele>394.4</ele><time>2011-04-30T12:01:25Z</time></trkpt>
<trkpt lat="42.269902" lon="3.218688"><ele>395.1</ele><time>2011-04-30T12:01:30Z</time></trkpt>
<trkpt lat="42.269917" lon="3.218822"><ele>395.8</ele><time>2011-04-30T12:01:35Z</time></trkpt>
<trkpt lat="42.269932" lon="3.218940"><ele>396.5</ele><time>2011-04-30T12:01:40Z</time></trkpt>
<trkpt lat="42.269955" lon="3.219058"><ele>397.3</ele><time>2011-04-30T12:01:45Z</time></trkpt>
<trkpt lat="42.270005" lon="3.219172"><ele>397.9</ele><time>2011-04-30T12:01:50Z</time></trkpt>
<trkpt lat="42.270068" lon="3.219248"><ele>398.8</ele><time>2011-04-30T12:01:55Z</time></trkpt>
<trkpt lat="42.270153" lon="3.219305"><ele>399.7</ele><time>2011-04-30T12:02:00Z</time></trkpt>
<trkpt lat="42.270237" lon="3.219345"><ele>400.6</ele><time>2011-04-30T12:02:05Z</time></trkpt>
<trkpt lat="42.270325" lon="3.219373"><ele>401.6</ele><time>2011-04-30T12:02:10Z</time></trkpt>
<trkpt lat="42.270417" lon="3.219373"><ele>402.7</ele><time>2011-04-30T12:02:15Z</time></trkpt>
<trkpt lat="42.270500" lon="3.219357"><ele>403.7</ele><time>2011-04-30T12:02:20Z</time></trkpt>
<trkpt lat="42.270592" lon="3.219327"><ele>404.6</ele><time>2011-04-30T12:02:25Z</time></trkpt>
<trkpt lat="42.270668" lon="3.219292"><ele>405.2</ele><time>2011-04-30T12:02:30Z</time></trkpt>
<trkpt lat="42.270740" lon="3.219237"><ele>405.8</ele><time>2011-04-30T12:02:35Z</time></trkpt>
<trkpt lat="42.270825" lon="3.219210"><ele>406.7</ele><time>2011-04-30T12:02:40Z</time></trkpt>
<trkpt lat="42.270912" lon="3.219157"><ele>407.6</ele><time>2011-04-30T12:02:45Z</time></trkpt>
<trkpt lat="42.270988" lon="3.219090"><ele>408.4</ele><time>2011-04-30T12:02:50Z</time></trkpt>
<trkpt lat="42.271072" lon="3.219023"><ele>409.2</ele><time>2011-04-30T12:02:55Z</time></trkpt>
<trkpt lat="42.271148" lon="3.218943"><ele>410</ele><time>2011-04-30T12:03:00Z</time></trkpt>
<trkpt lat="42.271233" lon="3.218863"><ele>410.6</ele><time>2011-04-30T12:03:05Z</time></trkpt>
<trkpt lat="42.271317" lon="3.218790"><ele>411.3</ele><time>2011-04-30T12:03:10Z</time></trkpt>
<trkpt lat="42.271405" lon="3.218712"><ele>412.2</ele><time>2011-04-30T12:03:15Z</time></trkpt>
<trkpt lat="42.271480" lon="3.218627"><ele>413</ele><time>2011-04-30T12:03:20Z</time></trkpt>
<trkpt lat="42.271557" lon="3.218533"><ele>413.7</ele><time>2011-04-30T12:03:25Z</time></trkpt>
<trkpt lat="42.271645" lon="3.218453"><ele>414.6</ele><time>2011-04-30T12:03:30Z</time></trkpt>
<trkpt lat="42.271732" lon="3.218368"><ele>415.4</ele><time>2011-04-30T12:03:35Z</time></trkpt>
<trkpt lat="42.271828" lon="3.218273"><ele>415.8</ele><time>2011-04-30T12:03:40Z</time></trkpt>
<trkpt lat="42.271915" lon="3.218188"><ele>416.5</ele><time>2011-04-30T12:03:45Z</time></trkpt>
<trkpt lat="42.272000" lon="3.218100"><ele>417.2</ele><time>2011-04-30T12:03:50Z</time></trkpt>
<trkpt lat="42.272092" lon="3.218013"><ele>418.1</ele><time>2011-04-30T12:03:55Z</time></trkpt>
<trkpt lat="42.272182" lon="3.217932"><ele>418.9</ele><time>2011-04-30T12:04:00Z</time></trkpt>
<trkpt lat="42.272278" lon="3.217880"><ele>419.9</ele><time>2011-04-30T12:04:05Z</time></trkpt>
<trkpt lat="42.272373" lon="3.217823"><ele>421.4</ele><time>2011-04-30T12:04:10Z</time></trkpt>
<trkpt lat="42.272450" lon="3.217820"><ele>422.5</ele><time>2011-04-30T12:04:15Z</time></trkpt>
<trkpt lat="42.272530" lon="3.217865"><ele>423.3</ele><time>2011-04-30T12:04:20Z</time></trkpt>
<trkpt lat="42.272622" lon="3.217930"><ele>423.4</ele><time>2011-04-30T12:04:25Z</time></trkpt>
<trkpt lat="42.272717" lon="3.217993"><ele>423.7</ele><time>2011-04-30T12:04:30Z</time></trkpt>
<trkpt lat="42.272808" lon="3.218060"><ele>424</ele><time>2011-04-30T12:04:35Z</time></trkpt>
<trkpt lat="42.272903" lon="3.218120"><ele>424</ele><time>2011-04-30T12:04:40Z</time></trkpt>
<trkpt lat="42.272995" lon="3.218197"><ele>424.1</ele><time>2011-04-30T12:04:45Z</time></trkpt>
<trkpt lat="42.273067" lon="3.218283"><ele>424.9</ele><time>2011-04-30T12:04:50Z</time></trkpt>
<trkpt lat="42.273132" lon="3.218368"><ele>425.9</ele><time>2011-04-30T12:04:55Z</time></trkpt>
<trkpt lat="42.273193" lon="3.218467"><ele>426.7</ele><time>2011-04-30T12:05:00Z</time></trkpt>
<trkpt lat="42.273243" lon="3.218567"><ele>427.5</ele><time>2011-04-30T12:05:05Z</time></trkpt>
<trkpt lat="42.273293" lon="3.218672"><ele>428.2</ele><time>2011-04-30T12:05:10Z</time></trkpt>
<trkpt lat="42.273330" lon="3.218780"><ele>428.9</ele><time>2011-04-30T12:05:15Z</time></trkpt>
<trkpt lat="42.273362" lon="3.218893"><ele>429.9</ele><time>2011-04-30T12:05:20Z</time></trkpt>
<trkpt lat="42.273392" lon="3.219002"><ele>430.2</ele><time>2011-04-30T12:05:25Z</time></trkpt>
<trkpt lat="42.273415" lon="3.219115"><ele>430.7</ele><time>2011-04-30T12:05:30Z</time></trkpt>
<trkpt lat="42.273430" lon="3.219233"><ele>431.3</ele><time>2011-04-30T12:05:35Z</time></trkpt>
<trkpt lat="42.273448" lon="3.219350"><ele>431.8</ele><time>2011-04-30T12:05:40Z</time></trkpt>
<trkpt lat="42.273460" lon="3.219465"><ele>432.6</ele><time>2011-04-30T12:05:45Z</time></trkpt>
<trkpt lat="42.273460" lon="3.219583"><ele>433.3</ele><time>2011-04-30T12:05:50Z</time></trkpt>
<trkpt lat="42.273460" lon="3.219705"><ele>433.9</ele><time>2011-04-30T12:05:55Z</time></trkpt>
<trkpt lat="42.273448" lon="3.219827"><ele>434.7</ele><time>2011-04-30T12:06:00Z</time></trkpt>
<trkpt lat="42.273430" lon="3.219947"><ele>435.3</ele><time>2011-04-30T12:06:05Z</time></trkpt>
<trkpt lat="42.273410" lon="3.220063"><ele>436.2</ele><time>2011-04-30T12:06:10Z</time></trkpt>
<trkpt lat="42.273392" lon="3.220185"><ele>436.6</ele><time>2011-04-30T12:06:15Z</time></trkpt>
<trkpt lat="42.273350" lon="3.220300"><ele>437.4</ele><time>2011-04-30T12:06:20Z</time></trkpt>
<trkpt lat="42.273297" lon="3.220407"><ele>438.3</ele><time>2011-04-30T12:06:25Z</time></trkpt>
<trkpt lat="42.273238" lon="3.220520"><ele>439.1</ele><time>2011-04-30T12:06:30Z</time></trkpt>
<trkpt lat="42.273182" lon="3.220628"><ele>440.2</ele><time>2011-04-30T12:06:35Z</time></trkpt>
<trkpt lat="42.273122" lon="3.220735"><ele>441.5</ele><time>2011-04-30T12:06:40Z</time></trkpt>
<trkpt lat="42.273057" lon="3.220847"><ele>442.7</ele><time>2011-04-30T12:06:45Z</time></trkpt>
<trkpt lat="42.272983" lon="3.220970"><ele>443.7</ele><time>2011-04-30T12:06:50Z</time></trkpt>
<trkpt lat="42.272903" lon="3.221107"><ele>444.4</ele><time>2011-04-30T12:06:55Z</time></trkpt>
<trkpt lat="42.272835" lon="3.221248"><ele>445</ele><time>2011-04-30T12:07:00Z</time></trkpt>
<trkpt lat="42.272752" lon="3.221390"><ele>445.6</ele><time>2011-04-30T12:07:05Z</time></trkpt>
<trkpt lat="42.272678" lon="3.221530"><ele>446.3</ele><time>2011-04-30T12:07:10Z</time></trkpt>
<trkpt lat="42.272587" lon="3.221702"><ele>446.7</ele><time>2011-04-30T12:07:15Z</time></trkpt>
<trkpt lat="42.272480" lon="3.221838"><ele>447.6</ele><time>2011-04-30T12:07:20Z</time></trkpt>
<trkpt lat="42.272365" lon="3.221968"><ele>448.6</ele><time>2011-04-30T12:07:25Z</time></trkpt>
<trkpt lat="42.272263" lon="3.222085"><ele>449.7</ele><time>2011-04-30T12:07:30Z</time></trkpt>
<trkpt lat="42.272163" lon="3.222198"><ele>450.9</ele><time>2011-04-30T12:07:35Z</time></trkpt>
<trkpt lat="42.272060" lon="3.222328"><ele>452</ele><time>2011-04-30T12:07:40Z</time></trkpt>
<trkpt lat="42.271968" lon="3.222508"><ele>452.1</ele><time>2011-04-30T12:07:45Z</time></trkpt>
<trkpt lat="42.271897" lon="3.222720"><ele>452.2</ele><time>2011-04-30T12:07:50Z</time></trkpt>
<trkpt lat="42.271877" lon="3.222973"><ele>452</ele><time>2011-04-30T12:07:55Z</time></trkpt>
<trkpt lat="42.271908" lon="3.223200"><ele>451.7</ele><time>2011-04-30T12:08:00Z</time></trkpt>
<trkpt lat="42.271927" lon="3.223397"><ele>450.4</ele><time>2011-04-30T12:08:05Z</time></trkpt>
<trkpt lat="42.271983" lon="3.223688"><ele>448.2</ele><time>2011-04-30T12:08:10Z</time></trkpt>
<trkpt lat="42.271942" lon="3.224102"><ele>445</ele><time>2011-04-30T12:08:15Z</time></trkpt>
<trkpt lat="42.271873" lon="3.224642"><ele>440.1</ele><time>2011-04-30T12:08:20Z</time></trkpt>
<trkpt lat="42.271938" lon="3.225178"><ele>436.6</ele><time>2011-04-30T12:08:25Z</time></trkpt>
<trkpt lat="42.272237" lon="3.225533"><ele>433.6</ele><time>2011-04-30T12:08:30Z</time></trkpt>
<trkpt lat="42.272610" lon="3.225745"><ele>430.2</ele><time>2011-04-30T12:08:35Z</time></trkpt>
<trkpt lat="42.272977" lon="3.225950"><ele>427</ele><time>2011-04-30T12:08:40Z</time></trkpt>
<trkpt lat="42.273323" lon="3.226160"><ele>424.5</ele><time>2011-04-30T12:08:45Z</time></trkpt>
<trkpt lat="42.273643" lon="3.226402"><ele>422.1</ele><time>2011-04-30T12:08:50Z</time></trkpt>
<trkpt lat="42.273960" lon="3.226630"><ele>419.1</ele><time>2011-04-30T12:08:55Z</time></trkpt>
<trkpt lat="42.274273" lon="3.226862"><ele>416.5</ele><time>2011-04-30T12:09:00Z</time></trkpt>
<trkpt lat="42.274513" lon="3.227118"><ele>415</ele><time>2011-04-30T12:09:05Z</time></trkpt>
<trkpt lat="42.274563" lon="3.227403"><ele>415.3</ele><time>2011-04-30T12:09:10Z</time></trkpt>
<trkpt lat="42.274578" lon="3.227573"><ele>416.8</ele><time>2011-04-30T12:09:15Z</time></trkpt>
<trkpt lat="42.274590" lon="3.227677"><ele>418.3</ele><time>2011-04-30T12:09:20Z</time></trkpt>
<trkpt lat="42.274590" lon="3.227825"><ele>419.5</ele><time>2011-04-30T12:09:25Z</time></trkpt>
<trkpt lat="42.274570" lon="3.227990"><ele>420.7</ele><time>2011-04-30T12:09:30Z</time></trkpt>
<trkpt lat="42.274558" lon="3.228157"><ele>421.6</ele><time>2011-04-30T12:09:35Z</time></trkpt>
<trkpt lat="42.274540" lon="3.228327"><ele>422.2</ele><time>2011-04-30T12:09:40Z</time></trkpt>
<trkpt lat="42.274513" lon="3.228488"><ele>422.8</ele><time>2011-04-30T12:09:45Z</time></trkpt>
<trkpt lat="42.274483" lon="3.228652"><ele>423.5</ele><time>2011-04-30T12:09:50Z</time></trkpt>
<trkpt lat="42.274445" lon="3.228827"><ele>424.2</ele><time>2011-04-30T12:09:55Z</time></trkpt>
<trkpt lat="42.274403" lon="3.229023"><ele>424.6</ele><time>2011-04-30T12:10:00Z</time></trkpt>
<trkpt lat="42.274345" lon="3.229217"><ele>424.2</ele><time>2011-04-30T12:10:05Z</time></trkpt>
<trkpt lat="42.274253" lon="3.229450"><ele>423</ele><time>2011-04-30T12:10:10Z</time></trkpt>
<trkpt lat="42.274097" lon="3.229748"><ele>419.9</ele><time>2011-04-30T12:10:15Z</time></trkpt>
<trkpt lat="42.274007" lon="3.229950"><ele>418.1</ele><time>2011-04-30T12:10:20Z</time></trkpt>
<trkpt lat="42.273990" lon="3.229955"><ele>418.1</ele><time>2011-04-30T12:10:25Z</time></trkpt>
<trkpt lat="42.273990" lon="3.229953"><ele>418.3</ele><time>2011-04-30T12:10:30Z</time></trkpt>
<trkpt lat="42.273987" lon="3.229955"><ele>418.1</ele><time>2011-04-30T12:10:35Z</time></trkpt>
<trkpt lat="42.273990" lon="3.229955"><ele>418.4</ele><time>2011-04-30T12:10:40Z</time></trkpt>
<trkpt lat="42.273990" lon="3.229955"><ele>419.2</ele><time>2011-04-30T12:10:45Z</time></trkpt>
<trkpt lat="42.273987" lon="3.229950"><ele>419.3</ele><time>2011-04-30T12:10:50Z</time></trkpt>
<trkpt lat="42.273987" lon="3.229948"><ele>418.8</ele><time>2011-04-30T12:10:55Z</time></trkpt>
<trkpt lat="42.273987" lon="3.229947"><ele>418.3</ele><time>2011-04-30T12:11:00Z</time></trkpt>
<trkpt lat="42.273987" lon="3.229943"><ele>417.9</ele><time>2011-04-30T12:11:05Z</time></trkpt>
<trkpt lat="42.273963" lon="3.229928"><ele>417.8</ele><time>2011-04-30T12:11:10Z</time></trkpt>
<trkpt lat="42.273845" lon="3.229867"><ele>416.2</ele><time>2011-04-30T12:11:15Z</time></trkpt>
<trkpt lat="42.273647" lon="3.229908"><ele>412.6</ele><time>2011-04-30T12:11:20Z</time></trkpt>
<trkpt lat="42.273422" lon="3.229943"><ele>407.2</ele><time>2011-04-30T12:11:25Z</time></trkpt>
<trkpt lat="42.273228" lon="3.229978"><ele>402.6</ele><time>2011-04-30T12:11:30Z</time></trkpt>
<trkpt lat="42.273010" lon="3.229997"><ele>397.4</ele><time>2011-04-30T12:11:35Z</time></trkpt>
<trkpt lat="42.272788" lon="3.230000"><ele>392.8</ele><time>2011-04-30T12:11:40Z</time></trkpt>
<trkpt lat="42.272495" lon="3.230033"><ele>388</ele><time>2011-04-30T12:11:45Z</time></trkpt>
<trkpt lat="42.272237" lon="3.230027"><ele>383</ele><time>2011-04-30T12:11:50Z</time></trkpt>
<trkpt lat="42.271927" lon="3.229810"><ele>377.1</ele><time>2011-04-30T12:11:55Z</time></trkpt>
<trkpt lat="42.271603" lon="3.229507"><ele>374.1</ele><time>2011-04-30T12:12:00Z</time></trkpt>
<trkpt lat="42.271378" lon="3.229382"><ele>375.1</ele><time>2011-04-30T12:12:05Z</time></trkpt>
<trkpt lat="42.271248" lon="3.229353"><ele>375.8</ele><time>2011-04-30T12:12:10Z</time></trkpt>
<trkpt lat="42.271050" lon="3.229437"><ele>373.7</ele><time>2011-04-30T12:12:15Z</time></trkpt>
<trkpt lat="42.270733" lon="3.229552"><ele>371</ele><time>2011-04-30T12:12:20Z</time></trkpt>
<trkpt lat="42.270405" lon="3.229573"><ele>371.1</ele><time>2011-04-30T12:12:25Z</time></trkpt>
<trkpt lat="42.270133" lon="3.229612"><ele>371.9</ele><time>2011-04-30T12:12:30Z</time></trkpt>
<trkpt lat="42.269917" lon="3.229647"><ele>371.4</ele><time>2011-04-30T12:12:35Z</time></trkpt>
<trkpt lat="42.269603" lon="3.229807"><ele>366.6</ele><time>2011-04-30T12:12:40Z</time></trkpt>
<trkpt lat="42.269123" lon="3.230023"><ele>358.9</ele><time>2011-04-30T12:12:45Z</time></trkpt>
<trkpt lat="42.268558" lon="3.230248"><ele>351.6</ele><time>2011-04-30T12:12:50Z</time></trkpt>
<trkpt lat="42.268037" lon="3.230540"><ele>346.3</ele><time>2011-04-30T12:12:55Z</time></trkpt>
<trkpt lat="42.267532" lon="3.230712"><ele>339.6</ele><time>2011-04-30T12:13:00Z</time></trkpt>
<trkpt lat="42.267010" lon="3.230762"><ele>335.3</ele><time>2011-04-30T12:13:05Z</time></trkpt>
<trkpt lat="42.266502" lon="3.230943"><ele>330.1</ele><time>2011-04-30T12:13:10Z</time></trkpt>
<trkpt lat="42.266090" lon="3.231093"><ele>324.5</ele><time>2011-04-30T12:13:15Z</time></trkpt>
<trkpt lat="42.265732" lon="3.230937"><ele>318.5</ele><time>2011-04-30T12:13:20Z</time></trkpt>
<trkpt lat="42.265332" lon="3.230497"><ele>313.5</ele><time>2011-04-30T12:13:25Z</time></trkpt>
<trkpt lat="42.264847" lon="3.230190"><ele>309.6</ele><time>2011-04-30T12:13:30Z</time></trkpt>
<trkpt lat="42.264438" lon="3.230020"><ele>307.5</ele><time>2011-04-30T12:13:35Z</time></trkpt>
<trkpt lat="42.264118" lon="3.229850"><ele>307.7</ele><time>2011-04-30T12:13:40Z</time></trkpt>
<trkpt lat="42.263817" lon="3.229705"><ele>305.5</ele><time>2011-04-30T12:13:45Z</time></trkpt>
<trkpt lat="42.263352" lon="3.229650"><ele>300.6</ele><time>2011-04-30T12:13:50Z</time></trkpt>
<trkpt lat="42.262810" lon="3.229592"><ele>294.8</ele><time>2011-04-30T12:13:55Z</time></trkpt>
<trkpt lat="42.262183" lon="3.229645"><ele>288.3</ele><time>2011-04-30T12:14:00Z</time></trkpt>
<trkpt lat="42.261685" lon="3.229810"><ele>286.7</ele><time>2011-04-30T12:14:05Z</time></trkpt>
<trkpt lat="42.261182" lon="3.230093"><ele>282.2</ele><time>2011-04-30T12:14:10Z</time></trkpt>
<trkpt lat="42.260777" lon="3.230453"><ele>281.7</ele><time>2011-04-30T12:14:15Z</time></trkpt>
<trkpt lat="42.260418" lon="3.230720"><ele>279.2</ele><time>2011-04-30T12:14:20Z</time></trkpt>
<trkpt lat="42.260022" lon="3.231028"><ele>275.2</ele><time>2011-04-30T12:14:25Z</time></trkpt>
<trkpt lat="42.259502" lon="3.231325"><ele>267</ele><time>2011-04-30T12:14:30Z</time></trkpt>
<trkpt lat="42.258930" lon="3.231567"><ele>262.3</ele><time>2011-04-30T12:14:35Z</time></trkpt>
<trkpt lat="42.258397" lon="3.231465"><ele>257.4</ele><time>2011-04-30T12:14:40Z</time></trkpt>
<trkpt lat="42.257862" lon="3.231398"><ele>253</ele><time>2011-04-30T12:14:45Z</time></trkpt>
<trkpt lat="42.257550" lon="3.231675"><ele>251.4</ele><time>2011-04-30T12:14:50Z</time></trkpt>
<trkpt lat="42.257420" lon="3.232062"><ele>246.1</ele><time>2011-04-30T12:14:55Z</time></trkpt>
<trkpt lat="42.257320" lon="3.232462"><ele>238.4</ele><time>2011-04-30T12:15:00Z</time></trkpt>
<trkpt lat="42.257157" lon="3.232898"><ele>231.2</ele><time>2011-04-30T12:15:05Z</time></trkpt>
<trkpt lat="42.257180" lon="3.233357"><ele>224.7</ele><time>2011-04-30T12:15:10Z</time></trkpt>
<trkpt lat="42.257233" lon="3.233863"><ele>216.4</ele><time>2011-04-30T12:15:15Z</time></trkpt>
<trkpt lat="42.257160" lon="3.234495"><ele>210.7</ele><time>2011-04-30T12:15:20Z</time></trkpt>
<trkpt lat="42.257083" lon="3.235082"><ele>204.5</ele><time>2011-04-30T12:15:25Z</time></trkpt>
<trkpt lat="42.256988" lon="3.235738"><ele>197.4</ele><time>2011-04-30T12:15:30Z</time></trkpt>
<trkpt lat="42.256847" lon="3.236368"><ele>193.2</ele><time>2011-04-30T12:15:35Z</time></trkpt>
<trkpt lat="42.256692" lon="3.236965"><ele>185.8</ele><time>2011-04-30T12:15:40Z</time></trkpt>
<trkpt lat="42.256573" lon="3.237687"><ele>179.2</ele><time>2011-04-30T12:15:45Z</time></trkpt>
<trkpt lat="42.256305" lon="3.238252"><ele>177.8</ele><time>2011-04-30T12:15:50Z</time></trkpt>
<trkpt lat="42.256107" lon="3.238722"><ele>176.9</ele><time>2011-04-30T12:15:55Z</time></trkpt>
<trkpt lat="42.255898" lon="3.239150"><ele>176</ele><time>2011-04-30T12:16:00Z</time></trkpt>
<trkpt lat="42.255677" lon="3.239552"><ele>174.4</ele><time>2011-04-30T12:16:05Z</time></trkpt>
<trkpt lat="42.255410" lon="3.239983"><ele>169.2</ele><time>2011-04-30T12:16:10Z</time></trkpt>
<trkpt lat="42.255328" lon="3.240573"><ele>165.6</ele><time>2011-04-30T12:16:15Z</time></trkpt>
<trkpt lat="42.255348" lon="3.241067"><ele>165</ele><time>2011-04-30T12:16:20Z</time></trkpt>
<trkpt lat="42.255367" lon="3.241455"><ele>165.1</ele><time>2011-04-30T12:16:25Z</time></trkpt>
<trkpt lat="42.255490" lon="3.241875"><ele>162.5</ele><time>2011-04-30T12:16:30Z</time></trkpt>
<trkpt lat="42.255677" lon="3.242338"><ele>159.2</ele><time>2011-04-30T12:16:35Z</time></trkpt>
<trkpt lat="42.255828" lon="3.242820"><ele>153.8</ele><time>2011-04-30T12:16:40Z</time></trkpt>
<trkpt lat="42.255707" lon="3.243385"><ele>146.5</ele><time>2011-04-30T12:16:45Z</time></trkpt>
<trkpt lat="42.255665" lon="3.244018"><ele>137.3</ele><time>2011-04-30T12:16:50Z</time></trkpt>
<trkpt lat="42.255562" lon="3.244465"><ele>132</ele><time>2011-04-30T12:16:55Z</time></trkpt>
<trkpt lat="42.255153" lon="3.244837"><ele>127.6</ele><time>2011-04-30T12:17:00Z</time></trkpt>
<trkpt lat="42.254777" lon="3.245332"><ele>124.4</ele><time>2011-04-30T12:17:05Z</time></trkpt>
<trkpt lat="42.254528" lon="3.245930"><ele>121.9</ele><time>2011-04-30T12:17:10Z</time></trkpt>
<trkpt lat="42.254353" lon="3.246467"><ele>120.7</ele><time>2011-04-30T12:17:15Z</time></trkpt>
<trkpt lat="42.254315" lon="3.246995"><ele>118.2</ele><time>2011-04-30T12:17:20Z</time></trkpt>
<trkpt lat="42.254200" lon="3.247527"><ele>116.3</ele><time>2011-04-30T12:17:25Z</time></trkpt>
<trkpt lat="42.254020" lon="3.248002"><ele>115.2</ele><time>2011-04-30T12:17:30Z</time></trkpt>
<trkpt lat="42.253998" lon="3.248517"><ele>111.6</ele><time>2011-04-30T12:17:35Z</time></trkpt>
<trkpt lat="42.253975" lon="3.248922"><ele>107.8</ele><time>2011-04-30T12:17:40Z</time></trkpt>
<trkpt lat="42.253833" lon="3.248932"><ele>106</ele><time>2011-04-30T12:17:45Z</time></trkpt>
<trkpt lat="42.253780" lon="3.248840"><ele>104.6</ele><time>2011-04-30T12:17:50Z</time></trkpt>
<trkpt lat="42.253792" lon="3.248968"><ele>104.8</ele><time>2011-04-30T12:17:55Z</time></trkpt>
<trkpt lat="42.253925" lon="3.249157"><ele>105.4</ele><time>2011-04-30T12:18:00Z</time></trkpt>
<trkpt lat="42.254070" lon="3.249370"><ele>104.7</ele><time>2011-04-30T12:18:05Z</time></trkpt>
<trkpt lat="42.254303" lon="3.249527"><ele>102.9</ele><time>2011-04-30T12:18:10Z</time></trkpt>
<trkpt lat="42.254585" lon="3.249508"><ele>101.4</ele><time>2011-04-30T12:18:15Z</time></trkpt>
<trkpt lat="42.254878" lon="3.249403"><ele>100</ele><time>2011-04-30T12:18:20Z</time></trkpt>
<trkpt lat="42.255177" lon="3.249225"><ele>97.7</ele><time>2011-04-30T12:18:25Z</time></trkpt>
<trkpt lat="42.255458" lon="3.248962"><ele>94.9</ele><time>2011-04-30T12:18:30Z</time></trkpt>
<trkpt lat="42.255768" lon="3.248692"><ele>92</ele><time>2011-04-30T12:18:35Z</time></trkpt>
<trkpt lat="42.256100" lon="3.248538"><ele>89.4</ele><time>2011-04-30T12:18:40Z</time></trkpt>
<trkpt lat="42.256405" lon="3.248657"><ele>86.8</ele><time>2011-04-30T12:18:45Z</time></trkpt>
<trkpt lat="42.256562" lon="3.249088"><ele>83.6</ele><time>2011-04-30T12:18:50Z</time></trkpt>
<trkpt lat="42.256843" lon="3.249290"><ele>81</ele><time>2011-04-30T12:18:55Z</time></trkpt>
<trkpt lat="42.257098" lon="3.249150"><ele>79.2</ele><time>2011-04-30T12:19:00Z</time></trkpt>
<trkpt lat="42.257343" lon="3.248822"><ele>76.4</ele><time>2011-04-30T12:19:05Z</time></trkpt>
<trkpt lat="42.257618" lon="3.248463"><ele>74.2</ele><time>2011-04-30T12:19:10Z</time></trkpt>
<trkpt lat="42.257870" lon="3.248147"><ele>73.3</ele><time>2011-04-30T12:19:15Z</time></trkpt>
<trkpt lat="42.258140" lon="3.247830"><ele>70.9</ele><time>2011-04-30T12:19:20Z</time></trkpt>
<trkpt lat="42.258542" lon="3.247680"><ele>68.2</ele><time>2011-04-30T12:19:25Z</time></trkpt>
<trkpt lat="42.258977" lon="3.247622"><ele>64.7</ele><time>2011-04-30T12:19:30Z</time></trkpt>
<trkpt lat="42.259235" lon="3.247297"><ele>61.9</ele><time>2011-04-30T12:19:35Z</time></trkpt>
<trkpt lat="42.259197" lon="3.246775"><ele>58.9</ele><time>2011-04-30T12:19:40Z</time></trkpt>
<trkpt lat="42.259132" lon="3.246215"><ele>56.2</ele><time>2011-04-30T12:19:45Z</time></trkpt>
<trkpt lat="42.258945" lon="3.245735"><ele>53.2</ele><time>2011-04-30T12:19:50Z</time></trkpt>
<trkpt lat="42.259018" lon="3.245413"><ele>51.5</ele><time>2011-04-30T12:19:55Z</time></trkpt>
<trkpt lat="42.259335" lon="3.245547"><ele>50.7</ele><time>2011-04-30T12:20:00Z</time></trkpt>
<trkpt lat="42.259693" lon="3.245458"><ele>50.1</ele><time>2011-04-30T12:20:05Z</time></trkpt>
<trkpt lat="42.259960" lon="3.245117"><ele>48.7</ele><time>2011-04-30T12:20:10Z</time></trkpt>
<trkpt lat="42.260143" lon="3.244778"><ele>46.9</ele><time>2011-04-30T12:20:15Z</time></trkpt>
<trkpt lat="42.260338" lon="3.244795"><ele>45.5</ele><time>2011-04-30T12:20:20Z</time></trkpt>
<trkpt lat="42.260208" lon="3.245157"><ele>43.6</ele><time>2011-04-30T12:20:25Z</time></trkpt>
<trkpt lat="42.259907" lon="3.245498"><ele>42.1</ele><time>2011-04-30T12:20:30Z</time></trkpt>
<trkpt lat="42.259765" lon="3.245962"><ele>40.3</ele><time>2011-04-30T12:20:35Z</time></trkpt>
<trkpt lat="42.259907" lon="3.246378"><ele>40.6</ele><time>2011-04-30T12:20:40Z</time></trkpt>
<trkpt lat="42.260037" lon="3.246602"><ele>42.3</ele><time>2011-04-30T12:20:45Z</time></trkpt>
<trkpt lat="42.260158" lon="3.246678"><ele>43.3</ele><time>2011-04-30T12:20:50Z</time></trkpt>
<trkpt lat="42.260273" lon="3.246688"><ele>44.2</ele><time>2011-04-30T12:20:55Z</time></trkpt>
<trkpt lat="42.260280" lon="3.246677"><ele>44.2</ele><time>2011-04-30T12:21:00Z</time></trkpt>
<trkpt lat="42.260285" lon="3.246680"><ele>44.2</ele><time>2011-04-30T12:21:05Z</time></trkpt>
<trkpt lat="42.260273" lon="3.246680"><ele>44</ele><time>2011-04-30T12:21:10Z</time></trkpt>
<trkpt lat="42.260280" lon="3.246682"><ele>44.2</ele><time>2011-04-30T12:21:15Z</time></trkpt>
<trkpt lat="42.260288" lon="3.246677"><ele>44.5</ele><time>2011-04-30T12:21:20Z</time></trkpt>
<trkpt lat="42.260315" lon="3.246685"><ele>45.1</ele><time>2011-04-30T12:21:25Z</time></trkpt>
<trkpt lat="42.260350" lon="3.246717"><ele>45.3</ele><time>2011-04-30T12:21:30Z</time></trkpt>
<trkpt lat="42.260463" lon="3.246782"><ele>45.7</ele><time>2011-04-30T12:21:35Z</time></trkpt>
<trkpt lat="42.260582" lon="3.246833"><ele>46.5</ele><time>2011-04-30T12:21:40Z</time></trkpt>
<trkpt lat="42.260697" lon="3.246880"><ele>47.5</ele><time>2011-04-30T12:21:45Z</time></trkpt>
<trkpt lat="42.260783" lon="3.246927"><ele>48.4</ele><time>2011-04-30T12:21:50Z</time></trkpt>
<trkpt lat="42.260865" lon="3.247008"><ele>49</ele><time>2011-04-30T12:21:55Z</time></trkpt>
<trkpt lat="42.260922" lon="3.247127"><ele>49.8</ele><time>2011-04-30T12:22:00Z</time></trkpt>
<trkpt lat="42.260952" lon="3.247263"><ele>50.5</ele><time>2011-04-30T12:22:05Z</time></trkpt>
<trkpt lat="42.260975" lon="3.247408"><ele>51.3</ele><time>2011-04-30T12:22:10Z</time></trkpt>
<trkpt lat="42.261020" lon="3.247548"><ele>52</ele><time>2011-04-30T12:22:15Z</time></trkpt>
<trkpt lat="42.261070" lon="3.247668"><ele>52.7</ele><time>2011-04-30T12:22:20Z</time></trkpt>
<trkpt lat="42.261132" lon="3.247783"><ele>53.7</ele><time>2011-04-30T12:22:25Z</time></trkpt>
<trkpt lat="42.261185" lon="3.247895"><ele>55</ele><time>2011-04-30T12:22:30Z</time></trkpt>
<trkpt lat="42.261250" lon="3.247992"><ele>56.1</ele><time>2011-04-30T12:22:35Z</time></trkpt>
<trkpt lat="42.261277" lon="3.248122"><ele>57.3</ele><time>2011-04-30T12:22:40Z</time></trkpt>
<trkpt lat="42.261245" lon="3.248255"><ele>58.4</ele><time>2011-04-30T12:22:45Z</time></trkpt>
<trkpt lat="42.261155" lon="3.248330"><ele>58.6</ele><time>2011-04-30T12:22:50Z</time></trkpt>
<trkpt lat="42.261055" lon="3.248393"><ele>58.7</ele><time>2011-04-30T12:22:55Z</time></trkpt>
<trkpt lat="42.260960" lon="3.248458"><ele>59.5</ele><time>2011-04-30T12:23:00Z</time></trkpt>
<trkpt lat="42.260872" lon="3.248538"><ele>61.1</ele><time>2011-04-30T12:23:05Z</time></trkpt>
<trkpt lat="42.260792" lon="3.248630"><ele>62</ele><time>2011-04-30T12:23:10Z</time></trkpt>
<trkpt lat="42.260700" lon="3.248738"><ele>62.5</ele><time>2011-04-30T12:23:15Z</time></trkpt>
<trkpt lat="42.260612" lon="3.248828"><ele>63</ele><time>2011-04-30T12:23:20Z</time></trkpt>
<trkpt lat="42.260517" lon="3.248895"><ele>64</ele><time>2011-04-30T12:23:25Z</time></trkpt>
<trkpt lat="42.260418" lon="3.248948"><ele>64.6</ele><time>2011-04-30T12:23:30Z</time></trkpt>
<trkpt lat="42.260327" lon="3.249010"><ele>66</ele><time>2011-04-30T12:23:35Z</time></trkpt>
<trkpt lat="42.260238" lon="3.249078"><ele>67.3</ele><time>2011-04-30T12:23:40Z</time></trkpt>
<trkpt lat="42.260155" lon="3.249167"><ele>67.1</ele><time>2011-04-30T12:23:45Z</time></trkpt>
<trkpt lat="42.260093" lon="3.249275"><ele>67.8</ele><time>2011-04-30T12:23:50Z</time></trkpt>
<trkpt lat="42.260128" lon="3.249390"><ele>68.7</ele><time>2011-04-30T12:23:55Z</time></trkpt>
<trkpt lat="42.260215" lon="3.249350"><ele>69.8</ele><time>2011-04-30T12:24:00Z</time></trkpt>
<trkpt lat="42.260280" lon="3.249247"><ele>70.6</ele><time>2011-04-30T12:24:05Z</time></trkpt>
<trkpt lat="42.260365" lon="3.249183"><ele>71</ele><time>2011-04-30T12:24:10Z</time></trkpt>
<trkpt lat="42.260457" lon="3.249137"><ele>72.2</ele><time>2011-04-30T12:24:15Z</time></trkpt>
<trkpt lat="42.260555" lon="3.249105"><ele>73.2</ele><time>2011-04-30T12:24:20Z</time></trkpt>
<trkpt lat="42.260650" lon="3.249072"><ele>74.3</ele><time>2011-04-30T12:24:25Z</time></trkpt>
<trkpt lat="42.260742" lon="3.249017"><ele>75.1</ele><time>2011-04-30T12:24:30Z</time></trkpt>
<trkpt lat="42.260818" lon="3.248940"><ele>75.7</ele><time>2011-04-30T12:24:35Z</time></trkpt>
<trkpt lat="42.260902" lon="3.248868"><ele>76.6</ele><time>2011-04-30T12:24:40Z</time></trkpt>
<trkpt lat="42.260983" lon="3.248792"><ele>77.6</ele><time>2011-04-30T12:24:45Z</time></trkpt>
<trkpt lat="42.261070" lon="3.248733"><ele>78.7</ele><time>2011-04-30T12:24:50Z</time></trkpt>
<trkpt lat="42.261170" lon="3.248707"><ele>79.8</ele><time>2011-04-30T12:24:55Z</time></trkpt>
<trkpt lat="42.261262" lon="3.248697"><ele>80.6</ele><time>2011-04-30T12:25:00Z</time></trkpt>
<trkpt lat="42.261353" lon="3.248663"><ele>81.3</ele><time>2011-04-30T12:25:05Z</time></trkpt>
<trkpt lat="42.261440" lon="3.248623"><ele>81.9</ele><time>2011-04-30T12:25:10Z</time></trkpt>
<trkpt lat="42.261532" lon="3.248587"><ele>82.6</ele><time>2011-04-30T12:25:15Z</time></trkpt>
<trkpt lat="42.261632" lon="3.248575"><ele>83.2</ele><time>2011-04-30T12:25:20Z</time></trkpt>
<trkpt lat="42.261730" lon="3.248577"><ele>83.8</ele><time>2011-04-30T12:25:25Z</time></trkpt>
<trkpt lat="42.261830" lon="3.248538"><ele>84.6</ele><time>2011-04-30T12:25:30Z</time></trkpt>
<trkpt lat="42.261913" lon="3.248460"><ele>85.3</ele><time>2011-04-30T12:25:35Z</time></trkpt>
<trkpt lat="42.261955" lon="3.248340"><ele>86.2</ele><time>2011-04-30T12:25:40Z</time></trkpt>
<trkpt lat="42.261940" lon="3.248205"><ele>85.8</ele><time>2011-04-30T12:25:45Z</time></trkpt>
<trkpt lat="42.261887" lon="3.248087"><ele>85.6</ele><time>2011-04-30T12:25:50Z</time></trkpt>
<trkpt lat="42.261830" lon="3.247975"><ele>85.8</ele><time>2011-04-30T12:25:55Z</time></trkpt>
<trkpt lat="42.261780" lon="3.247857"><ele>86.2</ele><time>2011-04-30T12:26:00Z</time></trkpt>
<trkpt lat="42.261727" lon="3.247737"><ele>87.2</ele><time>2011-04-30T12:26:05Z</time></trkpt>
<trkpt lat="42.261692" lon="3.247610"><ele>88.1</ele><time>2011-04-30T12:26:10Z</time></trkpt>
<trkpt lat="42.261680" lon="3.247478"><ele>89.2</ele><time>2011-04-30T12:26:15Z</time></trkpt>
<trkpt lat="42.261680" lon="3.247335"><ele>89.9</ele><time>2011-04-30T12:26:20Z</time></trkpt>
<trkpt lat="42.261688" lon="3.247197"><ele>90.9</ele><time>2011-04-30T12:26:25Z</time></trkpt>
<trkpt lat="42.261692" lon="3.247062"><ele>91.8</ele><time>2011-04-30T12:26:30Z</time></trkpt>
<trkpt lat="42.261680" lon="3.246928"><ele>93.1</ele><time>2011-04-30T12:26:35Z</time></trkpt>
<trkpt lat="42.261665" lon="3.246797"><ele>94</ele><time>2011-04-30T12:26:40Z</time></trkpt>
<trkpt lat="42.261668" lon="3.246670"><ele>94.8</ele><time>2011-04-30T12:26:45Z</time></trkpt>
<trkpt lat="42.261697" lon="3.246543"><ele>95.7</ele><time>2011-04-30T12:26:50Z</time></trkpt>
<trkpt lat="42.261712" lon="3.246410"><ele>96.3</ele><time>2011-04-30T12:26:55Z</time></trkpt>
<trkpt lat="42.261677" lon="3.246285"><ele>96.7</ele><time>2011-04-30T12:27:00Z</time></trkpt>
<trkpt lat="42.261597" lon="3.246195"><ele>96.8</ele><time>2011-04-30T12:27:05Z</time></trkpt>
<trkpt lat="42.261513" lon="3.246132"><ele>97.7</ele><time>2011-04-30T12:27:10Z</time></trkpt>
<trkpt lat="42.261428" lon="3.246058"><ele>98.6</ele><time>2011-04-30T12:27:15Z</time></trkpt>
<trkpt lat="42.261348" lon="3.245977"><ele>99.4</ele><time>2011-04-30T12:27:20Z</time></trkpt>
<trkpt lat="42.261288" lon="3.245877"><ele>100.4</ele><time>2011-04-30T12:27:25Z</time></trkpt>
<trkpt lat="42.261253" lon="3.245757"><ele>101.3</ele><time>2011-04-30T12:27:30Z</time></trkpt>
<trkpt lat="42.261262" lon="3.245625"><ele>102.4</ele><time>2011-04-30T12:27:35Z</time></trkpt>
<trkpt lat="42.261292" lon="3.245497"><ele>103.2</ele><time>2011-04-30T12:27:40Z</time></trkpt>
<trkpt lat="42.261330" lon="3.245375"><ele>104</ele><time>2011-04-30T12:27:45Z</time></trkpt>
<trkpt lat="42.261372" lon="3.245255"><ele>105.5</ele><time>2011-04-30T12:27:50Z</time></trkpt>
<trkpt lat="42.261413" lon="3.245140"><ele>107</ele><time>2011-04-30T12:27:55Z</time></trkpt>
<trkpt lat="42.261433" lon="3.245012"><ele>108.4</ele><time>2011-04-30T12:28:00Z</time></trkpt>
<trkpt lat="42.261475" lon="3.244905"><ele>109.9</ele><time>2011-04-30T12:28:05Z</time></trkpt>
<trkpt lat="42.261520" lon="3.244798"><ele>111.2</ele><time>2011-04-30T12:28:10Z</time></trkpt>
<trkpt lat="42.261573" lon="3.244698"><ele>112.1</ele><time>2011-04-30T12:28:15Z</time></trkpt>
<trkpt lat="42.261620" lon="3.244590"><ele>113</ele><time>2011-04-30T12:28:20Z</time></trkpt>
<trkpt lat="42.261662" lon="3.244485"><ele>113.7</ele><time>2011-04-30T12:28:25Z</time></trkpt>
<trkpt lat="42.261703" lon="3.244373"><ele>114.3</ele><time>2011-04-30T12:28:30Z</time></trkpt>
<trkpt lat="42.261757" lon="3.244265"><ele>115</ele><time>2011-04-30T12:28:35Z</time></trkpt>
<trkpt lat="42.261822" lon="3.244167"><ele>115.9</ele><time>2011-04-30T12:28:40Z</time></trkpt>
<trkpt lat="42.261898" lon="3.244103"><ele>116.9</ele><time>2011-04-30T12:28:45Z</time></trkpt>
<trkpt lat="42.261985" lon="3.244080"><ele>117.9</ele><time>2011-04-30T12:28:50Z</time></trkpt>
<trkpt lat="42.262058" lon="3.244068"><ele>119.3</ele><time>2011-04-30T12:28:55Z</time></trkpt>
<trkpt lat="42.262142" lon="3.244038"><ele>119.6</ele><time>2011-04-30T12:29:00Z</time></trkpt>
<trkpt lat="42.262207" lon="3.243968"><ele>120.4</ele><time>2011-04-30T12:29:05Z</time></trkpt>
<trkpt lat="42.262272" lon="3.243907"><ele>121.2</ele><time>2011-04-30T12:29:10Z</time></trkpt>
<trkpt lat="42.262333" lon="3.243860"><ele>122.1</ele><time>2011-04-30T12:29:15Z</time></trkpt>
<trkpt lat="42.262405" lon="3.243812"><ele>122.9</ele><time>2011-04-30T12:29:20Z</time></trkpt>
<trkpt lat="42.262485" lon="3.243765"><ele>123.8</ele><time>2011-04-30T12:29:25Z</time></trkpt>
<trkpt lat="42.262565" lon="3.243733"><ele>124.6</ele><time>2011-04-30T12:29:30Z</time></trkpt>
<trkpt lat="42.262642" lon="3.243737"><ele>125.3</ele><time>2011-04-30T12:29:35Z</time></trkpt>
<trkpt lat="42.262692" lon="3.243823"><ele>125.9</ele><time>2011-04-30T12:29:40Z</time></trkpt>
<trkpt lat="42.262635" lon="3.243917"><ele>126.7</ele><time>2011-04-30T12:29:45Z</time></trkpt>
<trkpt lat="42.262550" lon="3.243970"><ele>127.6</ele><time>2011-04-30T12:29:50Z</time></trkpt>
<trkpt lat="42.262473" lon="3.244032"><ele>128.6</ele><time>2011-04-30T12:29:55Z</time></trkpt>
<trkpt lat="42.262410" lon="3.244117"><ele>129.1</ele><time>2011-04-30T12:30:00Z</time></trkpt>
<trkpt lat="42.262363" lon="3.244223"><ele>129.4</ele><time>2011-04-30T12:30:05Z</time></trkpt>
<trkpt lat="42.262313" lon="3.244332"><ele>129.8</ele><time>2011-04-30T12:30:10Z</time></trkpt>
<trkpt lat="42.262245" lon="3.244418"><ele>130.6</ele><time>2011-04-30T12:30:15Z</time></trkpt>
<trkpt lat="42.262177" lon="3.244495"><ele>131.4</ele><time>2011-04-30T12:30:20Z</time></trkpt>
<trkpt lat="42.262112" lon="3.244583"><ele>132.1</ele><time>2011-04-30T12:30:25Z</time></trkpt>
<trkpt lat="42.262055" lon="3.244692"><ele>132.8</ele><time>2011-04-30T12:30:30Z</time></trkpt>
<trkpt lat="42.262020" lon="3.244818"><ele>133.6</ele><time>2011-04-30T12:30:35Z</time></trkpt>
<trkpt lat="42.262017" lon="3.244955"><ele>134.3</ele><time>2011-04-30T12:30:40Z</time></trkpt>
<trkpt lat="42.262032" lon="3.245087"><ele>134.9</ele><time>2011-04-30T12:30:45Z</time></trkpt>
<trkpt lat="42.262077" lon="3.245203"><ele>135.3</ele><time>2011-04-30T12:30:50Z</time></trkpt>
<trkpt lat="42.262130" lon="3.245308"><ele>135.9</ele><time>2011-04-30T12:30:55Z</time></trkpt>
<trkpt lat="42.262200" lon="3.245402"><ele>136.8</ele><time>2011-04-30T12:31:00Z</time></trkpt>
<trkpt lat="42.262287" lon="3.245478"><ele>137.4</ele><time>2011-04-30T12:31:05Z</time></trkpt>
<trkpt lat="42.262375" lon="3.245537"><ele>138.2</ele><time>2011-04-30T12:31:10Z</time></trkpt>
<trkpt lat="42.262473" lon="3.245577"><ele>138.9</ele><time>2011-04-30T12:31:15Z</time></trkpt>
<trkpt lat="42.262570" lon="3.245622"><ele>139.7</ele><time>2011-04-30T12:31:20Z</time></trkpt>
<trkpt lat="42.262662" lon="3.245670"><ele>140.4</ele><time>2011-04-30T12:31:25Z</time></trkpt>
<trkpt lat="42.262748" lon="3.245727"><ele>140.9</ele><time>2011-04-30T12:31:30Z</time></trkpt>
<trkpt lat="42.262825" lon="3.245802"><ele>141.8</ele><time>2011-04-30T12:31:35Z</time></trkpt>
<trkpt lat="42.262890" lon="3.245898"><ele>142.6</ele><time>2011-04-30T12:31:40Z</time></trkpt>
<trkpt lat="42.262932" lon="3.246015"><ele>143.7</ele><time>2011-04-30T12:31:45Z</time></trkpt>
<trkpt lat="42.262970" lon="3.246138"><ele>145</ele><time>2011-04-30T12:31:50Z</time></trkpt>
<trkpt lat="42.262982" lon="3.246283"><ele>145.8</ele><time>2011-04-30T12:31:55Z</time></trkpt>
<trkpt lat="42.262962" lon="3.246413"><ele>146.6</ele><time>2011-04-30T12:32:00Z</time></trkpt>
<trkpt lat="42.262940" lon="3.246540"><ele>147.4</ele><time>2011-04-30T12:32:05Z</time></trkpt>
<trkpt lat="42.262920" lon="3.246673"><ele>148</ele><time>2011-04-30T12:32:10Z</time></trkpt>
<trkpt lat="42.262925" lon="3.246812"><ele>148.9</ele><time>2011-04-30T12:32:15Z</time></trkpt>
<trkpt lat="42.263027" lon="3.247037"><ele>150.1</ele><time>2011-04-30T12:32:25Z</time></trkpt>
<trkpt lat="42.263207" lon="3.247145"><ele>151.6</ele><time>2011-04-30T12:32:35Z</time></trkpt>
<trkpt lat="42.263550" lon="3.247375"><ele>154.9</ele><time>2011-04-30T12:32:54Z</time></trkpt>
<trkpt lat="42.263810" lon="3.247448"><ele>157.5</ele><time>2011-04-30T12:33:08Z</time></trkpt>
</trkseg></trk></gpx>